[[[{"header":{"parameterUnit":"kt","parameterCategory":2,"dx":1,"dy":1,"la1":29.587661999999998,"la2":31.0,"lo1":-88.76705300000003,"lo2":-86.6583820000003,"nx":115,"ny":88,"refTime":"2022-10-14T06:00:00:Z","depth":0,"parameterNumber":1,"parameterNumberName":"U-component_of_WINDS"},"data":[1.4779,1.389,1.3679,1.3579,1.3606,1.3436,1.3547,1.3839,1.3743,1.3786,1.3983,1.4015,1.4015,1.4015,1.4015,1.4015,1.4015,1.4015,1.4015,1.4074,1.4457,1.4727,1.55,1.6872,1.7425,1.8716,2.0165,2.1014,2.238,2.3148,2.4039,2.547,2.6295,2.6984,2.7401,2.8103,2.8966,2.9312,2.9454,2.9601,2.9945,2.9987,3.0039,3.0143,3.0154,3.0211,3.0259,3.0316,3.0432,3.0385,3.0442,3.1112,3.2251,3.3893,3.5338,3.6516,3.6569,3.6451,3.6607,3.6616,3.6534,3.6545,3.6889,3.7124,3.7124,3.7124,3.7124,3.7124,3.7135,3.7135,3.7135,3.7135,3.7135,3.7135,3.7073,3.7073,3.6886,3.6462,3.5912,3.5087,3.4387,3.4011,3.3697,3.3498,3.3048,3.3048,3.3048,3.3131,3.3529,3.4063,3.4531,3.4963,3.535,3.5523,3.5763,3.5763,3.5763,3.5763,3.5763,3.5763,3.5763,3.5763,3.5763,3.5763,3.5763,3.5763,3.5763,3.5763,3.5763,3.5763,3.5763,3.5763,3.5763,3.5763,3.5763,1.5561,1.4872,1.3995,1.3585,1.3574,1.359,1.3627,1.3706,1.3839,1.3924,1.4155,1.4101,1.4015,1.4015,1.4015,1.4015,1.4015,1.4015,1.4015,1.4128,1.4565,1.4997,1.5692,1.66,1.7466,1.877,2.0203,2.1225,2.2077,2.3401,2.4427,2.5451,2.6366,2.7156,2.7437,2.7899,2.8395,2.8684,2.8815,2.9134,2.923,2.9211,2.8943,2.9156,2.9576,2.9912,3.0028,3.0259,3.0741,3.0626,3.0474,3.1327,3.265,3.4646,3.5854,3.6023,3.6135,3.6228,3.636,3.6487,3.6451,3.6522,3.6936,3.71,3.71,3.71,3.71,3.7112,3.7124,3.7135,3.7135,3.7135,3.7135,3.7135,3.7023,3.696,3.6587,3.6161,3.5275,3.4273,3.376,3.331,3.3184,3.3184,3.3048,3.3048,3.3069,3.311,3.3288,3.3833,3.4335,3.4732,3.5162,3.5517,3.5732,3.5763,3.5763,3.5763,3.5763,3.5763,3.5763,3.5763,3.5763,3.5763,3.5763,3.5763,3.5763,3.5763,3.5763,3.5763,3.5763,3.5763,3.5763,3.5763,3.5763,1.5947,1.479,1.4663,1.4346,1.4004,1.4356,1.4278,1.3898,1.3781,1.4467,1.5418,1.4946,1.4753,1.4872,1.4231,1.4015,1.4015,1.4015,1.4015,1.4285,1.4776,1.5261,1.6122,1.709,1.7795,1.8238,1.9694,2.0868,2.1685,2.3136,2.4336,2.511,2.5539,2.5973,2.6071,2.6549,2.7071,2.7648,2.7559,2.767,2.7736,2.8113,2.8136,2.8399,2.899,2.9508,2.9787,3.05,3.0741,3.0557,3.1008,3.1916,3.3161,3.5062,3.5758,3.5712,3.5712,3.5888,3.5984,3.6043,3.6006,3.6076,3.6346,3.6689,3.6736,3.6795,3.6795,3.6971,3.6994,3.7135,3.7135,3.7135,3.7135,3.7135,3.7085,3.6785,3.6349,3.5724,3.4774,3.3948,3.3509,3.3121,3.3048,3.3048,3.3048,3.3048,3.3048,3.3079,3.3246,3.3613,3.4063,3.4502,3.4973,3.536,3.5596,3.57,3.5742,3.5763,3.5763,3.5763,3.5763,3.5763,3.5763,3.5763,3.5763,3.5763,3.5763,3.5763,3.5763,3.5763,3.5763,3.5763,3.5763,3.5763,3.5763,1.6599,1.5116,1.5648,1.5268,1.4467,1.4834,1.4839,1.4663,1.4274,1.5083,1.6349,1.5761,1.5324,1.5269,1.4671,1.4231,1.4123,1.4015,1.4015,1.4285,1.4829,1.5266,1.5853,1.7036,1.7956,1.8231,1.8634,1.9596,2.0921,2.2002,2.3081,2.4708,2.5487,2.5602,2.5551,2.611,2.6337,2.6549,2.633,2.6065,2.6377,2.6876,2.7274,2.7562,2.848,2.9092,2.9403,3.0337,3.0788,3.0846,3.1755,3.249,3.3074,3.4435,3.502,3.502,3.522,3.5325,3.5466,3.5724,3.5689,3.5736,3.5912,3.6099,3.6278,3.636,3.6489,3.6689,3.6865,3.703,3.7135,3.7135,3.7135,3.7135,3.7135,3.6649,3.6235,3.5275,3.4325,3.376,3.332,3.3184,3.3048,3.3048,3.3048,3.3048,3.3048,3.309,3.3236,3.3341,3.378,3.4188,3.4701,3.5151,3.5507,3.5606,3.5732,3.5763,3.5763,3.5763,3.5763,3.5763,3.5763,3.5763,3.5763,3.5763,3.5763,3.5763,3.5763,3.5763,3.5763,3.5763,3.5763,3.5763,3.5763,1.7864,1.695,1.6896,1.6201,1.5399,1.4634,1.5205,1.6476,1.5697,1.581,1.6331,1.5794,1.5483,1.5482,1.5175,1.4719,1.4177,1.4015,1.4015,1.4069,1.4781,1.5213,1.5799,1.6815,1.7848,1.8331,1.8781,1.9286,2.0434,2.1705,2.3124,2.4817,2.5491,2.5551,2.5311,2.5828,2.5838,2.5673,2.5166,2.4868,2.5202,2.5534,2.5813,2.6109,2.735,2.8608,2.8688,2.9769,3.1259,3.1605,3.2237,3.3131,3.3531,3.4142,3.448,3.4679,3.4891,3.4985,3.5161,3.5572,3.5502,3.5454,3.5689,3.5819,3.5807,3.5819,3.6242,3.6501,3.6736,3.6912,3.7088,3.7135,3.7135,3.7135,3.6886,3.6462,3.5912,3.5087,3.4136,3.3435,3.3121,3.3121,3.3048,3.3048,3.3048,3.3048,3.3048,3.3048,3.311,3.311,3.3466,3.3843,3.4345,3.4827,3.5235,3.5622,3.569,3.5763,3.5763,3.5763,3.5763,3.5763,3.5763,3.5763,3.5763,3.5763,3.5763,3.5763,3.5763,3.5763,3.5763,3.5763,3.5763,3.5763,3.5763,1.762,1.6961,1.6746,1.6571,1.6307,1.6096,1.6649,1.7494,1.6785,1.7249,1.8176,1.6752,1.6081,1.6079,1.5605,1.4944,1.4096,1.4101,1.401,1.4225,1.4883,1.5207,1.6015,1.7096,1.7795,1.8331,1.8767,1.9135,1.9807,2.128,2.2842,2.3995,2.4586,2.4728,2.4861,2.5028,2.5022,2.4778,2.4466,2.4328,2.4575,2.4949,2.5107,2.5542,2.6794,2.741,2.765,2.9581,3.0285,3.0316,3.2237,3.3028,3.2787,3.3645,3.4175,3.4315,3.4574,3.4738,3.482,3.5279,3.5138,3.4985,3.5102,3.5161,3.5114,3.5302,3.5772,3.617,3.6451,3.6721,3.6909,3.7124,3.7124,3.7061,3.67,3.6275,3.5525,3.4826,3.4063,3.331,3.3048,3.3048,3.3048,3.3048,3.3048,3.3048,3.3048,3.3048,3.3048,3.3048,3.3309,3.3677,3.4063,3.4502,3.5088,3.5549,3.5606,3.569,3.5732,3.5763,3.5763,3.5763,3.5763,3.5763,3.5763,3.5763,3.5763,3.5763,3.5763,3.5763,3.5763,3.5763,3.5763,3.5763,3.5763,1.7567,1.6967,1.668,1.6739,1.7006,1.7074,1.7388,1.7878,1.7731,1.8027,1.925,1.7598,1.7126,1.7162,1.6389,1.5399,1.4733,1.4294,1.422,1.422,1.4608,1.5153,1.5853,1.6666,1.7634,1.8177,1.8606,1.8921,1.9402,2.0525,2.2034,2.3336,2.4125,2.4363,2.4326,2.4078,2.414,2.4121,2.4174,2.4158,2.4259,2.445,2.4586,2.5053,2.6135,2.6709,2.7174,2.8772,2.9756,2.9844,3.164,3.2501,3.2146,3.3234,3.3988,3.4092,3.4315,3.4597,3.4609,3.4726,3.4738,3.4574,3.4609,3.4362,3.4456,3.4715,3.5079,3.543,3.5684,3.5742,3.5935,3.6085,3.6154,3.627,3.6245,3.5656,3.49,3.4325,3.3948,3.3247,3.3048,3.3048,3.3048,3.3048,3.3048,3.3048,3.3048,3.3048,3.3048,3.3048,3.3226,3.3435,3.3812,3.4136,3.4712,3.5256,3.5465,3.5617,3.5721,3.5763,3.5763,3.5763,3.5763,3.5763,3.5763,3.5763,3.5763,3.5763,3.5763,3.5763,3.5763,3.5763,3.5763,3.5763,3.5763,1.8248,1.7576,1.6967,1.694,1.7191,1.6938,1.6707,1.6643,1.819,1.8525,1.8161,1.8171,1.777,1.7817,1.7862,1.6726,1.5346,1.5088,1.4638,1.4338,1.45,1.5045,1.553,1.6074,1.7096,1.7855,1.8392,1.866,1.9127,2.025,2.1849,2.3327,2.3645,2.4183,2.4289,2.4078,2.3751,2.3857,2.3963,2.4068,2.4068,2.4151,2.425,2.463,2.5365,2.6034,2.6729,2.7661,2.8875,2.9912,3.0939,3.1514,3.2318,3.3348,3.3759,3.3988,3.3988,3.4082,3.4152,3.4492,3.4445,3.4268,3.4162,3.4374,3.4503,3.4597,3.4856,3.4996,3.4956,3.4955,3.4912,3.5098,3.5223,3.5344,3.5498,3.5023,3.4289,3.3875,3.3561,3.3383,3.3121,3.3048,3.3048,3.3048,3.3048,3.3048,3.3048,3.3048,3.3048,3.3048,3.3131,3.3341,3.3624,3.3907,3.4295,3.4764,3.5057,3.5423,3.5502,3.5659,3.5753,3.5763,3.5763,3.5763,3.5763,3.5763,3.5763,3.5763,3.5763,3.5763,3.5763,3.5763,3.5763,3.5763,3.5763,1.8208,1.8202,1.7321,1.7116,1.7307,1.6895,1.7392,1.8101,1.7784,1.7854,1.775,1.6785,1.6681,1.7198,1.7051,1.6189,1.5513,1.5288,1.4852,1.4592,1.4829,1.5476,1.6122,1.6666,1.7096,1.7479,1.8016,1.8338,1.8653,1.9723,2.0997,2.216,2.2691,2.3645,2.4025,2.4025,2.3654,2.3433,2.391,2.4068,2.4068,2.4068,2.4068,2.4339,2.4851,2.5478,2.597,2.6834,2.799,2.8975,3.0028,3.1065,3.2031,3.2902,3.3543,3.3874,3.3988,3.3988,3.3988,3.4246,3.4211,3.4056,3.3988,3.407,3.4244,3.4304,3.4481,3.4575,3.4397,3.4466,3.4587,3.4146,3.4175,3.4099,3.421,3.418,3.3642,3.3455,3.3142,3.3173,3.3048,3.3048,3.3048,3.3048,3.3048,3.3048,3.3048,3.3048,3.3048,3.3048,3.31,3.3257,3.3456,3.3655,3.3969,3.417,3.4534,3.5042,3.5319,3.5486,3.5533,3.5507,3.5674,3.5763,3.5763,3.5763,3.5763,3.5763,3.5763,3.5763,3.5763,3.5763,3.5763,3.5763,3.5763,1.8043,1.8331,1.7691,1.7576,1.776,1.7137,1.7742,1.8789,1.785,1.7254,1.7219,1.6724,1.6675,1.7049,1.7127,1.6939,1.6619,1.6385,1.5806,1.556,1.5901,1.6439,1.6606,1.6929,1.721,1.7587,1.7694,1.7969,1.8284,1.9509,2.0357,2.1583,2.3071,2.3327,2.3327,2.3698,2.376,2.3327,2.3645,2.4068,2.4068,2.4068,2.4078,2.4149,2.4606,2.5055,2.535,2.5999,2.7004,2.801,2.9221,3.008,3.0768,3.2686,3.3379,3.3862,3.3988,3.3988,3.3988,3.3988,3.3988,3.3988,3.3988,3.3988,3.3988,3.3816,3.3866,3.3947,3.3261,3.2915,3.3471,3.3047,3.3016,3.294,3.3202,3.3171,3.3106,3.2919,3.2933,3.2964,3.3048,3.3048,3.3048,3.3048,3.3048,3.3048,3.3048,3.3048,3.3048,3.3048,3.2932,3.3152,3.3119,3.3339,3.3334,3.3128,3.3268,3.3847,3.4281,3.4595,3.4962,3.5121,3.5339,3.5763,3.5763,3.5763,3.5763,3.5763,3.5763,3.5763,3.5763,3.5763,3.5763,3.5763,3.5763,1.7906,1.7858,1.781,1.805,1.8314,1.7506,1.7814,1.8707,1.7852,1.7163,1.6886,1.7229,1.7658,1.7783,1.7225,1.7367,1.7621,1.8276,1.805,1.6852,1.6916,1.7238,1.7298,1.7191,1.7472,1.7909,1.8016,1.807,1.8284,1.9295,2.057,2.1902,2.323,2.3857,2.2,2.285,2.3592,2.3972,2.4078,2.4227,2.4227,2.428,2.4289,2.4354,2.463,2.4807,2.5,2.547,2.6304,2.7248,2.8418,2.9005,2.9634,3.1725,3.3192,3.3929,3.3976,3.3988,3.3988,3.3988,3.3988,3.3988,3.3988,3.3988,3.3874,3.3474,3.3245,3.3279,3.2359,3.1483,3.1174,3.1308,3.15,3.1751,3.2272,3.2524,3.253,3.2419,3.265,3.2797,3.2922,3.3048,3.3048,3.3048,3.3048,3.3048,3.3048,3.3048,3.3048,3.2995,3.2817,3.2763,3.2468,3.2518,3.2271,3.2021,3.2066,3.2585,3.2986,3.3134,3.3424,3.4081,3.4876,3.5674,3.5695,3.5559,3.5627,3.5763,3.5763,3.5763,3.5763,3.5763,3.5763,3.5763,3.5763,1.7858,1.781,1.7458,1.7443,1.7539,1.725,1.7405,1.768,1.7403,1.7186,1.7142,1.6111,1.6182,1.6575,1.6178,1.615,1.7328,1.7705,1.7861,1.7956,1.7901,1.8156,1.8478,1.8485,1.8117,1.8599,1.8599,1.8284,1.8338,1.8974,1.9823,2.105,2.2691,2.3804,2.3327,2.3751,2.3751,2.3857,2.4236,2.4765,2.4765,2.4765,2.4774,2.4759,2.4481,2.4514,2.4816,2.499,2.576,2.6792,2.7602,2.8188,2.9415,3.0867,3.2536,3.3516,3.3988,3.3988,3.3988,3.3988,3.3988,3.3988,3.3988,3.3988,3.3816,3.3428,3.297,3.2787,3.2214,3.149,3.06,3.0916,3.1159,3.0927,3.15,3.1776,3.1805,3.2125,3.2408,3.265,3.288,3.3048,3.3048,3.3048,3.3048,3.3048,3.3048,3.3048,3.2995,3.2807,3.2628,3.2323,3.1882,3.1493,3.1177,3.1203,3.131,3.1684,3.1854,3.1921,3.205,3.2945,3.3761,3.4839,3.5354,3.5344,3.548,3.5695,3.5763,3.5763,3.5763,3.5763,3.5763,3.5763,3.5763,1.7594,1.7802,1.7306,1.7347,1.7635,1.7299,1.7347,1.7691,1.7683,1.7818,1.7823,1.6135,1.5667,1.5913,1.5214,1.5526,1.6996,1.7468,1.8217,1.8639,1.9159,1.9521,1.9383,1.9413,1.9127,1.9295,1.9081,1.876,1.8499,1.9188,1.9349,2.0143,2.2266,2.3327,2.4174,2.4333,2.4553,2.4659,2.5038,2.5355,2.5302,2.525,2.5091,2.5038,2.4448,2.4339,2.4532,2.4569,2.5418,2.6309,2.6856,2.7563,2.8546,3.0346,3.2124,3.371,3.3706,3.3788,3.3906,3.3988,3.3988,3.3988,3.3988,3.3988,3.3988,3.3131,3.2799,3.2569,3.1985,3.1306,3.0615,3.0799,3.0867,3.0563,3.0626,3.0946,3.1276,3.18,3.2106,3.2534,3.2744,3.2964,3.2995,3.3016,3.3016,3.3048,3.3048,3.2985,3.2869,3.2691,3.2449,3.2134,3.126,3.0808,3.0102,3.0222,3.049,3.0646,3.0877,3.0536,3.0325,3.1415,3.2872,3.4011,3.4808,3.5139,3.548,3.5695,3.5763,3.5763,3.5763,3.5763,3.5763,3.5763,3.5763,1.7163,1.7772,1.7317,1.7661,1.8379,1.7498,1.7595,1.8043,1.8227,1.8154,1.7788,1.687,1.6063,1.5904,1.544,1.5622,1.7371,1.8849,1.9062,1.9585,2.0564,2.0682,2.0667,2.031,2.0066,2.0006,1.9877,1.9222,1.8813,1.9563,1.9876,2.0357,2.2062,2.2797,2.3654,2.5038,2.5777,2.5566,2.5619,2.5724,2.5724,2.5461,2.525,2.5029,2.4553,2.4121,2.4078,2.4185,2.4747,2.5765,2.6291,2.6965,2.7753,2.9583,3.1644,3.3139,3.3413,3.353,3.3706,3.3812,3.3906,3.3964,3.3988,3.3988,3.3931,3.2845,3.2558,3.2867,3.187,3.1123,3.0971,3.0856,3.0673,3.0416,3.0431,3.0609,3.094,3.1405,3.1894,3.2324,3.2607,3.2723,3.2807,3.2797,3.2797,3.3016,3.3048,3.3048,3.2869,3.2376,3.2134,3.1703,3.0817,2.9931,2.9214,2.9233,2.9651,2.9874,2.9987,2.9601,2.9244,3.0447,3.2046,3.3145,3.4169,3.4873,3.5401,3.5412,3.549,3.5627,3.5763,3.5763,3.5763,3.5763,3.5763,1.6843,1.705,1.7285,1.7419,1.7436,1.725,1.6913,1.6446,1.6446,1.6397,1.6377,1.666,1.6557,1.6098,1.5143,1.5202,1.6445,1.6458,1.785,1.9239,2.0048,2.0496,2.1106,2.1148,2.09,2.0771,2.0743,2.042,1.9968,1.9884,2.009,2.0143,2.2009,2.3062,2.3972,2.5461,2.6587,2.605,2.5998,2.6156,2.6313,2.5945,2.5734,2.5461,2.5144,2.4606,2.4174,2.413,2.4448,2.525,2.583,2.6146,2.6785,2.8812,3.1051,3.2489,3.3029,3.3122,3.326,3.3483,3.3692,3.3835,3.3988,3.3988,3.3874,3.3371,3.2982,3.3085,3.1985,3.1479,3.1317,3.1144,3.073,3.0442,3.0327,3.039,3.0547,3.1056,3.1485,3.1852,3.2156,3.2347,3.2441,3.2555,3.2702,3.2964,3.3048,3.3048,3.2618,3.1998,3.1682,3.1367,3.0428,2.9477,2.9087,2.9033,2.8969,2.9152,2.9179,2.9116,2.9234,3.0149,3.1284,3.2305,3.33,3.4029,3.4683,3.4921,3.5139,3.549,3.5763,3.5763,3.5763,3.5763,3.5763,1.6513,1.6894,1.7326,1.7639,1.7957,1.7823,1.7554,1.7113,1.6535,1.6246,1.6294,1.6487,1.6294,1.5976,1.5425,1.5273,1.5535,1.6352,1.7742,1.8914,1.9833,2.0521,2.1595,2.1945,2.1883,2.1812,2.1657,2.1371,2.1166,2.073,2.041,2.0624,2.2009,2.3168,2.3972,2.5777,2.6419,2.6692,2.6629,2.6734,2.685,2.6524,2.6093,2.583,2.5566,2.4923,2.4448,2.4342,2.4765,2.5038,2.5355,2.5619,2.6426,2.8291,3.0622,3.2147,3.2404,3.2338,3.2584,3.3002,3.3307,3.3612,3.3859,3.3952,3.3874,3.3417,3.3028,3.3359,3.2214,3.1583,3.1536,3.1191,3.073,3.05,3.0327,3.0369,3.0452,3.0825,3.1066,3.136,3.1643,3.1768,3.1884,3.2095,3.241,3.2651,3.2849,3.2818,3.2431,3.201,3.1682,3.1177,3.0165,2.9223,2.9096,2.9096,2.9096,2.9223,2.9251,2.9397,2.9507,2.9712,3.0652,3.1653,3.2428,3.3095,3.3803,3.4279,3.4726,3.5199,3.5763,3.5763,3.5763,3.5763,3.5763,1.6417,1.72,1.7442,1.8162,1.8935,1.8748,1.89,1.8884,1.7547,1.701,1.6335,1.6101,1.5915,1.5818,1.6156,1.6059,1.5983,1.6819,1.7814,1.868,1.9779,2.0728,2.1679,2.2587,2.2719,2.2719,2.2214,2.2208,2.2153,2.166,2.1263,2.1103,2.2115,2.3071,2.376,2.4976,2.6208,2.7165,2.727,2.727,2.727,2.684,2.6419,2.6103,2.5882,2.5461,2.4765,2.488,2.5197,2.525,2.5365,2.5628,2.6304,2.8391,3.0343,3.1252,3.1482,3.114,3.1822,3.2427,3.2944,3.3342,3.3669,3.3802,3.3736,3.3359,3.3302,3.3816,3.1985,3.1123,3.1479,3.095,3.05,3.0327,3.0327,3.0327,3.0358,3.0689,3.0793,3.1045,3.1038,3.1192,3.1178,3.1619,3.2088,3.24,3.2598,3.2588,3.2484,3.2472,3.225,3.1231,3.0165,2.9404,2.916,2.9287,2.935,2.9541,2.974,2.994,2.9806,2.9737,3.0491,3.0821,3.135,3.2045,3.2676,3.3387,3.4218,3.4816,3.5492,3.5721,3.5721,3.5763,3.5763,1.729,1.7724,1.7782,1.8497,1.9318,1.9015,1.8628,1.8126,1.7436,1.628,1.5032,1.6335,1.6576,1.6301,1.7072,1.785,1.7369,1.7154,1.8075,1.8923,1.9678,2.0505,2.1666,2.2679,2.3274,2.3167,2.2691,2.2621,2.2712,2.286,2.2207,2.1902,2.2903,2.3592,2.3283,2.4183,2.5091,2.583,2.6208,2.6419,2.6734,2.6734,2.6567,2.6461,2.6471,2.6146,2.5451,2.5566,2.5681,2.5724,2.604,2.6524,2.726,2.8308,2.918,2.9797,3.0591,3.1079,3.1536,3.2059,3.2416,3.3046,3.334,3.3318,3.33,3.3393,3.3496,3.3074,3.187,3.1295,3.1374,3.0799,3.0385,3.0327,3.0327,3.0337,3.0369,3.0421,3.0547,3.0547,3.0515,3.0551,3.048,3.0836,3.106,3.1379,3.1434,3.1526,3.1936,3.2078,3.197,3.0982,3.0355,2.9595,2.9223,2.935,2.9722,2.9985,3.0238,3.0175,2.9978,2.9771,2.9869,3.0205,3.0672,3.1263,3.1556,3.218,3.3124,3.4092,3.507,3.5486,3.5387,3.5455,3.5544,1.7643,1.8207,1.7949,1.847,1.9309,1.9284,1.9048,1.8605,1.7856,1.6721,1.5998,1.6039,1.6377,1.6824,1.7506,1.7891,1.8131,1.8172,1.8708,1.9187,1.9523,2.0184,2.1405,2.2158,2.2881,2.3109,2.2433,2.2101,2.3061,2.3187,2.2475,2.2101,2.323,2.3866,2.3548,2.3813,2.4448,2.4976,2.5566,2.5988,2.6251,2.6892,2.684,2.684,2.684,2.6629,2.6146,2.605,2.6093,2.6093,2.6619,2.7155,2.769,2.8465,2.9301,2.9938,3.0042,3.0353,3.1114,3.1612,3.1894,3.2493,3.2787,3.2807,3.283,3.2912,3.2913,3.24,3.1629,3.1018,3.1202,3.0683,3.0385,3.0327,3.0327,3.0327,3.0327,3.0327,3.0358,3.0379,3.0332,3.0295,3.0043,2.9938,3.0079,3.0185,3.0239,3.058,3.1031,3.1169,3.1287,3.0695,3.0418,2.9722,2.9151,2.9595,3.0102,3.0428,3.0681,3.0365,3.014,3.0095,3.0049,3.0008,3.0201,3.0774,3.1083,3.1246,3.2122,3.3102,3.3837,3.4507,3.4774,3.5109,3.5319,1.808,1.8734,1.8319,1.8586,1.933,1.9497,1.9604,1.9542,1.8621,1.7863,1.7236,1.637,1.7003,1.7339,1.7058,1.7691,1.8804,1.9379,1.9667,1.9619,1.9858,2.0002,2.0957,2.1616,2.2301,2.2442,2.1829,2.166,2.2376,2.2482,2.2208,2.236,2.3089,2.3653,2.3565,2.3813,2.3813,2.4395,2.5302,2.583,2.6198,2.684,2.7323,2.6997,2.727,2.706,2.6471,2.6577,2.6567,2.6304,2.706,2.7491,2.7795,2.8559,2.9446,3.0019,2.9915,3.0227,3.0828,3.1342,3.1553,3.1788,3.2075,3.2271,3.2224,3.2386,3.2401,3.187,3.1147,3.0788,3.1144,3.0615,3.0327,3.0327,3.0327,3.0327,3.0327,3.0327,3.0327,3.0327,3.0269,3.0154,2.9654,2.935,2.9249,2.9135,2.9361,2.9785,2.9999,3.0125,3.0347,3.0361,3.0269,2.9656,2.906,2.9684,3.0038,3.0301,3.0418,3.0165,3.0048,3.0184,3.0374,3.0445,3.0611,3.0758,3.056,3.0454,3.1299,3.2475,3.2895,3.3252,3.407,3.5005,3.5172,1.9174,1.931,1.9237,1.9474,1.9827,1.9507,1.9691,2.0127,1.9614,1.8959,1.8589,1.9698,1.854,1.806,1.9171,1.9706,1.981,2.0241,2.048,2.028,2.0528,2.0623,2.071,2.1282,2.1863,2.1909,2.1117,2.096,2.1584,2.2163,2.2154,2.1075,2.1853,2.2939,2.2904,2.285,2.3336,2.413,2.5197,2.5787,2.605,2.6892,2.7533,2.7428,2.7638,2.748,2.7333,2.7323,2.7375,2.7323,2.7491,2.7596,2.7847,2.8507,2.9238,2.9144,3.0123,3.0527,3.0874,3.0996,3.1231,3.1694,3.1759,3.1694,3.1831,3.2176,3.2057,3.1548,3.1129,3.1166,3.0547,3.0374,3.0316,3.0327,3.0327,3.0327,3.0327,3.0327,3.0327,3.0327,3.0269,3.0143,2.9624,2.8882,2.8467,2.8245,2.8592,2.8861,2.8907,2.8969,2.9372,2.9492,2.9298,2.8791,2.8822,2.9309,2.9322,2.9595,2.9975,2.9658,2.9477,3.0048,3.0735,3.0798,3.0798,3.0837,3.0769,3.0665,3.1105,3.1953,3.2602,3.308,3.3846,3.4705,3.5126,1.947,1.947,1.947,1.9548,1.9698,1.9711,1.9702,1.9754,1.9912,1.9695,1.9479,1.9791,1.9793,1.9315,2.0089,2.071,2.0758,2.1196,2.1235,2.1139,2.1235,2.1235,2.1187,2.1282,2.1482,2.15,2.0485,2.0301,2.1061,2.2139,2.2246,2.1062,2.3092,2.3408,2.3296,2.3379,2.3618,2.4218,2.4976,2.5619,2.5892,2.6682,2.726,2.7879,2.7983,2.7889,2.77,2.7837,2.7837,2.769,2.7596,2.79,2.8622,2.8517,2.8988,2.9614,3.0435,3.0539,3.089,3.0902,3.1036,3.1231,3.1231,3.1165,3.1314,3.1524,3.1584,3.1571,3.1102,3.068,3.0054,3.0118,3.0316,3.0327,3.0327,3.0327,3.0327,3.0327,3.0327,3.0327,3.0327,3.0143,2.9682,2.8766,2.8274,2.7944,2.8271,2.7834,2.7869,2.8057,2.8391,2.863,2.8438,2.8436,2.8548,2.8722,2.8841,2.9186,2.9513,2.9341,2.9287,3.0102,3.0851,3.0851,3.0735,3.0861,3.0944,3.1149,3.1355,3.1789,3.2231,3.2891,3.3531,3.4131,3.4712,1.947,1.947,1.947,1.947,1.9525,1.9769,1.9711,1.9515,2.006,2.0098,1.9921,1.9865,2.0134,2.0579,2.0324,2.0662,2.1139,2.1235,2.1616,2.1711,2.1854,2.2044,2.2187,2.1854,2.1663,2.1291,1.9866,1.9534,2.0309,2.145,2.2003,2.1475,2.2912,2.429,2.3564,2.3641,2.3993,2.4222,2.5158,2.582,2.605,2.6577,2.7407,2.8182,2.8182,2.7983,2.7795,2.7994,2.814,2.8046,2.8256,2.8831,2.9185,2.8883,2.9249,3.0227,3.0395,3.0487,3.0839,3.0879,3.089,3.0937,3.0973,3.0846,3.0789,3.0927,3.1424,3.1575,3.081,3.0052,2.9581,2.9908,3.0159,3.0295,3.0327,3.0327,3.0327,3.0327,3.0327,3.0327,3.0269,3.0086,2.9624,2.8882,2.8244,2.7838,2.74,2.6958,2.697,2.7117,2.749,2.7916,2.7848,2.797,2.819,2.8519,2.8676,2.9004,2.9114,2.9033,2.935,2.9985,3.0228,3.0418,3.0608,3.0744,3.0808,3.0939,3.1032,3.13,3.1606,3.2302,3.3027,3.3535,3.4105,1.947,1.947,1.947,1.947,1.9479,1.9483,1.9671,1.9887,2.0036,2.0201,2.0449,2.0839,2.0582,1.9784,2.0436,2.0376,2.0519,2.0853,2.1187,2.1759,2.2282,2.2909,2.343,2.3051,2.2519,2.1768,2.0671,1.9812,1.9663,2.021,2.0631,2.1128,2.1307,2.2021,2.3173,2.3584,2.3717,2.4309,2.59,2.6405,2.6154,2.678,2.7637,2.8211,2.8035,2.7795,2.7795,2.7784,2.8151,2.8966,3.0008,2.9956,2.9394,3.0268,3.0487,3.0395,3.0591,3.0787,3.0879,3.0879,3.0879,3.0879,3.0879,3.0874,3.0898,3.1096,3.1254,3.1278,3.0784,2.9969,2.9369,2.936,2.9736,3.017,3.0275,3.0316,3.0327,3.0327,3.0327,3.0327,3.0327,3.0327,2.9923,2.9219,2.8302,2.7906,2.7276,2.6866,2.6755,2.6838,2.7031,2.7288,2.7462,2.7576,2.7931,2.8225,2.8438,2.8759,2.8795,2.8849,2.9165,2.9421,2.963,2.9921,3.0238,3.0501,3.0564,3.0618,3.0701,3.0934,3.124,3.1883,3.2457,3.2901,3.3461,1.947,1.947,1.947,1.947,1.947,1.947,1.9487,1.9714,1.9892,2.0113,2.0379,2.0886,2.1078,2.1022,2.1386,2.1711,2.1997,2.1997,2.2044,2.2377,2.2766,2.3383,2.3809,2.3572,2.3146,2.2529,2.1044,2.0049,1.9787,2.0318,2.0545,2.0711,2.1499,2.2519,2.346,2.3963,2.4436,2.5194,2.573,2.6259,2.6147,2.6814,2.7558,2.8242,2.8231,2.8256,2.8465,2.8507,2.8883,2.9666,3.0383,3.0683,3.0268,3.0683,3.0787,3.0643,3.0746,3.0879,3.0879,3.0879,3.0879,3.0879,3.0879,3.0879,3.0937,3.0753,3.0922,3.0654,2.9887,2.9329,2.8986,2.8796,2.9131,2.9684,2.9872,2.9872,2.9862,3.0138,3.0306,3.0327,3.0269,3.0211,2.9797,2.8998,2.837,2.7848,2.719,2.6841,2.6608,2.6626,2.6728,2.692,2.7104,2.7325,2.76,2.7756,2.7915,2.8392,2.8502,2.8456,2.8691,2.8922,2.9122,2.9414,2.9867,3.0184,3.0175,3.0228,3.0238,3.0428,3.0924,3.131,3.1686,3.2063,3.2625,1.947,1.947,1.947,1.947,1.947,1.947,1.947,1.9474,1.9769,1.9827,2.0036,2.06,2.0995,2.1416,2.1765,2.2358,2.2622,2.2803,2.2757,2.2861,2.3383,2.3904,2.3951,2.3809,2.362,2.3089,2.1568,2.0614,2.0649,2.1003,2.1205,2.1088,2.2261,2.3095,2.3674,2.3936,2.4686,2.5411,2.5463,2.5825,2.6237,2.6661,2.7358,2.8262,2.8231,2.8383,2.8831,2.8952,2.9245,2.9859,3.055,3.0879,3.0827,3.0879,3.0879,3.0879,3.089,3.0879,3.0879,3.0879,3.0879,3.0879,3.0879,3.0879,3.089,3.0446,3.0291,3.006,2.9279,2.8482,2.8511,2.8401,2.8535,2.9044,2.9127,2.9179,2.9402,2.9648,2.9852,2.9868,2.9592,2.9341,2.8993,2.8418,2.7838,2.7606,2.7141,2.6608,2.6608,2.6617,2.6617,2.6746,2.6838,2.704,2.7155,2.7256,2.7512,2.8016,2.819,2.8163,2.8365,2.8685,2.8887,2.8942,2.9421,2.9595,2.9658,2.9722,2.9731,2.9731,3.0175,3.0681,3.1007,3.1586,3.2218,1.9418,1.947,1.947,1.947,1.947,1.947,1.947,1.947,1.9525,1.9553,1.9627,2.0124,2.029,2.0243,2.0868,2.1504,2.196,2.2244,2.2633,2.3369,2.4042,2.4362,2.4173,2.4403,2.414,2.3373,2.2291,2.1711,2.172,2.1689,2.2158,2.2766,2.2729,2.2872,2.3455,2.3344,2.3761,2.4494,2.5516,2.6049,2.6159,2.6663,2.7305,2.7746,2.7832,2.7978,2.8401,2.8511,2.8772,2.9404,3.0282,3.0801,3.0907,3.0879,3.0879,3.0879,3.0879,3.0879,3.0879,3.0879,3.0879,3.0879,3.0879,3.0879,3.0827,3.0331,2.9874,2.9498,2.8757,2.8131,2.7921,2.7983,2.817,2.8285,2.8358,2.8546,2.8893,2.8642,2.8799,2.879,2.8067,2.7655,2.8387,2.751,2.7248,2.7257,2.7025,2.6666,2.6608,2.6608,2.6608,2.6626,2.6663,2.6847,2.7021,2.7122,2.7297,2.7668,2.7897,2.7961,2.8135,2.8612,2.8951,2.8878,2.9031,2.9041,2.9078,2.9214,2.9223,2.9287,2.9604,2.9994,3.0564,3.1314,3.194,1.8966,1.9003,1.9326,1.947,1.947,1.947,1.9555,1.9766,1.9799,1.9799,1.9968,2.0562,2.0874,2.1043,2.1594,2.2252,2.2955,2.315,2.3339,2.3539,2.3847,2.4001,2.4172,2.4316,2.4282,2.4093,2.3231,2.2757,2.2719,2.2139,2.2291,2.3193,2.3146,2.343,2.4218,2.4256,2.4289,2.4501,2.5107,2.5517,2.5859,2.658,2.7113,2.7349,2.7883,2.8128,2.805,2.8356,2.8634,2.891,2.9559,3.0081,3.0409,3.0714,3.0879,3.0879,3.0879,3.0931,3.0879,3.0879,3.0879,3.0879,3.0879,3.0879,3.0735,3.0019,2.9498,2.9081,2.8402,2.7784,2.7648,2.7763,2.7826,2.7783,2.7794,2.7982,2.8389,2.8583,2.8677,2.8462,2.7802,2.755,2.7671,2.7205,2.6783,2.6908,2.6792,2.6608,2.6608,2.6608,2.6608,2.6608,2.6608,2.6691,2.6838,2.6957,2.7077,2.7343,2.7558,2.7659,2.7796,2.8273,2.8584,2.8537,2.8539,2.8584,2.896,2.896,2.8969,2.9024,2.9214,2.9477,2.9794,3.0671,3.144,1.8554,1.8701,1.9058,1.9266,1.9461,1.947,1.9681,2.001,2.0052,2.0094,2.0363,2.0923,2.1189,2.1417,2.2169,2.2715,2.311,2.347,2.3525,2.3336,2.3331,2.3666,2.4025,2.4073,2.4384,2.4639,2.3856,2.3478,2.3572,2.2757,2.2671,2.3383,2.3572,2.4046,2.4801,2.4859,2.5095,2.5236,2.5331,2.5425,2.5787,2.6556,2.6895,2.6906,2.7801,2.8086,2.7669,2.8036,2.8392,2.8625,2.8943,2.9365,2.9905,3.0578,3.0848,3.0668,3.0656,3.0691,3.0895,3.0879,3.0879,3.0879,3.0879,3.0879,3.0787,2.9852,2.929,2.9279,2.8308,2.7596,2.7596,2.7596,2.7616,2.7596,2.7596,2.7689,2.7971,2.8297,2.8439,2.8182,2.762,2.7152,2.7019,2.7033,2.6535,2.6501,2.6455,2.6547,2.6571,2.6608,2.6608,2.6608,2.6608,2.6645,2.6709,2.6783,2.6856,2.7003,2.7159,2.7251,2.7416,2.7719,2.7912,2.8004,2.808,2.8319,2.8777,2.8969,2.8969,2.896,2.9024,2.9087,2.9087,2.9668,3.0501,1.8271,1.8591,1.8664,1.8957,1.9354,1.9457,1.9696,2.0,2.0136,2.0389,2.0736,2.084,2.0974,2.1024,2.1831,2.2187,2.2317,2.2673,2.2782,2.2792,2.3221,2.364,2.396,2.3998,2.4331,2.4728,2.3826,2.3884,2.4613,2.3809,2.3572,2.3998,2.4093,2.4377,2.4906,2.4943,2.5331,2.5942,2.6083,2.6177,2.6282,2.6739,2.6822,2.6496,2.7307,2.7628,2.7089,2.7582,2.8086,2.8461,2.8543,2.8849,2.9354,3.0222,3.0672,3.021,3.0128,3.0374,3.0738,3.0808,3.0797,3.0808,3.0919,3.0879,3.0735,2.9852,2.9342,2.9394,2.8465,2.7596,2.7596,2.7596,2.7596,2.7596,2.7596,2.7596,2.7637,2.7627,2.7351,2.692,2.7067,2.6913,2.6143,2.6059,2.6296,2.6094,2.6086,2.6197,2.6443,2.6516,2.6639,2.6657,2.6608,2.6608,2.6608,2.6608,2.6685,2.6722,2.6792,2.6884,2.7067,2.7113,2.7325,2.7517,2.7595,2.7897,2.8346,2.8694,2.874,2.8969,2.8969,2.8969,2.9223,2.955,3.013,1.7514,1.7899,1.8134,1.8481,1.8971,1.9321,1.9878,2.0548,2.083,2.1009,2.1219,2.1472,2.1419,2.1334,2.1794,2.2035,2.2025,2.2163,2.2195,2.2289,2.275,2.3043,2.3221,2.3504,2.3936,2.4242,2.3981,2.4192,2.477,2.4529,2.4481,2.4623,2.4623,2.4849,2.5236,2.5283,2.5555,2.6083,2.6235,2.6412,2.6752,2.6951,2.6936,2.6919,2.7391,2.7546,2.7091,2.7513,2.7899,2.8028,2.8051,2.8133,2.8368,2.9283,2.9776,2.9635,2.9612,2.9705,2.987,3.0186,3.0374,3.0386,3.0668,3.0879,3.0839,2.9811,2.9446,2.9342,2.8465,2.7596,2.7596,2.7596,2.7596,2.7596,2.7596,2.7596,2.7596,2.7596,2.7458,2.7182,2.6868,2.6254,2.5744,2.5794,2.5727,2.5691,2.5654,2.5829,2.6112,2.6222,2.6287,2.6602,2.659,2.6608,2.6525,2.6562,2.6676,2.6685,2.6718,2.6709,2.6764,2.6728,2.681,2.7003,2.7242,2.7485,2.7842,2.8236,2.8575,2.8896,2.8986,2.9065,2.9276,2.9639,2.9858,1.7037,1.7312,1.7706,1.8198,1.8678,1.9021,1.9789,2.074,2.1019,2.1277,2.1629,2.186,2.186,2.1608,2.186,2.1944,2.1944,2.1944,2.1944,2.2017,2.2321,2.255,2.275,2.3066,2.3465,2.3818,2.3926,2.4157,2.4576,2.4974,2.5001,2.4906,2.5037,2.5331,2.566,2.5743,2.6119,2.6729,2.6776,2.6963,2.7256,2.7303,2.7291,2.7291,2.7805,2.7852,2.7303,2.7618,2.784,2.784,2.784,2.784,2.7864,2.8438,2.8873,2.906,2.9047,2.9178,2.9365,2.967,2.9858,2.9881,3.0163,3.0413,3.042,2.9591,2.906,2.9089,2.8256,2.7638,2.7596,2.7596,2.7596,2.7596,2.7596,2.7596,2.7596,2.7596,2.7596,2.7428,2.6692,2.5769,2.5302,2.5006,2.5065,2.5212,2.5249,2.5433,2.5699,2.6004,2.6169,2.6342,2.6507,2.6602,2.6388,2.6434,2.6608,2.6599,2.6608,2.6626,2.6626,2.6617,2.6608,2.6829,2.7187,2.7471,2.7578,2.8025,2.8837,2.9067,2.9282,2.9325,2.9153,2.9411,2.9641,1.6946,1.6983,1.7312,1.7948,1.8636,1.8725,1.9473,2.0586,2.0626,2.1106,2.1746,2.1903,2.1924,2.1861,2.1882,2.1903,2.1934,2.1965,2.1944,2.1944,2.1997,2.2216,2.2698,2.2719,2.2993,2.3412,2.3533,2.3764,2.4157,2.4996,2.5251,2.4958,2.5309,2.5743,2.6158,2.6238,2.6765,2.749,2.7711,2.7793,2.7793,2.7723,2.7711,2.7758,2.8258,2.8317,2.7886,2.784,2.7852,2.784,2.784,2.784,2.784,2.7875,2.8122,2.8545,2.8663,2.8924,2.9399,2.9431,2.9379,2.9391,2.9485,2.96,2.9945,2.9081,2.862,2.8743,2.8012,2.7501,2.747,2.7397,2.7418,2.748,2.7533,2.7554,2.7575,2.7596,2.7596,2.7428,2.6817,2.5836,2.4361,2.4068,2.4378,2.4679,2.4844,2.4991,2.5359,2.5746,2.5939,2.602,2.625,2.6388,2.6013,2.6206,2.6461,2.6525,2.6516,2.6617,2.6608,2.6608,2.6608,2.6728,2.7021,2.7274,2.7407,2.7892,2.8596,2.9135,2.9295,2.9417,2.9159,2.9311,2.9219,1.7445,1.7038,1.7354,1.7796,1.8318,1.8935,1.9571,2.02,2.0499,2.073,2.1046,2.137,2.1328,2.1088,2.1411,2.1547,2.1548,2.1819,2.1944,2.1944,2.1944,2.208,2.2153,2.2163,2.2446,2.2952,2.3223,2.3599,2.4147,2.5029,2.543,2.5404,2.5767,2.6141,2.6256,2.6629,2.6932,2.7266,2.8,2.8178,2.7781,2.7441,2.7419,2.78,2.8212,2.8395,2.834,2.8352,2.8225,2.784,2.784,2.784,2.784,2.8504,2.8657,2.8239,2.933,3.0187,3.0338,2.9728,2.937,2.9357,2.9362,2.9386,2.9442,2.893,2.8557,2.8452,2.7684,2.7102,2.6934,2.6716,2.6737,2.6969,2.701,2.7229,2.7512,2.7596,2.7407,2.6945,2.6639,2.5859,2.451,2.4078,2.4105,2.4295,2.4376,2.4496,2.4954,2.5138,2.5341,2.5599,2.5976,2.5965,2.5709,2.5967,2.6131,2.6232,2.6424,2.6611,2.6608,2.6608,2.6608,2.6617,2.6709,2.6838,2.697,2.725,2.7887,2.8514,2.9167,2.956,2.9119,2.9268,2.9036,1.7824,1.7408,1.7787,1.849,1.9364,2.016,2.0714,2.1005,2.1209,2.1162,2.0993,2.1832,2.18,2.1143,2.1569,2.1623,2.144,2.16,2.1788,2.1976,2.2196,2.2196,2.1976,2.2186,2.2449,2.2746,2.298,2.3431,2.4082,2.4643,2.522,2.5769,2.6083,2.6472,2.6853,2.6761,2.6888,2.7224,2.75,2.7792,2.8013,2.7954,2.7848,2.7776,2.8157,2.8318,2.8194,2.8185,2.8127,2.8024,2.8425,2.8541,2.8309,2.969,3.0094,2.9177,3.0485,3.136,3.1327,3.084,3.0517,3.0551,2.9978,2.9683,2.9864,2.8879,2.8408,2.8511,2.7897,2.7168,2.6804,2.6469,2.6348,2.6518,2.6601,2.6696,2.701,2.7166,2.7178,2.6773,2.6423,2.5806,2.4986,2.4395,2.413,2.4068,2.4078,2.4213,2.4505,2.4761,2.4954,2.5203,2.546,2.5507,2.5341,2.5635,2.5875,2.5921,2.6114,2.6252,2.6252,2.6363,2.6657,2.6608,2.6936,2.6994,2.6715,2.7307,2.7987,2.8006,2.8819,2.9769,2.9058,2.8981,2.8492,1.8451,1.8451,1.8846,1.9789,2.1077,2.1828,2.2211,2.234,2.2375,2.2,2.159,2.2879,2.2851,2.1974,2.2037,2.1884,2.1437,2.1268,2.145,2.1881,2.2393,2.2457,2.2144,2.2573,2.2783,2.2794,2.2888,2.3412,2.4043,2.4065,2.475,2.6007,2.6201,2.6623,2.7292,2.6727,2.6758,2.7563,2.6654,2.6848,2.8162,2.8634,2.8479,2.7613,2.8081,2.8137,2.7661,2.7643,2.7819,2.8138,2.9123,2.965,2.9505,3.1112,3.1927,3.1347,3.1972,3.2342,3.2328,3.226,3.2191,3.2232,3.0985,3.0403,3.0647,2.9166,2.8486,2.8891,2.8509,2.778,2.7201,2.6581,2.6323,2.6407,2.628,2.6201,2.6327,2.656,2.6749,2.6698,2.6203,2.5813,2.5444,2.469,2.4112,2.4068,2.4068,2.4096,2.4222,2.4496,2.4779,2.4825,2.4908,2.4927,2.4917,2.5341,2.5553,2.547,2.5635,2.5709,2.5709,2.6031,2.6556,2.6457,2.6943,2.7289,2.7375,2.7935,2.8786,2.84,2.8943,2.9845,2.934,2.8661,2.7905,2.0763,2.0763,2.0872,2.1272,2.1925,2.2431,2.2613,2.265,2.265,2.2723,2.2882,2.3221,2.3037,2.2432,2.1506,2.1318,2.1355,2.04,2.0428,2.1335,2.1819,2.2181,2.2562,2.2992,2.3201,2.3232,2.3638,2.388,2.4035,2.37,2.4225,2.5519,2.6036,2.6001,2.5534,2.6381,2.7121,2.7638,2.6387,2.6086,2.6966,2.6811,2.7033,2.752,2.8028,2.8048,2.7657,2.7969,2.7894,2.738,2.8489,2.9859,3.1255,3.1638,3.2845,3.4875,3.4164,3.3269,3.285,3.2329,3.2238,3.2757,3.2172,3.163,3.1327,3.0711,3.0209,2.9833,2.9523,2.8943,2.7767,2.6853,2.6424,2.6725,2.6126,2.5873,2.618,2.6337,2.6189,2.5769,2.5913,2.5769,2.4965,2.436,2.4094,2.4121,2.4068,2.4068,2.4068,2.4185,2.4268,2.4277,2.4295,2.4376,2.4314,2.4744,2.5028,2.5037,2.535,2.5415,2.5341,2.5442,2.5773,2.6136,2.6702,2.7263,2.7925,2.8457,2.8678,2.8764,2.891,2.9018,2.9148,2.8517,2.7624,2.1233,2.1269,2.1708,2.2278,2.2835,2.3516,2.3811,2.3795,2.3675,2.3783,2.401,2.4442,2.4241,2.3485,2.2779,2.2417,2.2183,2.1378,2.1394,2.1984,2.2274,2.2449,2.2589,2.3078,2.3313,2.3365,2.3846,2.4198,2.4323,2.4103,2.4115,2.4466,2.5022,2.507,2.4742,2.5994,2.6812,2.7053,2.5749,2.5335,2.5985,2.5921,2.6122,2.6736,2.7208,2.734,2.7152,2.7657,2.77,2.7202,2.9083,3.0471,3.1088,3.2308,3.3782,3.5476,3.4688,3.412,3.402,3.3468,3.3344,3.3665,3.2913,3.2647,3.3357,3.2527,3.1651,3.0857,3.0384,2.9708,2.8486,2.7711,2.7312,2.7386,2.6457,2.5945,2.6154,2.6065,2.576,2.5465,2.5514,2.529,2.4596,2.4764,2.4755,2.4174,2.4068,2.4068,2.4068,2.4078,2.4078,2.4068,2.4068,2.4068,2.4096,2.4341,2.4505,2.4532,2.5071,2.5382,2.523,2.5779,2.6035,2.6055,2.6793,2.7463,2.7629,2.8319,2.8668,2.8927,2.8818,2.9046,2.8814,2.8525,2.7771,2.1379,2.1416,2.2268,2.3017,2.3708,2.4671,2.499,2.4838,2.5085,2.5138,2.5114,2.5967,2.5773,2.489,2.4573,2.4049,2.3472,2.2967,2.285,2.304,2.3063,2.2875,2.2559,2.318,2.3427,2.3422,2.3946,2.429,2.4561,2.4525,2.4198,2.363,2.3586,2.3864,2.44,2.5454,2.6001,2.5809,2.4977,2.4804,2.5379,2.5563,2.5659,2.5581,2.6255,2.6532,2.6332,2.701,2.7309,2.7061,2.9803,3.0795,2.9574,3.2389,3.425,3.4292,3.4294,3.4435,3.4678,3.469,3.4617,3.4544,3.352,3.3605,3.5395,3.4312,3.3051,3.2201,3.1468,3.0519,2.9475,2.8961,2.8499,2.8001,2.7047,2.647,2.6468,2.6028,2.5618,2.557,2.5174,2.4832,2.4666,2.5096,2.5105,2.4414,2.4176,2.4135,2.4055,2.4046,2.4071,2.3956,2.4002,2.403,2.3984,2.4004,2.4114,2.4068,2.4915,2.5466,2.5244,2.5952,2.6521,2.6318,2.7101,2.7702,2.7561,2.85,2.8862,2.8416,2.8932,2.9389,2.8502,2.8088,2.7771,2.4057,2.4151,2.4018,2.4061,2.4202,2.4784,2.4515,2.3854,0.0,0.0,0.0,2.6718,2.6786,2.6774,2.499,2.4835,2.579,2.3109,2.2477,2.3561,2.304,2.3049,2.347,2.3927,2.3937,2.3687,2.4187,2.4316,2.4045,2.3703,2.3854,2.4168,2.2259,2.2343,2.4527,2.4946,2.4688,2.3929,2.4359,2.5061,2.5895,2.5972,2.5673,2.5008,2.6078,2.5976,2.4662,2.6393,2.6696,2.5183,2.8343,2.9083,2.6742,3.0186,3.2467,3.2845,3.2944,3.2863,3.2654,3.3955,3.4784,3.4732,3.4739,3.4789,3.4926,3.5248,3.5013,3.4044,3.353,3.2646,3.1309,3.0243,2.9371,2.8977,2.8089,2.7548,2.7478,2.6678,2.611,2.6005,2.5442,2.4885,2.4866,2.4755,2.4627,2.4451,2.4294,2.412,2.3712,2.3756,2.3723,2.3436,2.3634,2.3617,2.359,2.3801,2.405,2.4128,2.4697,2.5124,2.5182,2.5639,2.6299,2.6899,2.7279,2.7746,2.8446,2.8801,2.8929,2.8829,2.859,2.8307,2.7912,2.72,2.6932,2.5014,0.0,2.5394,2.546,0.0,2.6324,2.5654,2.4191,2.6289,2.7092,2.6948,2.7338,2.7419,2.7264,2.6158,2.6063,2.6654,2.4988,2.4515,2.4928,2.4241,2.3867,2.3857,2.3868,2.3788,2.366,2.412,2.4335,2.4123,2.3912,2.3849,2.3848,2.1891,2.1622,2.2938,2.2626,2.2382,2.2383,2.2397,2.2846,2.3759,2.4256,2.4365,2.4145,2.528,0.0,0.0,0.0,0.0,0.0,0.0,0.0,0.0,0.0,0.0,3.1915,3.0016,2.8857,2.9045,2.9757,3.0878,3.2389,3.2457,3.2444,3.2554,3.3994,3.4451,3.3346,3.3928,3.4003,3.3207,3.2459,3.1574,3.052,2.9385,2.861,2.8401,2.736,2.6551,2.6252,2.6318,2.5931,2.5011,2.4632,2.4506,2.4585,2.4469,2.4301,2.4069,2.4058,2.4025,2.3784,2.3933,2.4015,2.3947,2.4158,2.4308,2.4398,2.4797,2.5133,2.5149,2.5657,2.6218,2.6657,2.6968,2.7238,2.7815,2.8276,2.8579,2.8556,2.834,2.7862,2.6963,2.6889,2.7023,2.527,2.5247,2.6167,2.6499,2.6478,2.7748,2.7307,2.5824,2.6512,2.6944,2.7151,2.7927,2.7984,2.761,2.753,2.7419,2.7293,2.7024,2.6796,2.6532,2.5563,2.4776,2.4238,2.4038,2.3852,2.378,2.4409,2.4686,2.4597,2.4709,2.4349,2.3558,2.2415,2.1794,2.1671,0.0,0.0,0.0,2.0687,2.0871,2.173,2.2587,2.3064,2.3219,2.4418,0.0,2.4763,2.554,2.5833,2.5391,2.5715,0.0,0.0,0.0,0.0,0.0,0.0,0.0,0.0,0.0,0.0,0.0,2.9116,2.9196,3.0148,3.1937,3.2592,3.1576,3.3466,3.4501,3.4051,3.391,3.3305,3.201,3.0763,2.987,2.9467,2.835,2.7226,2.648,2.7003,2.6771,2.5168,2.4665,2.4527,2.4475,2.4508,2.4508,2.4538,2.4439,2.4419,2.4379,2.4241,2.4319,2.4554,2.4474,2.4481,2.4578,2.4924,2.5245,2.5301,2.5813,2.6394,2.64,2.6689,2.6989,2.7062,2.7553,2.8044,2.7961,2.7858,2.754,2.6372,2.6701,2.701,2.5274,2.4856,2.5863,2.5959,2.5618,2.7669,2.8981,2.9744,2.9102,2.8789,2.8832,2.8601,2.8703,2.89,2.8657,2.875,2.8944,2.771,2.7393,2.7668,2.5919,2.5229,2.5421,2.5403,2.5101,2.4588,2.5647,2.5971,2.5674,2.6094,2.5927,2.5157,2.4542,2.3783,2.2926,2.2351,2.1549,2.0561,2.0981,2.1612,2.2379,2.2972,2.3084,2.2704,2.3558,2.3856,2.3423,2.4567,2.4931,2.4386,2.542,2.5491,2.4472,2.638,2.6943,0.0,2.6252,0.0,0.0,0.0,0.0,0.0,0.0,0.0,0.0,3.0078,2.9914,2.9098,3.2317,3.371,3.1894,3.2186,3.2536,3.2475,3.1927,3.1316,3.0766,2.9836,2.8641,2.7111,2.6546,2.5963,2.504,2.4848,2.4551,2.4085,2.4388,2.4759,2.4787,2.4477,2.4231,2.4123,2.3779,2.4005,2.4613,2.4624,2.4496,2.4545,2.4935,2.5265,2.5323,2.6111,2.6748,2.6749,2.701,2.7449,2.7491,2.7543,2.7533,2.7197,2.6948,2.6902,2.6833,2.639,2.593,2.6335,2.6262,2.6992,2.7309,2.7299,2.8637,2.9419,2.9729,2.9379,2.9202,2.9019,2.8723,2.8443,2.8216,2.8364,2.868,2.8968,2.823,2.8069,2.8326,2.6757,2.5908,2.5613,2.5446,2.518,2.4928,2.5438,2.5606,2.5462,2.6077,2.6162,2.5681,2.4941,2.3862,2.2573,2.3225,2.293,2.1719,2.1658,2.1868,2.2416,2.2454,2.2503,2.2649,2.3547,2.3782,2.3275,2.4414,2.4939,2.47,2.5875,2.6041,2.4873,2.5505,2.5215,0.0,0.0,0.0,0.0,0.0,0.0,0.0,0.0,0.0,0.0,0.0,2.7282,2.8682,3.234,3.3512,3.089,3.1323,3.1556,3.1152,2.9458,2.9023,3.0817,2.9507,2.828,2.7806,2.7219,2.6446,2.5456,2.507,2.4754,2.4414,2.4984,2.5292,2.4867,2.4629,2.4613,2.4792,2.4493,2.4377,2.4754,2.4774,2.4693,2.479,2.5322,2.5805,2.5816,2.6413,2.664,2.5999,2.6358,2.6875,2.6847,2.6941,2.7131,2.7122,2.6817,2.6736,2.7332,2.6785,2.6433,2.7087,2.7369,2.7146,2.757,2.8404,2.8649,2.9065,2.9587,2.9473,2.9288,2.9041,2.8658,2.7881,2.6726,2.6425,2.6721,2.7492,2.7303,2.764,2.8332,2.7258,2.6465,2.5959,2.5649,2.5437,2.5387,2.5355,2.5445,2.5627,2.6056,2.5934,2.5375,2.504,2.4022,2.239,2.3444,2.3574,2.2677,2.2151,2.2017,2.2183,2.1884,2.2046,2.2696,2.3298,2.3617,2.3608,2.4216,2.4716,2.4985,2.5469,2.5637,2.5388,2.4361,0.0,0.0,0.0,0.0,0.0,0.0,0.0,0.0,0.0,2.4059,2.0188,0.0,2.4811,0.0,3.118,3.2498,3.0323,3.0354,0.0,0.0,2.7115,2.6413,2.8999,2.8174,2.7349,2.7292,2.7233,2.6744,2.5446,2.5061,2.5083,2.5597,2.611,2.6092,2.5487,2.541,2.5577,2.5724,2.5513,2.5314,2.5189,2.5164,2.5121,2.4958,2.5688,2.6391,2.6518,2.706,2.7128,2.6188,2.663,2.7151,2.7251,2.7424,2.7792,2.8024,2.7529,2.7221,2.8058,2.7981,2.7771,2.6762,2.7056,2.4829,2.5245,2.7202,2.6383,2.7781,3.0649,2.989,2.9414,2.9279,2.8685,2.7114,2.4769,2.2087,0.0,2.3736,2.3717,2.5086,2.7478,2.6804,2.6636,2.6888,2.6747,2.6551,2.635,2.6211,2.6513,2.7148,2.6592,2.5433,2.3979,2.5264,2.5035,2.3286,2.2868,2.2572,2.2429,2.233,2.2111,2.1682,2.1633,2.1936,2.2707,2.248,2.2937,2.4263,2.3587,2.3611,2.4575,2.2972,2.3319,2.6019,0.0,0.0,0.0,0.0,0.0,0.0,0.0,0.0,0.0,0.0,0.0,0.0,0.0,0.0,2.385,2.7376,0.0,2.9936,2.914,0.0,0.0,0.0,2.4737,2.4328,2.5727,2.6034,2.4297,0.0,0.0,2.4434,2.4631,2.5632,2.7657,2.7558,2.7312,2.7214,2.7124,2.7089,2.6736,2.6683,2.6486,2.6034,2.6009,2.5815,2.5239,2.5928,2.6944,2.7387,2.8133,2.8745,2.8466,2.9537,3.0119,2.9715,2.9863,3.0272,2.9882,2.9396,2.9167,2.9492,2.9564,2.9328,2.4711,2.2607,2.2004,2.2613,2.395,2.3131,2.4531,2.7449,2.6378,2.5797,2.5584,2.4977,2.3507,2.1325,1.9898,0.0,0.0,0.0,2.2637,2.5484,2.3942,2.4251,2.5868,2.5445,2.5125,2.5011,2.4999,2.5434,2.6364,2.6692,2.4472,2.0084,0.0,0.0,2.0816,2.2045,2.2775,2.2887,2.2477,2.1898,2.1214,2.1434,2.171,2.2055,2.2124,2.2433,2.3051,2.3519,2.3641,2.3289,2.3731,2.291,0.0,0.0,0.0,0.0,0.0,0.0,0.0,0.0,0.0,0.0,0.0,2.0007,1.743,0.0,0.0,0.0,2.2076,2.2476,2.3054,2.4318,0.0,0.0,0.0,0.0,0.0,0.0,0.0,2.4226,2.3566,2.3466,2.4701,2.6619,2.7632,2.6872,2.7305,2.7429,2.6777,0.0,2.7415,2.7519,2.731,2.7112,2.688,2.7266,2.7362,2.6858,2.7897,2.886,2.9034,2.9636,2.9799,2.9181,2.9441,2.9845,2.9617,3.0116,3.0624,3.067,3.0241,3.0195,3.1107,3.0394,2.9767,2.1829,0.0,0.0,0.0,0.0,2.019,2.1499,2.3885,2.2967,2.2478,2.2184,2.1296,0.0,0.0,0.0,0.0,0.0,0.0,2.0887,2.376,2.3059,2.3673,2.5478,2.4943,2.4646,2.4629,2.4362,2.451,2.5022,2.5015,2.241,1.7467,0.0,0.0,0.0,0.0,2.1934,2.2683,2.2408,2.2016,2.1504,2.1571,2.1604,2.1604,2.1971,2.2337,2.2736,2.3208,2.3044,2.225,2.276,0.0,0.0,0.0,0.0,0.0,0.0,0.0,0.0,0.0,0.0,0.0,0.0,0.0,0.0,0.0,0.0,0.0,0.0,0.0,1.9753,2.15,2.2357,0.0,0.0,0.0,0.0,0.0,0.0,0.0,0.0,0.0,2.3905,2.7288,2.8708,0.0,0.0,2.7568,2.7005,2.7349,2.7658,2.7731,2.7493,0.0,2.7339,2.7964,2.828,2.7799,2.9248,3.0123,2.9282,2.9889,3.0097,2.8852,2.9286,2.9953,3.0179,3.0032,2.9927,3.0657,3.0295,3.0208,3.1244,3.1142,3.0724,0.0,0.0,0.0,0.0,0.0,0.0,0.0,0.0,2.044,2.0144,0.0,1.8188,0.0,0.0,0.0,0.0,0.0,1.7448,0.0,0.0,2.4953,2.6139,2.5955,2.5882,2.5932,2.5887,2.4807,2.4073,2.3391,2.095,0.0,0.0,0.0,0.0,0.0,0.0,1.9535,2.1395,2.2076,2.2455,2.2597,2.1925,2.1592,2.1579,2.1912,2.2749,2.4038,2.2403,2.157,2.1711,1.8625,0.0,0.0,0.0,0.0,0.0,0.0,0.0,0.0,0.0,0.0,0.0,0.0,0.0,0.0,0.0,0.0,0.0,0.0,0.0,0.0,2.2117,0.0,0.0,0.0,0.0,0.0,0.0,0.0,0.0,0.0,0.0,2.1563,2.5581,2.8121,2.7764,0.0,0.0,0.0,0.0,2.7902,2.7187,2.7084,2.7084,2.7246,2.7785,2.7929,2.719,0.0,0.0,2.7257,2.8303,2.9348,2.8394,2.9813,3.1336,3.217,2.9553,2.8191,2.9795,2.9418,2.9159,2.9665,3.1099,3.2251,0.0,0.0,0.0,0.0,0.0,0.0,0.0,0.0,0.0,1.4916,1.4872,1.4114,0.0,0.0,0.0,0.0,0.0,0.0,0.0,0.0,1.932,2.0689,2.1747,2.2409,2.2158,0.0,2.0598,1.9905,0.0,0.0,0.0,0.0,0.0,0.0,0.0,0.0,1.9526,2.0611,2.1995,2.2495,2.1983,2.1448,2.1114,2.0942,2.1082,2.1101,2.0861,2.0555,2.0142,0.0,0.0,0.0,0.0,0.0,0.0,0.0,0.0,0.0,0.0,0.0,0.0,0.0,0.0,0.0,0.0,0.0,0.0,0.0,0.0,0.0,0.0,0.0,2.077,0.0,0.0,0.0,0.0,0.0,0.0,0.0,0.0,0.0,2.0202,2.3525,2.5716,2.5891,2.7159,2.8111,2.8265,0.0,0.0,0.0,0.0,0.0,0.0,0.0,2.7033,2.7039,2.7459,2.7529,2.6848,2.8777,3.0236,2.9669,0.0,0.0,2.6407,2.4124,2.3524,2.5581,2.6168,2.6475,2.713,2.835,2.8937,0.0,0.0,0.0,0.0,0.0,0.0,0.0,0.0,0.0,1.0878,1.1148,0.0,0.0,0.0,0.0,0.0,0.0,0.0,0.0,0.0,0.0,0.0,1.881,1.9831,0.0,0.0,0.0,0.0,0.0,0.0,0.0,0.0,0.0,0.0,0.0,0.0,1.9097,2.033,2.1693,2.2183,2.1697,2.1208,2.0885,2.0578,2.0468,2.0084,1.934,0.0,0.0,0.0,0.0,0.0,0.0,0.0,0.0,0.0,0.0,0.0,0.0,0.0,0.0,0.0,0.0,0.0,0.0,0.0,0.0,0.0,0.0,0.0,0.0,0.0,1.9275,0.0,0.0,0.0,0.0,0.0,0.0,0.0,0.0,0.0,0.0,0.0,2.3395,2.4317,2.5946,2.7373,2.8078,2.8475,2.8733,0.0,0.0,0.0,0.0,0.0,0.0,0.0,0.0,0.0,0.0,0.0,0.0,0.0,0.0,2.9395,2.423,2.2054,2.1592,2.3459,0.0,0.0,0.0,0.0,0.0,0.0,0.0,0.0,0.0,0.0,0.0,0.0,0.0,0.0,0.0,0.902,0.0,0.0,0.8434,0.0,0.0,0.0,0.0,0.0,0.0,0.0,0.0,0.0,0.0,0.0,0.0,0.0,0.0,0.0,0.0,0.0,0.0,0.0,0.0,0.0,0.0,1.8318,2.0534,2.1198,2.1627,2.1918,2.129,2.0849,2.0587,2.0183,1.9937,1.9757,0.0,0.0,0.0,0.0,0.0,0.0,0.0,0.0,0.0,0.0,0.0,0.0,0.0,0.0,0.0,0.0,0.0,0.0,0.0,0.0,0.0,0.0,0.0,0.0,0.0,0.0,1.6944,1.7824,1.8836,0.0,0.0,0.0,0.0,0.0,0.0,0.0,0.0,0.0,2.3244,2.4317,2.5718,2.7827,2.7971,2.7639,2.7096,2.6925,2.7478,2.9113,2.7627,2.5437,0.0,0.0,0.0,0.0,0.0,0.0,0.0,0.0,0.0,0.0,0.0,0.0,0.0,0.0,0.0,0.0,0.0,0.0,0.0,0.0,0.0,0.0,0.0,0.0,0.0,0.0,0.0,0.0,0.0,0.0,0.0,0.0,0.0,0.0,0.0,0.0,0.0,0.0,0.0,0.0,0.0,0.0,0.0,0.0,0.0,0.0,0.0,0.0,0.0,0.0,0.0,0.0,0.0,0.0,1.9107,2.0461,2.1879,2.2284,2.1575,2.0749,2.0103,1.9653,1.9547,1.9257,0.0,0.0,0.0,0.0,0.0,0.0,0.0,0.0,0.0,0.0,0.0,0.0,0.0,0.0,0.0,0.0,0.0,0.0,0.0,0.0,0.0,0.0,0.0,0.0,0.0,0.0,0.0,0.0,2.0718,2.0391,1.947,0.0,0.0,0.0,0.0,0.0,0.0,0.0,0.0,0.0,0.0,2.6696,2.752,2.7633,2.7852,2.8499,2.8159,2.8189,2.9302,2.7901,2.5901,2.372,0.0,0.0,0.0,0.0,0.0,0.0,0.0,0.0,0.0,0.0,0.0,0.0,0.0,0.0,0.0,0.0,0.0,0.0,0.0,0.0,0.0,0.0,0.0,0.0,0.0,0.0,0.0,0.0,0.0,0.0,0.0,0.0,0.0,0.0,0.0,0.0,0.0,0.0,0.0,0.0,0.0,0.0,0.0,0.0,0.0,0.0,0.0,0.0,0.0,0.0,0.0,0.0,0.0,1.9385,2.0464,2.1951,2.2229,2.1228,2.0412,1.9702,1.8958,1.8907,1.8446,0.0,0.0,0.0,0.0,0.0,0.0,0.0,0.0,0.0,0.0,0.0,0.0,0.0,0.0,0.0,0.0,0.0,0.0,0.0,0.0,0.0,0.0,0.0,0.0,0.0,0.0,0.0,0.0,1.9486,1.9239,1.8098,0.0,0.0,0.0,0.0,0.0,0.0,0.0,0.0,0.0,0.0,2.5781,2.6425,2.6892,0.0,0.0,2.7691,2.7496,2.8105,2.7214,2.58,2.3792,2.1865,0.0,0.0,0.0,0.0,0.0,0.0,0.0,0.0,0.0,0.0,0.0,0.0,0.0,0.0,0.0,0.0,0.0,0.0,0.0,0.0,0.0,0.0,0.0,0.0,0.0,0.0,0.0,0.0,0.0,0.0,0.0,0.0,0.0,0.0,0.0,0.0,0.0,0.0,0.0,0.0,0.0,0.0,0.0,0.0,0.0,0.0,0.0,0.0,0.0,0.0,0.0,0.0,1.9203,2.0504,2.1479,2.1663,2.1001,2.0299,1.9412,1.8448,1.8275,1.7543,0.0,0.0,0.0,0.0,0.0,0.0,0.0,0.0,0.0,0.0,0.0,0.0,0.0,0.0,0.0,0.0,0.0,0.0,0.0,0.0,0.0,0.0,0.0,0.0,0.0,0.0,0.0,0.0,0.0,0.0,0.0,0.0,0.0,0.0,0.0,0.0,0.0,0.0,0.0,0.0,0.0,2.3643,2.4957,2.5786,2.6336,0.0,2.6115,2.5805,2.6004,2.5932,2.5234,2.3477,0.0,0.0,0.0,0.0,0.0,0.0,0.0,0.0,0.0,0.0,0.0,0.0,0.0,0.0,0.0,0.0,0.0,0.0,0.0,0.0,0.0,0.0,0.0,0.0,0.0,0.0,0.0,0.0,0.0,0.0,0.0,0.0,0.0,0.0,0.0,0.0,0.0,0.0,0.0,0.0,0.0,0.0,0.0,0.0,0.0,0.0,0.0,0.0,0.0,0.0,0.0,0.0,0.0,0.0,1.9754,2.1417,2.1819,2.0841,1.9662,1.8601,1.7766,1.7325,0.0,0.0,0.0,0.0,0.0,0.0,0.0,0.0,0.0,0.0,0.0,0.0,0.0,0.0,0.0,0.0,0.0,0.0,0.0,0.0,0.0,0.0,0.0,0.0,0.0,0.0,0.0,1.4663,0.0,0.0,0.0,0.0,0.0,0.0,0.0,0.0,0.0,0.0,0.0,0.0,0.0,0.0,2.3968,2.5438,2.5038,2.5004,0.0,0.0,2.4587,2.5604,2.5893,2.542,0.0,0.0,0.0,0.0,0.0,0.0,0.0,0.0,0.0,0.0,0.0,0.0,0.0,0.0,0.0,0.0,0.0,0.0,0.0,0.0,0.0,0.0,0.0,0.0,0.0,0.0,0.0,0.0,0.0,0.0,0.0,0.0,0.0,0.0,0.0,0.0,0.0,0.0,0.0,0.0,0.0,0.0,0.0,0.0,0.0,0.0,0.0,0.0,0.0,0.0,0.0,0.0,0.0,0.0,1.892,1.9544,2.0792,2.1224,2.0762,1.9622,1.8399,1.7204,1.6877,1.5809,0.0,0.0,0.0,0.0,0.0,0.0,0.0,0.0,0.0,0.0,0.0,0.0,0.0,0.0,0.0,0.0,0.0,0.0,0.0,0.0,0.0,0.0,0.0,0.0,0.0,0.0,0.0,0.0,0.0,0.0,0.0,0.0,0.0,0.0,0.0,0.0,0.0,0.0,0.0,0.0,0.0,0.0,2.3649,2.3438,0.0,0.0,0.0,2.3372,2.4107,0.0,0.0,0.0,0.0,0.0,0.0,0.0,0.0,0.0,0.0,0.0,0.0,0.0,0.0,0.0,0.0,0.0,0.0,0.0,0.0,0.0,0.0,0.0,0.0,0.0,0.0,0.0,0.0,0.0,0.0,0.0,0.0,0.0,0.0,0.0,0.0,0.0,0.0,0.0,0.0,0.0,0.0,0.0,0.0,0.0,0.0,0.0,0.0,0.0,0.0,0.0,0.0,0.0,0.0,0.0,0.0,0.0,1.9638,2.0289,2.0729,2.097,1.9973,1.8601,1.6845,1.6627,1.5461,0.0,0.0,0.0,0.0,0.0,0.0,0.0,0.0,0.0,0.0,0.0,0.0,0.0,0.0,0.0,0.0,0.0,0.0,0.0,0.0,0.0,0.0,0.0,0.0,0.0,0.0,0.0,0.0,0.0,0.0,0.0,0.0,0.0,0.0,0.0,0.0,0.0,0.0,0.0,0.0,0.0,2.3136,2.1326,2.172,2.1857,0.0,0.0,2.2037,2.2217,2.2773,0.0,0.0,0.0,0.0,0.0,0.0,0.0,0.0,0.0,0.0,0.0,0.0,0.0,0.0,0.0,0.0,0.0,0.0,0.0,0.0,0.0,0.0,0.0,0.0,0.0,0.0,0.0,0.0,0.0,0.0,0.0,0.0,0.0,0.0,0.0,0.0,0.0,0.0,0.0,0.0,0.0,0.0,0.0,0.0,0.0,0.0,0.0,0.0,0.0,0.0,0.0,0.0,0.0,0.0,0.0,0.0,1.9892,2.1887,2.2792,2.2301,2.0421,1.8778,1.7381,1.6229,1.4547,0.0,0.0,0.0,0.0,0.0,0.0,0.0,0.0,0.0,0.0,0.0,0.0,0.0,0.0,0.0,0.0,0.0,0.0,0.0,0.0,0.0,0.0,0.0,0.0,0.0,0.0,0.0,0.0,0.0,0.0,0.0,0.0,0.0,0.0,0.0,0.0,0.0,0.0,0.0,0.0,0.0,2.2072,2.2426,2.1901,0.0,0.0,0.0,0.0,2.1382,2.0792,0.0,0.0,0.0,0.0,0.0,0.0,0.0,0.0,0.0,0.0,0.0,0.0,0.0,0.0,0.0,0.0,0.0,0.0,0.0,0.0,0.0,0.0,0.0,0.0,0.0,0.0,0.0,0.0,0.0,0.0,0.0,0.0,0.0,0.0,0.0,0.0,0.0,0.0,0.0,0.0,0.0,0.0,0.0,0.0,0.0,0.0,0.0,0.0,0.0,0.0,0.0,0.0,0.0,0.0,0.0,0.0,2.0929,2.1801,2.2509,2.2934,2.0894,1.9051,1.752,1.5998,1.409,0.0,0.0,0.0,0.0,0.0,0.0,0.0,0.0,0.0,0.0,0.0,0.0,0.0,0.0,0.0,0.0,0.0,0.0,0.0,0.0,0.0,0.0,0.0,0.0,0.0,0.0,0.0,0.0,0.0,0.0,0.0,0.0,0.0,0.0,0.0,0.0,0.0,0.0,0.0,0.0,2.096,2.1527,2.1862,0.0,0.0,0.0,0.0,0.0,0.0,1.9152,1.8799,0.0,0.0,0.0,0.0,0.0,0.0,0.0,0.0,0.0,0.0,0.0,0.0,0.0,0.0,0.0,0.0,0.0,0.0,0.0,0.0,0.0,0.0,0.0,0.0,0.0,0.0,0.0,0.0,0.0,0.0,0.0,0.0,0.0,0.0,0.0,0.0,0.0,0.0,0.0,0.0,0.0,0.0,0.0,0.0,0.0,0.0,0.0,0.0,0.0,0.0,0.0,0.0,0.0,0.0,0.0,2.1878,2.1318,2.174,2.3349,2.1525,1.9663,1.7724,1.6049,1.4078,1.188,0.0,0.0,0.0,0.0,0.0,0.0,0.0,0.0,0.0,0.0,0.0,0.0,0.0,0.0,0.0,0.0,0.0,0.0,0.0,0.0,0.0,0.0,0.0,0.0,0.0,0.0,0.0,0.0,0.0,0.0,0.0,0.0,0.0,0.0,0.0,0.0,0.0,0.0,0.0,2.0224,2.0689,0.0,0.0,0.0,0.0,0.0,0.0,0.0,0.0,1.8129,0.0,0.0,0.0,0.0,0.0,0.0,0.0,0.0,0.0,0.0,0.0,0.0,0.0,0.0,0.0,0.0,0.0,0.0,0.0,0.0,0.0,0.0,0.0,0.0,0.0,0.0,0.0,0.0,0.0,0.0,0.0,0.0,0.0,0.0,0.0,0.0,0.0,0.0,0.0,0.0,0.0,0.0,0.0,0.0,0.0,0.0,0.0,0.0,0.0,0.0,0.0,0.0,0.0,0.0,0.0,0.0,2.2053,2.2976,2.3733,2.2648,2.0886,1.8536,1.6845,1.4683,1.2112,0.0,0.0,0.0,0.0,0.0,0.0,0.0,0.0,0.0,0.0,0.0,0.0,0.0,0.0,0.0,0.0,0.0,0.0,0.0,0.0,0.0,0.0,0.0,0.0,0.0,0.0,0.0,0.0,0.0,0.0,0.0,0.0,0.0,0.0,0.0,0.0,0.0,0.0,1.5638,1.7218,0.0,0.0,0.0,0.0,0.0,0.0,0.0,0.0,1.7519,0.0,0.0,0.0,0.0,0.0,0.0,0.0,0.0,0.0,0.0,0.0,0.0,0.0,0.0,0.0,0.0,0.0,0.0,0.0,0.0,0.0,0.0,0.0,0.0,0.0,0.0,0.0,0.0,0.0,0.0,0.0,0.0,0.0,0.0,0.0,0.0,0.0,0.0,0.0,0.0,0.0,0.0,0.0,0.0,0.0,0.0,0.0,0.0,0.0,0.0,0.0,0.0,0.0,0.0,0.0,0.0,0.0,0.0,2.319,2.4618,2.2824,2.0963,1.9099,1.6891,1.4569,0.0,0.0,0.0,0.0,0.0,0.0,0.0,0.0,0.0,0.0,0.0,0.0,0.0,0.0,0.0,0.0,0.0,0.0,0.0,0.0,0.0,0.0,0.0,0.0,0.0,0.0,0.0,0.0,0.0,0.0,0.0,0.0,0.0,0.0,0.0,0.0,0.0,0.0,0.0,0.0,0.0,0.0,0.0,0.0,0.0,0.0,0.0,0.0,0.0,0.0,0.0,0.0,0.0,0.0,0.0,0.0,0.0,0.0,0.0,0.0,0.0,0.0,0.0,0.0,0.0,0.0,0.0,0.0,0.0,0.0,0.0,0.0,0.0,0.0,0.0,0.0,0.0,0.0,0.0,0.0,0.0,0.0,0.0,0.0,0.0,0.0,0.0,0.0,0.0,0.0,0.0,0.0,0.0,0.0,0.0,0.0,0.0,0.0,0.0,0.0,0.0,0.0,0.0,0.0,0.0,0.0,0.0,0.0,2.2836,2.4915,2.282,2.0826,1.9177,1.677,1.4414,0.0,0.0,0.0,0.0,0.0,0.0,0.0,0.0,0.0,0.0,0.0,0.0,0.0,0.0,0.0,0.0,0.0,0.0,0.0,0.0,0.0,0.0,0.0,0.0,0.0,0.0,0.0,0.0,0.0,0.0,0.0,0.0,0.0,0.0,0.0,0.0,0.0,0.0,0.0,0.0,0.0,0.0,0.0,0.0,0.0,0.0,0.0,0.0,1.6411,0.0,0.0,0.0,0.0,0.0,0.0,0.0,0.0,0.0,0.0,0.0,0.0,0.0,0.0,0.0,0.0,0.0,0.0,0.0,0.0,0.0,0.0,0.0,0.0,0.0,0.0,0.0,0.0,0.0,0.0,0.0,0.0,0.0,0.0,0.0,0.0,0.0,0.0,0.0,0.0,0.0,0.0,0.0,0.0,0.0,0.0,0.0,0.0,0.0,0.0,0.0,0.0,0.0,0.0,0.0,0.0,0.0,0.0,0.0,2.198,2.3668,2.2882,2.1096,1.8314,1.6696,1.4788,0.0,0.0,0.0,0.0,0.0,0.0,0.0,0.0,0.0,0.0,0.0,0.0,0.0,0.0,0.0,0.0,0.0,0.0,0.0,0.0,0.0,0.0,0.0,0.0,0.0,0.0,0.0,0.0,0.0,0.0,0.0,0.0,0.0,0.0,0.0,0.0,0.0,0.0,0.0,0.0,0.0,0.0,0.0,0.0,0.0,0.0,0.0,0.0,0.0,0.0,0.0,0.0,0.0,0.0,0.0,0.0,0.0,0.0,0.0,0.0,0.0,0.0,0.0,0.0,0.0,0.0,0.0,0.0,0.0,0.0,0.0,0.0,0.0,0.0,0.0,0.0,0.0,0.0,0.0,0.0,0.0,0.0,0.0,0.0,0.0,0.0,0.0,0.0,0.0,0.0,0.0,0.0,0.0,0.0,0.0,0.0,0.0,0.0,0.0,0.0,0.0,0.0,0.0,0.0,0.0,0.0,0.0,0.0,2.1679,2.3135,2.2823,2.0887,1.7136,1.5289,1.3473,0.0,0.0,0.0,0.0,0.0,0.0,0.0,0.0,0.0,0.0,0.0,0.0,0.0,0.0,0.0,0.0,0.0,0.0,0.0,0.0,0.0,0.0,0.0,0.0,0.0,0.0,0.0,0.0,0.0,0.0,0.0,0.0,0.0,0.0,0.0,0.0,0.0,0.0,0.0,0.0,0.0,0.0,0.0,0.0,0.0,0.0,0.0,0.0,0.0,0.0,0.0,0.0,0.0,0.0,0.0,0.0,0.0,0.0,0.0,0.0,0.0,0.0,0.0,0.0,0.0,0.0,0.0,0.0,0.0,0.0,0.0,0.0,0.0,0.0,0.0,0.0,0.0,0.0,0.0,0.0,0.0,0.0,0.0,0.0,0.0,0.0,0.0,0.0,0.0,0.0,0.0,0.0,0.0,0.0,0.0,0.0,0.0,0.0,0.0,0.0,0.0,0.0,0.0,0.0,0.0,0.0,0.0,0.0,0.0,2.1681,2.2003,2.0219,1.6323,1.4289,1.2456,0.0,0.0,0.0,0.0,0.0,0.0,0.0,0.0,0.0,0.0,0.0,0.0,0.0,0.0,0.0,0.0,0.0,0.0,0.0,0.0,0.0,0.0,0.0,0.0,0.0,0.0,0.0,0.0,0.0,0.0,0.0,0.0,0.0,0.0,0.0,0.0,0.0,0.0,0.0,0.0,0.0,0.0,0.0,0.0,0.0,0.0,0.0,0.0,0.0,0.0,0.0,0.0,0.0,0.0,0.0,0.0,0.0,0.0,0.0,0.0,0.0,0.0,0.0,0.0,0.0,0.0,0.0,0.0,0.0,0.0,0.0,0.0,0.0,0.0,0.0,0.0,0.0,0.0,0.0,0.0,0.0,0.0,0.0,0.0,0.0,0.0,0.0,0.0,0.0,0.0,0.0,0.0,0.0,0.0,0.0,0.0,0.0,0.0,0.0,0.0,0.0,0.0,0.0,0.0,0.0,0.0,0.0,0.0,0.0,1.8544,1.9849,1.8984,1.5852,1.4196,1.2396,0.0,0.0,0.0,0.0,0.0,0.0,0.0,0.0,0.0,0.0,0.0,0.0,0.0,0.0,0.0,0.0,0.0,0.0,0.0,0.0,0.0,0.0,0.0,0.0,0.0,0.0,0.0,0.0,0.0,0.0,0.0,0.0,0.0,0.0,0.0,0.0,0.0,0.0,0.0,0.0,0.0,0.0,0.0,0.0,0.0,0.0,0.0,0.0,0.0,0.0,0.0,0.0,0.0,0.0,0.0,0.0,0.0,0.0,0.0,0.0,0.0,0.0,0.0,0.0,0.0,0.0,0.0,0.0,0.0,0.0,0.0,0.0,0.0,0.0,0.0,0.0,0.0,0.0,0.0,0.0,0.0,0.0,0.0,0.0,0.0,0.0,0.0,0.0,0.0,0.0,0.0,0.0,0.0,0.0,0.0,0.0,0.0,0.0,0.0,0.0,0.0,0.0,0.0,0.0,0.0,0.0,0.0,0.0,0.0,1.4256,1.6365,1.6467,1.4107,1.2515,1.1225,1.0129,0.0,0.0,0.0,0.0,0.0,0.0,0.0,0.0,0.0,0.0,0.0,0.0,0.0,0.0,0.0,0.0,0.0,0.0,0.0,0.0,0.0,0.0,0.0,0.0,0.0,0.0,0.0,0.0,0.0,0.0,0.0,0.0,0.0,0.0,0.0,0.0,0.0,0.0,0.0,0.0,0.0,0.0,0.0,0.0,0.0,0.0,0.0,0.0,0.0,0.0,0.0,0.0,0.0,0.0,0.0,0.0,0.0,0.0,0.0,0.0,0.0,0.0,0.0,0.0,0.0,0.0,0.0,0.0,0.0,0.0,0.0,0.0,0.0,0.0,0.0,0.0,0.0,0.0,0.0,0.0,0.0,0.0,0.0,0.0,0.0,0.0,0.0,0.0,0.0,0.0,0.0,0.0,0.0,0.0,0.0,0.0,0.0,0.0,0.0,0.0,0.0,0.0,0.0,0.0,0.0,0.0,0.0,0.0,1.2245,1.4535,1.491,1.3023,1.1292,1.0057,0.0,0.0,0.0,0.0,0.0,0.0,0.0,0.0,0.0,0.0,0.0,0.0,0.0,0.0,0.0,0.0,0.0,0.0,0.0,0.0,0.0,0.0,0.0,0.0,0.0,0.0,0.0,0.0,0.0,0.0,0.0,0.0,0.0,0.0,0.0,0.0,0.0,0.0,0.0,0.0,0.0,0.0,0.0,0.0,0.0,0.0,0.0,0.0,0.0,0.0,0.0,0.0,0.0,0.0,0.0,0.0,0.0,0.0,0.0,0.0,0.0,0.0,0.0,0.0,0.0,0.0,0.0,0.0,0.0,0.0,0.0,0.0,0.0,0.0,0.0,0.0,0.0,0.0,0.0,0.0,0.0,0.0,0.0,0.0,0.0,0.0,0.0,0.0,0.0,0.0,0.0,0.0,0.0,0.0,0.0,0.0,0.0,0.0,0.0,0.0,0.0,0.0,0.0,0.0,0.0,0.0,0.0,0.0,1.0926,1.343,1.473,1.4543,1.2858,1.0814,0.9065,0.0,0.0,0.0,0.0,0.0,0.0,0.0,0.0,0.0,0.0,0.0,0.0,0.0,0.0,0.0,0.0,0.0,0.0,0.0,0.0,0.0,0.0,0.0,0.0,0.0,0.0,0.0,0.0,0.0,0.0,0.0,0.0,0.0,0.0,0.0,0.0,0.0,0.0,0.0,0.0,0.0,0.0,0.0,0.0,0.0,0.0,0.0,0.0,0.0,0.0,0.0,0.0,0.0,0.0,0.0,0.0,0.0,0.0,0.0,0.0,0.0,0.0,0.0,0.0,0.0,0.0,0.0,0.0,0.0,0.0,0.0,0.0,0.0,0.0,0.0,0.0,0.0,0.0,0.0,0.0,0.0,0.0,0.0,0.0,0.0,0.0,0.0,0.0,0.0,0.0,0.0,0.0,0.0,0.0,0.0,0.0,0.0,0.0,0.0,0.0,0.0,0.0,0.0,0.0,0.0,0.0,0.0,0.0,0.0,1.0707,0.0,1.1957,1.2088,1.0335,0.916,0.0,0.0,0.0,0.0,0.0,0.0,0.0,0.0,0.0,0.0,0.0,0.0,0.0,0.0,0.0,0.0,0.0,0.0,0.0,0.0,0.0,0.0,0.0,0.0,0.0,0.0,0.0,0.0,0.0,0.0,0.0,0.0,0.0,0.0,0.0,0.0,0.0,0.0,0.0,0.0,0.0,0.0,0.0,0.0,0.0,0.0,0.0,0.0,0.0,0.0,0.0,0.0,0.0,0.0,0.0,0.0,0.0,0.0,0.0,0.0,0.0,0.0,0.0,0.0,0.0,0.0,0.0,0.0,0.0,0.0,0.0,0.0,0.0,0.0,0.0,0.0,0.0,0.0,0.0,0.0,0.0,0.0,0.0,0.0,0.0,0.0,0.0,0.0,0.0,0.0,0.0,0.0,0.0,0.0,0.0,0.0,0.0,0.0,0.0,0.0,0.0,0.0,0.0,0.0,0.0,0.0,0.0,0.0,0.0,1.0289,1.0414,1.0842,1.1476,0.9539,0.8483,0.0,0.0,0.0,0.0,0.0,0.0,0.0,0.0,0.0,0.0,0.0,0.0,0.0,0.0,0.0,0.0,0.0,0.0,0.0,0.0,0.0,0.0,0.0,0.0,0.0,0.0,0.0,0.0,0.0,0.0,0.0,0.0,0.0,0.0,0.0,0.0,0.0,0.0,0.0,0.0,0.0,0.0,0.0,0.0,0.0,0.0,0.0,0.0,0.0,0.0,0.0,0.0,0.0,0.0,0.0,0.0,0.0,0.0,0.0,0.0,0.0,0.0,0.0,0.0,0.0,0.0,0.0,0.0,0.0,0.0,0.0,0.0,0.0,0.0,0.0,0.0,0.0,0.0,0.0,0.0,0.0,0.0,0.0,0.0,0.0,0.0,0.0,0.0,0.0,0.0,0.0,0.0,0.0,0.0,0.0,0.0,0.0,0.0,0.0,0.0,0.0,0.0,0.0,0.0,0.0,0.0,0.0,0.0,0.0,1.1799,1.1323,1.1045,1.0976,0.8595,0.7243,0.0,0.0,0.0,0.0,0.0,0.0,0.0,0.0,0.0,0.0,0.0,0.0,0.0,0.0,0.0,0.0,0.0,0.0,0.0,0.0,0.0,0.0,0.0,0.0,0.0,0.0,0.0,0.0,0.0,0.0,0.0,0.0,0.0,0.0,0.0,0.0,0.0,0.0,0.0,0.0,0.0,0.0,0.0,0.0,0.0,0.0,0.0,0.0,0.0,0.0,0.0,0.0,0.0,0.0,0.0,0.0,0.0,0.0,0.0,0.0,0.0,0.0,0.0,0.0,0.0,0.0,0.0,0.0,0.0,0.0,0.0,0.0,0.0,0.0,0.0,0.0,0.0,0.0,0.0,0.0,0.0,0.0,0.0,0.0,0.0,0.0,0.0,0.0,0.0,0.0,0.0,0.0,0.0,0.0,0.0,0.0,0.0,0.0,0.0,0.0,0.0,0.0,0.0,0.0,0.0,0.0,0.0,0.0,0.0,0.0,1.0568,1.0573,1.0056,0.8773,0.7759,0.7195,0.0,0.0,0.0,0.0,0.0,0.0,0.0,0.0,0.0,0.0,0.0,0.0,0.0,0.0,0.0,0.0,0.0,0.0,0.0,0.0,0.0,0.0,0.0,0.0,0.0,0.0,0.0,0.0,0.0,0.0,0.0,0.0,0.0,0.0,0.0,0.0,0.0,0.0,0.0,0.0,0.0,0.0,0.0,0.0,0.0,0.0,0.0,0.0,0.0,0.0,0.0,0.0,0.0,0.0,0.0,0.0,0.0,0.0,0.0,0.0,0.0,0.0,0.0,0.0,0.0,0.0,0.0,0.0,0.0,0.0,0.0,0.0,0.0,0.0,0.0,0.0,0.0,0.0,0.0,0.0,0.0,0.0,0.0,0.0,0.0,0.0,0.0,0.0,0.0,0.0,0.0,0.0,0.0,0.0,0.0,0.0,0.0,0.0,0.0,0.0,0.0,0.0,0.0,0.0,0.0,0.0,0.0,0.0,0.0,0.0,1.0052,0.98,0.9129,0.8165,0.0,0.0,0.0,0.0,0.0,0.0,0.0,0.0,0.0,0.0,0.0,0.0,0.0,0.0,0.0,0.0,0.0,0.0,0.0,0.0,0.0,0.0,0.0,0.0,0.0,0.0,0.0,0.0,0.0,0.0,0.0,0.0,0.0,0.0,0.0,0.0,0.0,0.0,0.0,0.0,0.0,0.0,0.0,0.0,0.0,0.0,0.0,0.0,0.0,0.0,0.0,0.0,0.0,0.0,0.0,0.0,0.0,0.0,0.0,0.0,0.0,0.0,0.0,0.0,0.0,0.0,0.0,0.0,0.0,0.0,0.0,0.0,0.0,0.0,0.0,0.0,0.0,0.0,0.0,0.0,0.0,0.0,0.0,0.0,0.0,0.0,0.0,0.0,0.0,0.0,0.0,0.0,0.0,0.0,0.0,0.0,0.0,0.0,0.0,0.0,0.0,0.0,0.0,0.0,0.0,0.0,0.0,0.0,0.0,0.0,0.0,0.9597,1.0005,0.947,0.0,0.6632,0.0,0.0,0.0,0.0,0.0,0.0,0.0,0.0,0.0,0.0,0.0,0.0,0.0,0.0,0.0,0.0,0.0,0.0,0.0,0.0,0.0,0.0,0.0,0.0,0.0,0.0,0.0,0.0,0.0,0.0,0.0,0.0,0.0,0.0,0.0,0.0,0.0,0.0,0.0,0.0,0.0,0.0,0.0,0.0,0.0,0.0,0.0,0.0,0.0,0.0,0.0,0.0,0.0,0.0,0.0,0.0,0.0,0.0,0.0,0.0,0.0,0.0,0.0,0.0,0.0,0.0,0.0,0.0,0.0,0.0,0.0,0.0,0.0,0.0,0.0,0.0,0.0,0.0,0.0,0.0,0.0,0.0,0.0,0.0,0.0,0.0,0.0,0.0,0.0,0.0,0.0,0.0,0.0,0.0,0.0,0.0,0.0,0.0,0.0,0.0,0.0,0.0,0.0,0.0,0.0,0.0,0.0,0.0,0.0,0.0,0.0,0.0,0.9035,0.7875,0.7566,0.0,0.0,0.0,0.0,0.0,0.0,0.0,0.0,0.0,0.0,0.0,0.0,0.0,0.0,0.0,0.0,0.0,0.0,0.0,0.0,0.0,0.0,0.0,0.0,0.0,0.0,0.0,0.0,0.0,0.0,0.0,0.0,0.0,0.0,0.0,0.0,0.0,0.0,0.0,0.0,0.0,0.0,0.0,0.0,0.0,0.0,0.0,0.0,0.0,0.0,0.0,0.0,0.0,0.0,0.0,0.0,0.0,0.0,0.0,0.0,0.0,0.0,0.0,0.0,0.0,0.0,0.0,0.0,0.0,0.0,0.0,0.0,0.0,0.0,0.0,0.0,0.0,0.0,0.0,0.0,0.0,0.0,0.0,0.0,0.0,0.0,0.0,0.0,0.0,0.0,0.0,0.0,0.0,0.0,0.0,0.0,0.0,0.0,0.0,0.0,0.0,0.0,0.0,0.0,0.0,0.0,0.0,0.0,0.0,0.0,1.0718,1.0539,0.9028,0.817,0.8115,0.0,0.0,0.0,0.0,0.0,0.0,0.0,0.0,0.0,0.0,0.0,0.0,0.0,0.0,0.0,0.0,0.0,0.0,0.0,0.0,0.0,0.0,0.0,0.0,0.0,0.0,0.0,0.0,0.0,0.0,0.0,0.0,0.0,0.0,0.0,0.0,0.0,0.0,0.0,0.0,0.0,0.0,0.0,0.0,0.0,0.0,0.0,0.0,0.0,0.0,0.0,0.0,0.0,0.0,0.0,0.0,0.0,0.0,0.0,0.0,0.0,0.0,0.0,0.0,0.0,0.0,0.0,0.0,0.0,0.0,0.0,0.0,0.0,0.0,0.0,0.0,0.0,0.0,0.0,0.0,0.0,0.0,0.0,0.0,0.0,0.0,0.0,0.0,0.0,0.0,0.0,0.0,0.0,0.0,0.0,0.0,0.0,0.0,0.0,0.0,0.0,0.0,0.0,0.0,0.0,0.0,0.0,0.0,0.0,0.0,0.0,0.0,0.0,0.0,0.8241,0.0,0.0,0.0,0.0,0.0,0.0,0.0,0.0,0.0,0.0,0.0,0.0,0.0,0.0,0.0,0.0,0.0,0.0,0.0,0.0,0.0,0.0,0.0,0.0,0.0,0.0,0.0,0.0,0.0,0.0,0.0,0.0,0.0,0.0,0.0,0.0,0.0,0.0,0.0,0.0,0.0,0.0,0.0,0.0,0.0,0.0,0.0,0.0,0.0,0.0,0.0,0.0,0.0,0.0,0.0,0.0,0.0,0.0,0.0,0.0,0.0,0.0,0.0,0.0,0.0,0.0,0.0,0.0,0.0,0.0,0.0,0.0,0.0,0.0,0.0,0.0,0.0,0.0,0.0,0.0,0.0,0.0,0.0,0.0,0.0,0.0,0.0,0.0,0.0,0.0,0.0,0.0,0.0,0.0,0.0,0.0,0.0,0.0,0.0,0.0,0.0,0.0,0.0,0.0,0.0,0.0,0.0,0.0,0.0,0.0,0.0,0.0,0.0,0.0,0.0,0.0,0.0,0.0,0.0,0.0,0.0,0.0,0.0,0.0,0.0,0.0,0.0,0.0,0.0,0.0,0.0,0.0,0.0,0.0,0.0,0.0,0.0,0.0,0.0,0.0,0.0,0.0,0.0,0.0,0.0,0.0,0.0,0.0,0.0,0.0,0.0,0.0,0.0,0.0,0.0,0.0,0.0,0.0,0.0,0.0,0.0,0.0,0.0,0.0,0.0,0.0,0.0,0.0,0.0,0.0,0.0,0.0,0.0,0.0,0.0,0.0,0.0,0.0,0.0,0.0,0.0,0.0,0.0,0.0,0.0,0.0,0.0,0.0,0.0,0.0,0.0,0.0,0.0,0.0,0.0,0.0,0.0,0.0,0.0,0.0,0.0,0.0,0.0,0.0,0.0,0.0,0.0,0.0,0.0,0.0,0.0,0.0,0.0,0.0,0.0,0.0,0.0,0.0,0.0,0.0,0.0,0.0,0.0,0.0,0.0,0.0,0.0,0.0,0.0,0.0,0.0,0.0,0.0,0.0,0.0,0.0,0.0,0.0,0.0,0.0,0.0,0.0,0.0,0.0,0.0,0.0,0.0,0.0,0.0,0.0,0.0,0.0,0.0,0.0,0.0,0.0,0.0,0.0,0.0,0.0,0.0,0.0,0.0,0.0,0.0,0.0,0.0,0.0,0.0,0.0,0.0,0.0,0.0,0.0,0.0,0.0,0.0,0.0,0.0,0.0,0.0,0.0,0.0,0.0,0.0,0.0,0.0,0.0,0.0,0.0,0.0,0.0,0.0,0.0,0.0,0.0,0.0,0.0,0.0,0.0,0.0,0.0,0.0,0.0,0.0,0.0,0.0,0.0,0.0,0.0,0.0,0.0,0.0,0.0,0.0,0.0,0.0,0.0,0.0,0.0,0.0,0.0,0.0,0.0,0.0,0.0,0.0,0.0,0.0,0.0,0.0,0.0,0.0,0.0,0.0,0.0,0.0,0.0,0.0,0.0,0.0,0.0,0.0,0.0,0.0,0.0,0.0,0.0,0.0,0.0,0.0,0.0,0.0,0.0,0.0,0.0,0.0,0.0,0.0,0.0,0.0,0.0,0.0,0.0,0.0,0.0,0.0,0.0,0.0,0.0,0.0,0.0,0.0,0.0,0.0,0.0,0.0,0.0,0.0,0.0,0.0,0.0,0.0,0.0,0.0,0.0,0.0,0.0,0.0,0.0,0.0,0.0,0.0,0.0,0.0,0.0,0.0,0.0,0.0,0.0,0.0,0.0,0.0,0.0,0.0,0.0,0.0,0.0,0.0,0.0,0.0,0.0,0.0,0.0,0.0,0.0,0.0,0.0,0.0,0.0,0.0,0.0,0.0,0.0,0.0,0.0,0.0,0.0,0.0,0.0,0.0,0.0,0.0,0.0,0.0,0.0,0.0,0.0,0.0,0.0,0.0,0.0,0.0,0.0,0.0,0.0,0.0,0.0,0.0,0.0,0.0,0.0,0.0,0.0,0.0,0.0,0.0,0.0,0.0,0.0,0.0,0.0,0.0,0.0,0.0,0.0,0.0,0.0,0.0,0.0,0.0,0.0,0.0,0.0,0.0,0.0,0.0,0.0,0.0,0.0,0.0,0.0,0.0,0.0,0.0,0.0,0.0,0.0,0.0,0.0,0.0,0.0,0.0,0.0,0.0,0.0,0.0,0.0,0.0,0.0,0.0,0.0,0.0,0.0,0.0,0.0,0.0,0.0,0.0,0.0,0.0,0.0,0.0,0.0,0.0,0.0,0.0,0.0,0.0,0.0,0.0,0.0,0.0,0.0,0.0,0.0,0.0,0.0,0.0,0.0,0.0,0.0,0.0,0.0,0.0,0.0,0.0,0.0,0.0,0.0,0.0,0.0,0.0,0.0,0.0,0.0,0.0,0.0,0.0,0.0,0.0,0.0,0.0,0.0,0.0,0.0,0.0,0.0,0.0,0.0,0.0,0.0,0.0,0.0,0.0,0.0,0.0,0.0,0.0,0.0,0.0,0.0,0.0,0.0,0.0,0.0,0.0,0.0,0.0,0.0,0.0,0.0,0.0,0.0,0.0,0.0,0.0,0.0,0.0,0.0,0.0,0.0,0.0,0.0,0.0,0.0,0.0,0.0,0.0,0.0,0.0,0.0,0.0,0.0,0.0,0.0,0.0,0.0,0.0,0.0,0.0,0.0,0.0,0.0,0.0,0.0,0.0,0.0,0.0,0.0,0.0,0.0,0.0,0.0,0.0,0.0,0.0,0.0,0.0,0.0,0.0,0.0,0.0,0.0,0.0,0.0,0.0,0.0,0.0,0.0,0.0,0.0,0.0,0.0,0.0,0.0,0.0,0.0,0.0,0.0,0.0,0.0,0.0,0.0,0.0,0.0,0.0,0.0,0.0,0.0,0.0,0.0,0.0,0.0,0.0,0.0,0.0,0.0,0.0,0.0,0.0,0.0,0.0,0.0,0.0,0.0,0.0,0.0,0.0,0.0,0.0,0.0,0.0,0.0,0.0,0.0,0.0,0.0,0.0,0.0,0.0,0.0,0.0,0.0,0.0,0.0,0.0,0.0,0.0,0.0,0.0,0.0,0.0,0.0,0.0,0.0,0.0,0.0,0.0,0.0,0.0,0.0,0.0,0.0,0.0,0.0,0.0,0.0,0.0,0.0,0.0,0.0,0.0,0.0,0.0,0.0,0.0,0.0,0.0,0.0,0.0,0.0,0.0,0.0,0.0,0.0,0.0,0.0,0.0,0.0,0.0,0.0,0.0,0.0,0.0,0.0,0.0,0.0,0.0,0.0,0.0,0.0,0.0,0.0,0.0,0.0,0.0,0.0,0.0,0.0,0.0,0.0,0.0,0.0,0.0,0.0,0.0,0.0,0.0,0.0,0.0,0.0,0.0,0.0,0.0,0.0,0.0,0.0,0.0,0.0,0.0,0.0,0.0,0.0,0.0,0.0,0.0,0.0,0.0,0.0,0.0,0.0,0.0,0.0,0.0,0.0,0.0,0.0,0.0,0.0,0.0,0.0,0.0,0.0,0.0,0.0,0.0,0.0,0.0,0.0,0.0,0.0,0.0,0.0,0.0,0.0,0.0,0.0,0.0,0.0,0.0,0.0,0.0,0.0,0.0,0.0,0.0,0.0,0.0,0.0,0.0,0.0,0.0,0.0,0.0,0.0,0.0,0.0,0.0,0.0,0.0,0.0,0.0,0.0,0.0,0.0,0.0,0.0,0.0,0.0,0.0,0.0,0.0,0.0,0.0,0.0,0.0,0.0,0.0,0.0,0.0,0.0,0.0,0.0,0.0,0.0,0.0,0.0,0.0,0.0,0.0,0.0,0.0,0.0,0.0,0.0,0.0,0.0,0.0,0.0,0.0,0.0,0.0,0.0,0.0,0.0,0.0,0.0,0.0,0.0,0.0,0.0,0.0,0.0,0.0,0.0,0.0,0.0,0.0,0.0,0.0,0.0,0.0,0.0,0.0,0.0,0.0,0.0,0.0,0.0,0.0,0.0,0.0,0.0,0.0,0.0,0.0,0.0,0.0,0.0,0.0,0.0,0.0,0.0,0.0,0.0,0.0,0.0,0.0,0.0,0.0,0.0,0.0,0.0,0.0,0.0,0.0,0.0,0.0,0.0,0.0,0.0,0.0,0.0,0.0,0.0,0.0,0.0,0.0,0.0,0.0,0.0,0.0,0.0,0.0,0.0,0.0,0.0,0.0,0.0,0.0,0.0,0.0,0.0,0.0,0.0,0.0,0.0,0.0,0.0,0.0,0.0,0.0,0.0,0.0,0.0,0.0,0.0,0.0,0.0,0.0,0.0,0.0,0.0,0.0,0.0,0.0,0.0]}],[{"header":{"parameterUnit":"kt","parameterCategory":2,"dx":1,"dy":1,"la1":29.587661999999998,"la2":31.0,"lo1":-88.76705300000003,"lo2":-86.6583820000003,"nx":115,"ny":88,"refTime":"2022-10-14T06:00:00:Z","depth":0,"parameterNumber":2,"parameterNumberName":"V-component_of_WINDS"},"data":[9.6369,9.654,9.657,9.6622,9.6427,9.5224,9.6013,9.8081,9.7404,9.7705,9.8712,9.8938,9.8938,9.8938,9.8938,9.8938,9.8938,9.8938,9.8938,9.8968,9.8951,9.8911,9.8908,9.8837,9.851,9.8582,9.8839,9.9127,9.9918,9.9275,9.9649,10.1682,10.0098,10.0268,10.1375,10.0907,10.1018,10.2222,10.2932,10.3443,10.4647,10.5228,10.541,10.5775,10.5812,10.5795,10.5742,10.5726,10.5693,10.5746,10.6164,10.7393,10.8879,11.0644,11.1865,11.2803,11.2547,11.2186,11.2455,11.2691,11.2439,11.2475,11.3321,11.4043,11.4043,11.4043,11.4043,11.4043,11.4079,11.4079,11.4079,11.4079,11.4079,11.4079,11.41,11.41,11.416,11.4336,11.455,11.4765,11.4938,11.5049,11.5142,11.516,11.5251,11.5251,11.5251,11.5543,11.693,11.8791,12.0671,12.1929,12.328,12.4139,12.4978,12.4978,12.4978,12.4978,12.4978,12.4978,12.4978,12.4978,12.4978,12.4978,12.4978,12.4978,12.4978,12.4978,12.4978,12.4978,12.4978,12.4978,12.4978,12.4978,12.4978,9.6207,9.6278,9.6524,9.666,9.6585,9.6314,9.6577,9.7141,9.8081,9.8682,9.8764,9.8772,9.8938,9.8938,9.8938,9.8938,9.8938,9.8938,9.8938,9.896,9.8935,9.8871,9.8724,9.8537,9.8426,9.8572,9.9025,9.9587,10.0101,10.0112,10.0297,10.1373,10.1492,10.1127,10.0854,10.0175,9.9641,10.0862,10.1535,10.2234,10.2996,10.379,10.4811,10.5579,10.5975,10.5841,10.5808,10.5742,10.5682,10.5716,10.5839,10.6183,10.7213,11.0093,11.1381,11.1487,11.1211,11.15,11.1697,11.2294,11.2186,11.2403,11.3466,11.3971,11.3971,11.3971,11.3971,11.4007,11.4043,11.4079,11.4079,11.4079,11.4079,11.4079,11.4156,11.4176,11.4296,11.4471,11.4708,11.5011,11.5123,11.5215,11.5251,11.5251,11.5251,11.5251,11.5324,11.547,11.609,11.7988,11.974,12.1127,12.2623,12.3864,12.4869,12.4978,12.4978,12.4978,12.4978,12.4978,12.4978,12.4978,12.4978,12.4978,12.4978,12.4978,12.4978,12.4978,12.4978,12.4978,12.4978,12.4978,12.4978,12.4978,12.4978,9.5297,9.6444,9.7385,9.7816,9.7712,9.6778,9.6982,9.7727,9.7667,9.753,9.7345,9.7457,9.7986,9.8774,9.8907,9.8938,9.8938,9.8938,9.8938,9.8899,9.8865,9.8792,9.8655,9.8492,9.8406,9.8402,9.9011,9.9507,9.9876,10.0213,10.0163,10.0245,9.9197,9.8652,9.8587,9.8223,9.8238,9.9694,9.9797,10.02,10.0654,10.2676,10.4323,10.4841,10.5428,10.5954,10.5837,10.5712,10.5682,10.5696,10.5525,10.5214,10.6182,10.9124,11.0256,10.9911,10.9911,11.0453,11.0541,11.0722,11.0814,11.103,11.1861,11.2707,11.2852,11.3032,11.3032,11.3574,11.3646,11.4079,11.4079,11.4079,11.4079,11.4079,11.4136,11.4273,11.4412,11.4609,11.4861,11.5068,11.5197,11.5269,11.5251,11.5251,11.5251,11.5251,11.5251,11.536,11.5944,11.7222,11.8791,12.0324,12.1966,12.3316,12.4394,12.4759,12.4905,12.4978,12.4978,12.4978,12.4978,12.4978,12.4978,12.4978,12.4978,12.4978,12.4978,12.4978,12.4978,12.4978,12.4978,12.4978,12.4978,12.4978,12.4978,9.3837,9.5779,9.7424,9.8483,9.8642,9.7436,9.7474,9.8115,9.7328,9.6591,9.5769,9.6444,9.7437,9.8137,9.8536,9.8907,9.8922,9.8938,9.8938,9.8899,9.8857,9.8829,9.8698,9.8501,9.8376,9.8364,9.8443,9.8798,9.9225,9.899,9.8745,9.9328,9.9445,9.8553,9.8134,9.7869,9.7651,9.8223,9.8479,9.8785,9.9527,10.1633,10.3138,10.3769,10.4465,10.5124,10.5353,10.5364,10.5629,10.5612,10.5303,10.5038,10.4896,10.6972,10.7781,10.7781,10.8395,10.872,10.9153,10.9947,10.9839,10.9983,11.0525,11.1103,11.1444,11.1697,11.2094,11.2707,11.3249,11.3754,11.4079,11.4079,11.4079,11.4079,11.4079,11.4276,11.4488,11.4708,11.4956,11.5123,11.5251,11.5251,11.5251,11.5251,11.5251,11.5251,11.5251,11.5397,11.5908,11.6273,11.7806,11.9229,12.1017,12.2586,12.3827,12.4431,12.4869,12.4978,12.4978,12.4978,12.4978,12.4978,12.4978,12.4978,12.4978,12.4978,12.4978,12.4978,12.4978,12.4978,12.4978,12.4978,12.4978,12.4978,12.4978,9.1903,9.3736,9.5519,9.7141,9.8617,9.8656,9.7725,9.6517,9.7724,9.6744,9.4732,9.6977,9.7412,9.7066,9.7883,9.849,9.8915,9.8938,9.8938,9.893,9.8903,9.8838,9.8707,9.8501,9.8396,9.8307,9.8338,9.8356,9.8512,9.8667,9.8929,9.9536,9.9914,9.9468,9.8314,9.8101,9.7706,9.7514,9.7528,9.7918,9.9008,9.9629,10.0263,10.1872,10.3197,10.4037,10.433,10.4895,10.553,10.5427,10.5236,10.4878,10.4751,10.5471,10.612,10.6534,10.7184,10.7473,10.8014,10.9278,10.9061,10.9117,10.9839,11.0036,11.0,11.0036,11.1336,11.213,11.2852,11.3393,11.3935,11.4079,11.4079,11.4079,11.416,11.4336,11.455,11.4765,11.5012,11.5179,11.5269,11.5269,11.5251,11.5251,11.5251,11.5251,11.5251,11.5251,11.547,11.547,11.6711,11.8025,11.9776,12.1455,12.2878,12.4229,12.4723,12.4978,12.4978,12.4978,12.4978,12.4978,12.4978,12.4978,12.4978,12.4978,12.4978,12.4978,12.4978,12.4978,12.4978,12.4978,12.4978,12.4978,12.4978,9.1177,9.2074,9.3772,9.5499,9.7123,9.8159,9.7528,9.6145,9.6734,9.5688,9.3506,9.5005,9.5775,9.6084,9.6816,9.7803,9.8735,9.8772,9.89,9.8869,9.8849,9.88,9.8672,9.8529,9.8406,9.8307,9.8263,9.8154,9.8175,9.8527,9.8449,9.8292,9.8381,9.8267,9.8116,9.7877,9.7409,9.7118,9.7001,9.7349,9.8109,9.8916,9.9542,10.0802,10.2911,10.3652,10.4099,10.5106,10.5616,10.5726,10.5236,10.495,10.4986,10.4714,10.5181,10.5415,10.6209,10.6715,10.6967,10.8375,10.7942,10.7672,10.8034,10.8014,10.787,10.8448,10.9892,11.1319,11.2186,11.3016,11.3594,11.4043,11.4043,11.4063,11.422,11.4396,11.4631,11.4805,11.4995,11.5215,11.5251,11.5251,11.5251,11.5251,11.5251,11.5251,11.5251,11.5251,11.5251,11.5251,11.6163,11.7203,11.8791,12.0324,12.2367,12.3973,12.4431,12.4723,12.4869,12.4978,12.4978,12.4978,12.4978,12.4978,12.4978,12.4978,12.4978,12.4978,12.4978,12.4978,12.4978,12.4978,12.4978,12.4978,12.4978,9.0375,9.0992,9.2241,9.3735,9.523,9.5912,9.5856,9.5302,9.6256,9.5235,9.3058,9.3809,9.4707,9.5202,9.5377,9.6541,9.749,9.8207,9.8448,9.8832,9.8852,9.8808,9.8698,9.8603,9.8434,9.8374,9.8294,9.8195,9.8101,9.7873,9.7622,9.7201,9.7439,9.7262,9.7115,9.702,9.7044,9.697,9.6957,9.7118,9.7523,9.8062,9.8381,9.9555,10.1513,10.2815,10.3675,10.4858,10.5727,10.582,10.5337,10.5075,10.5144,10.4805,10.4603,10.4729,10.5415,10.6281,10.6318,10.6679,10.6715,10.6409,10.6318,10.5559,10.5848,10.6643,10.7762,10.9244,11.0439,11.1657,11.2472,11.2942,11.3159,11.3521,11.4086,11.4391,11.4823,11.4956,11.5068,11.5233,11.5251,11.5251,11.5251,11.5251,11.5251,11.5251,11.5251,11.5251,11.5251,11.5251,11.5871,11.6601,11.7915,11.9046,12.1054,12.2951,12.3681,12.4467,12.4832,12.4978,12.4978,12.4978,12.4978,12.4978,12.4978,12.4978,12.4978,12.4978,12.4978,12.4978,12.4978,12.4978,12.4978,12.4978,12.4978,8.9194,9.0683,9.0992,9.1962,9.3035,9.2233,9.2391,9.3791,9.6672,9.6145,9.3431,9.486,9.5013,9.3845,9.3527,9.4855,9.655,9.6629,9.7581,9.8508,9.8868,9.8825,9.875,9.8701,9.8529,9.8433,9.8334,9.8284,9.8116,9.7891,9.7547,9.7165,9.7088,9.6994,9.6968,9.702,9.7062,9.7036,9.701,9.6984,9.6984,9.7315,9.7486,9.833,10.0103,10.1578,10.2889,10.4371,10.5459,10.5841,10.5506,10.5335,10.5091,10.4769,10.4677,10.4603,10.4603,10.4892,10.5109,10.6156,10.6011,10.5271,10.4946,10.5596,10.5993,10.6281,10.7076,10.8108,10.8998,11.0234,11.1362,11.1741,11.214,11.2739,11.3446,11.411,11.461,11.505,11.5142,11.5233,11.5269,11.5251,11.5251,11.5251,11.5251,11.5251,11.5251,11.5251,11.5251,11.5251,11.5543,11.6273,11.7021,11.8006,11.9356,12.1236,12.2258,12.3535,12.4066,12.4613,12.4942,12.4978,12.4978,12.4978,12.4978,12.4978,12.4978,12.4978,12.4978,12.4978,12.4978,12.4978,12.4978,12.4978,12.4978,8.8505,8.8971,8.9108,9.0153,9.143,9.116,9.1066,9.205,9.5088,9.5461,9.4051,9.5192,9.5519,9.481,9.4296,9.4833,9.7599,9.6866,9.7203,9.8739,9.8857,9.8758,9.8655,9.8603,9.8529,9.8501,9.8404,9.8344,9.8246,9.8037,9.7733,9.7437,9.7315,9.7088,9.7034,9.7034,9.7125,9.7139,9.7023,9.6984,9.6984,9.6984,9.6984,9.762,9.898,10.0779,10.2025,10.3528,10.5148,10.5826,10.5808,10.5508,10.5179,10.495,10.4787,10.464,10.4603,10.4603,10.4603,10.5398,10.5289,10.4621,10.4603,10.4856,10.5198,10.5578,10.6319,10.7206,10.7862,10.9313,11.0748,11.0606,11.0915,11.1098,11.1897,11.2899,11.3575,11.4778,11.5105,11.5215,11.5251,11.5251,11.5251,11.5251,11.5251,11.5251,11.5251,11.5251,11.5251,11.5251,11.5433,11.5981,11.6674,11.7368,11.8462,11.9905,12.1183,12.246,12.317,12.3754,12.4175,12.4854,12.4925,12.4978,12.4978,12.4978,12.4978,12.4978,12.4978,12.4978,12.4978,12.4978,12.4978,12.4978,12.4978,8.819,8.813,8.8184,8.8865,8.9796,8.9994,9.0225,9.0827,9.2911,9.395,9.3764,9.4547,9.5173,9.4875,9.4128,9.4856,9.7032,9.6302,9.7052,9.8591,9.8652,9.8564,9.8574,9.852,9.8548,9.8481,9.8462,9.8451,9.8354,9.808,9.7869,9.7606,9.7265,9.7165,9.7165,9.7075,9.7099,9.7165,9.7088,9.6984,9.6984,9.6984,9.702,9.7081,9.8689,10.0024,10.0968,10.2371,10.3484,10.4081,10.3827,10.3621,10.3458,10.3864,10.4082,10.4604,10.4603,10.4603,10.4603,10.4603,10.4603,10.4603,10.4603,10.4603,10.4603,10.4659,10.5401,10.6451,10.6707,10.745,10.9265,10.9156,10.9483,10.9664,11.0537,11.1537,11.2664,11.3866,11.4849,11.4959,11.5251,11.5251,11.5251,11.5251,11.5251,11.5251,11.5251,11.5251,11.5251,11.5251,11.5323,11.5853,11.6218,11.6747,11.7459,11.87,11.9962,12.1022,12.1807,12.2665,12.3706,12.4529,12.4783,12.4978,12.4978,12.4978,12.4978,12.4978,12.4978,12.4978,12.4978,12.4978,12.4978,12.4978,12.4978,8.8256,8.8266,8.8276,8.8227,8.8289,8.8259,8.9049,9.0185,9.0784,9.1766,9.3091,9.353,9.3566,9.3388,9.3222,9.4277,9.5658,9.569,9.6506,9.8071,9.8445,9.8389,9.8417,9.8436,9.8463,9.8423,9.8404,9.8394,9.8354,9.8122,9.7824,9.7535,9.7227,9.7036,9.7474,9.7278,9.7101,9.7047,9.702,9.6944,9.6944,9.6931,9.6968,9.7226,9.833,9.9265,10.0038,10.1212,10.194,10.236,10.2041,10.1362,10.1259,10.1778,10.3304,10.4423,10.4567,10.4603,10.4603,10.4603,10.4603,10.4603,10.4603,10.4603,10.464,10.4769,10.524,10.5548,10.5635,10.586,10.6307,10.698,10.7636,10.8274,10.9387,11.0461,11.1607,11.2825,11.3864,11.4375,11.4813,11.5251,11.5251,11.5251,11.5251,11.5251,11.5251,11.5251,11.5251,11.5305,11.5396,11.5687,11.5849,11.6269,11.6613,11.7706,11.8638,11.952,12.0473,12.1534,12.2596,12.3676,12.444,12.4925,12.4998,12.5036,12.5017,12.4978,12.4978,12.4978,12.4978,12.4978,12.4978,12.4978,12.4978,8.8266,8.8276,8.8269,8.8194,8.8175,8.8232,8.8511,8.8883,8.9015,8.9985,9.1654,9.3151,9.3563,9.3109,9.2639,9.3376,9.494,9.4948,9.6077,9.7179,9.8077,9.8262,9.8202,9.824,9.8347,9.8257,9.8257,9.8354,9.8344,9.8185,9.7978,9.7722,9.7315,9.7049,9.7165,9.7062,9.7062,9.7036,9.6981,9.6847,9.6847,9.6847,9.6884,9.7045,9.7507,9.832,9.9301,9.9767,10.0511,10.087,10.0809,9.9739,9.9503,10.0374,10.2995,10.4117,10.4603,10.4603,10.4603,10.4603,10.4603,10.4603,10.4603,10.4603,10.4659,10.4823,10.4968,10.4986,10.5163,10.5462,10.5842,10.6066,10.647,10.6972,10.8071,10.9019,11.0236,11.1803,11.2788,11.3864,11.4667,11.5251,11.5251,11.5251,11.5251,11.5251,11.5251,11.5251,11.5305,11.5359,11.5449,11.5574,11.5697,11.5764,11.585,11.6707,11.7622,11.8504,11.9402,12.0445,12.1196,12.2686,12.3567,12.4569,12.5094,12.5058,12.5019,12.4998,12.4978,12.4978,12.4978,12.4978,12.4978,12.4978,12.4978,8.77,8.8239,8.826,8.8213,8.8156,8.8223,8.8213,8.8184,8.8146,8.8816,8.9861,9.1798,9.2688,9.2608,9.2148,9.3405,9.4576,9.3679,9.4542,9.5891,9.6872,9.7032,9.7447,9.7596,9.8116,9.8122,9.8164,9.8226,9.8314,9.8143,9.8112,9.7913,9.7413,9.7165,9.6957,9.6918,9.6901,9.6874,9.6816,9.6734,9.6748,9.6761,9.6803,9.6816,9.6928,9.762,9.8394,9.8541,9.8953,9.927,9.9359,9.8141,9.7147,9.9064,10.1692,10.4135,10.3737,10.3989,10.4351,10.4603,10.4603,10.4603,10.4603,10.4603,10.4603,10.4878,10.5022,10.5093,10.5233,10.5476,10.5679,10.5665,10.5685,10.5931,10.6585,10.748,10.8847,11.0672,11.1966,11.3226,11.4193,11.4959,11.5068,11.5141,11.5141,11.5251,11.5251,11.5269,11.5341,11.5431,11.5539,11.5627,11.5906,11.5988,11.6134,11.6338,11.6582,11.7443,11.8325,11.8609,11.886,12.0657,12.3217,12.4483,12.5247,12.5116,12.5019,12.4998,12.4978,12.4978,12.4978,12.4978,12.4978,12.4978,12.4978,8.6779,8.809,8.8064,8.8035,8.812,8.8222,8.8203,8.819,8.8113,8.8244,8.8667,8.9928,9.0809,9.1068,9.1956,9.2734,9.3157,9.2907,9.3174,9.3647,9.4215,9.5005,9.5436,9.6327,9.727,9.7515,9.7425,9.775,9.8216,9.8069,9.7968,9.7869,9.7499,9.729,9.7125,9.6816,9.6622,9.6678,9.6664,9.6636,9.6636,9.6706,9.6761,9.6779,9.6901,9.697,9.702,9.7228,9.744,9.7215,9.727,9.6416,9.6587,9.7908,10.0172,10.2563,10.2834,10.3195,10.3737,10.4062,10.4351,10.4531,10.4603,10.4603,10.4622,10.4968,10.5057,10.504,10.5268,10.5491,10.5615,10.5649,10.5662,10.5855,10.6127,10.6748,10.768,10.9521,11.1,11.2496,11.3481,11.412,11.4412,11.4375,11.4375,11.5141,11.5251,11.5251,11.5341,11.552,11.5627,11.5786,11.6024,11.6256,11.636,11.6434,11.6485,11.7094,11.7535,11.7359,11.7292,11.9886,12.2807,12.3969,12.4794,12.4953,12.5002,12.5039,12.5056,12.5017,12.4978,12.4978,12.4978,12.4978,12.4978,8.6146,8.6453,8.6406,8.7076,8.8157,8.8232,8.8297,8.8463,8.8463,8.8472,8.863,8.8809,8.906,8.9299,8.9889,9.0841,9.1512,9.1587,9.2099,9.275,9.3316,9.3413,9.3511,9.3696,9.4763,9.5918,9.6041,9.6847,9.76,9.8005,9.7924,9.7913,9.7511,9.7228,9.7047,9.6706,9.6481,9.6588,9.6602,9.656,9.6517,9.6617,9.6673,9.6706,9.6789,9.6888,9.6957,9.7007,9.6928,9.6761,9.6608,9.6523,9.6584,9.7267,9.9045,10.0739,10.1841,10.213,10.2365,10.3051,10.3502,10.4134,10.4603,10.4603,10.464,10.4842,10.5004,10.4932,10.5233,10.5425,10.5513,10.5564,10.5646,10.5729,10.5762,10.5981,10.6529,10.8081,10.9577,11.0854,11.1912,11.2806,11.3134,11.3299,11.4047,11.4959,11.5251,11.5251,11.5413,11.5626,11.5712,11.5798,11.6088,11.6333,11.6392,11.6445,11.646,11.665,11.676,11.6776,11.6981,11.8983,12.1514,12.2975,12.4006,12.4281,12.4534,12.4861,12.5116,12.5056,12.4978,12.4978,12.4978,12.4978,12.4978,8.3734,8.3736,8.5159,8.6218,8.7045,8.7847,8.825,8.8297,8.8408,8.8461,8.8452,8.8417,8.8452,8.8626,8.8608,8.9174,8.9822,8.987,9.0225,9.0685,9.1343,9.1619,9.1489,9.2069,9.2708,9.4011,9.4748,9.5903,9.7231,9.779,9.7858,9.7813,9.7511,9.7203,9.7047,9.6622,9.6488,9.6452,9.643,9.6401,9.6408,9.6459,9.6537,9.6608,9.6678,9.6807,9.6928,9.6954,9.6847,9.6816,9.6734,9.6664,9.6722,9.6866,9.7866,9.9493,10.0287,10.0269,10.0469,10.157,10.2509,10.3448,10.4206,10.4495,10.464,10.4787,10.495,10.4805,10.5163,10.5354,10.5408,10.5511,10.5646,10.5712,10.5762,10.5908,10.62,10.7278,10.8117,10.9139,11.0124,11.0562,11.0964,11.193,11.3261,11.4101,11.4557,11.4685,11.4992,11.5425,11.5712,11.585,11.6117,11.6397,11.6429,11.6429,11.6429,11.6397,11.6507,11.6549,11.6717,11.7527,11.9599,12.1301,12.2628,12.3511,12.3988,12.4133,12.4167,12.4546,12.4978,12.4978,12.4978,12.4978,12.4978,8.0694,8.0919,8.3856,8.5217,8.5632,8.7033,8.7738,8.7897,8.8212,8.8279,8.8406,8.8488,8.856,8.8577,8.8516,8.8534,8.8663,8.8586,8.8546,8.8833,8.945,8.9781,8.9868,9.1014,9.1334,9.2624,9.3878,9.5479,9.6193,9.72,9.7676,9.7711,9.7487,9.7265,9.7099,9.6793,9.6545,9.632,9.629,9.629,9.629,9.6372,9.6488,9.6574,9.6594,9.6706,9.6847,9.6857,9.6775,9.6761,9.677,9.6701,9.648,9.5847,9.7158,9.8185,9.8351,9.7464,9.8121,9.9801,10.139,10.2617,10.343,10.4225,10.4605,10.4805,10.4824,10.4659,10.5233,10.5491,10.5425,10.5542,10.5712,10.5762,10.5762,10.5762,10.5872,10.6804,10.7169,10.8044,10.8244,10.8555,10.8954,11.0724,11.2366,11.3225,11.3918,11.4119,11.4464,11.5138,11.5555,11.5796,11.6117,11.6312,11.6413,11.6381,11.6365,11.6317,11.6305,11.6293,11.6563,11.709,11.8699,11.9987,12.1222,12.2258,12.2483,12.2725,12.3126,12.3708,12.4542,12.4832,12.4832,12.4978,12.4978,7.9424,8.0573,8.126,8.3007,8.5157,8.577,8.6709,8.7863,8.8157,8.8378,8.8637,8.8406,8.8361,8.849,8.8344,8.8229,8.8325,8.8251,8.8106,8.8083,8.8306,8.8157,8.7918,8.8289,8.939,9.1221,9.2514,9.2883,9.415,9.591,9.7154,9.7535,9.7265,9.7101,9.7214,9.6994,9.6803,9.6608,9.6545,9.6488,9.6401,9.6401,9.6408,9.6437,9.6474,9.6523,9.6669,9.6678,9.6687,9.6636,9.6552,9.6459,9.6254,9.5951,9.6007,9.6334,9.5925,9.6367,9.7057,9.8484,9.9765,10.1516,10.2419,10.3503,10.4226,10.4516,10.4642,10.4896,10.5268,10.544,10.5496,10.5665,10.5746,10.5762,10.5762,10.5799,10.5908,10.6091,10.6529,10.6529,10.6419,10.6764,10.7179,10.8657,11.0132,11.1029,11.2157,11.2486,11.3948,11.4697,11.5279,11.5627,11.6068,11.6264,11.6397,11.6365,11.6231,11.6203,11.6137,11.6154,11.644,11.6689,11.7879,11.9203,12.0221,12.0343,12.0659,12.0887,12.1498,12.2412,12.3833,12.4267,12.3664,12.3645,12.4212,7.8569,7.9258,8.0134,8.1418,8.3017,8.4581,8.5918,8.6831,8.7763,8.8334,8.8468,8.8422,8.836,8.8353,8.8259,8.8182,8.8133,8.8086,8.8012,8.7909,8.7835,8.7646,8.7474,8.7247,8.8276,8.9355,9.0818,9.1837,9.3361,9.5206,9.6391,9.7178,9.7227,9.7073,9.715,9.7086,9.6928,9.6793,9.6678,9.6566,9.6494,9.6357,9.6372,9.6372,9.6372,9.643,9.6523,9.6588,9.6537,9.6537,9.6394,9.6283,9.617,9.5904,9.5652,9.5495,9.5462,9.5722,9.6116,9.7112,9.7978,9.9819,10.0722,10.1913,10.3141,10.3792,10.3991,10.4748,10.5301,10.5561,10.5547,10.5699,10.5746,10.5762,10.5762,10.5762,10.5762,10.5762,10.5872,10.5945,10.5998,10.6087,10.608,10.682,10.8002,10.9076,11.0203,11.1684,11.3332,11.4082,11.4758,11.531,11.6051,11.6231,11.6376,11.6264,11.6134,11.6088,11.6021,11.6104,11.6281,11.6371,11.7245,11.8157,11.8107,11.8195,11.8585,11.9209,11.9881,12.0638,12.1498,12.2099,12.2023,12.244,12.317,7.7924,7.7847,7.9349,8.0106,8.071,8.3207,8.4702,8.5496,8.6905,8.78,8.8158,8.8323,8.8242,8.8176,8.827,8.8184,8.7992,8.7867,8.7803,8.7814,8.776,8.7727,8.7504,8.7304,8.721,8.7566,8.9207,9.1317,9.2981,9.4322,9.5245,9.6612,9.6636,9.689,9.699,9.7086,9.7086,9.6941,9.6748,9.6608,9.6509,9.6372,9.6275,9.6328,9.629,9.635,9.6474,9.6445,9.6408,9.648,9.635,9.6267,9.614,9.5837,9.5568,9.5389,9.5422,9.5324,9.541,9.6281,9.6931,9.7653,9.8718,10.025,10.1621,10.2326,10.2958,10.4038,10.4732,10.5629,10.5564,10.5679,10.5762,10.5762,10.5762,10.5762,10.5762,10.5762,10.5762,10.5762,10.5779,10.5812,10.6032,10.651,10.7286,10.8025,10.934,11.0917,11.196,11.2673,11.3753,11.481,11.5737,11.5974,11.6281,11.6084,11.615,11.6121,11.6051,11.6117,11.6187,11.6191,11.6141,11.6672,11.6786,11.6826,11.7113,11.7493,11.8096,11.8605,11.912,11.9651,12.0802,12.2075,12.2659,7.7623,7.7628,7.7881,7.8839,8.0081,8.0863,8.2615,8.4853,8.5596,8.6637,8.7688,8.7718,8.7931,8.8031,8.7835,8.7755,8.7771,8.7672,8.7617,8.7624,8.7606,8.7583,8.7524,8.7386,8.7282,8.7466,8.9027,9.0117,9.1218,9.2095,9.3854,9.5307,9.5366,9.6008,9.7031,9.7278,9.7201,9.7007,9.6775,9.6659,9.6588,9.6357,9.6216,9.6246,9.6186,9.6231,9.6312,9.6275,9.6261,9.6275,9.6267,9.6237,9.6125,9.5852,9.5632,9.57,9.5357,9.5188,9.5196,9.5396,9.6118,9.7365,9.7743,9.8641,10.0192,10.1278,10.1673,10.2389,10.3429,10.5003,10.5659,10.5709,10.5726,10.5762,10.5762,10.5762,10.5762,10.5762,10.5762,10.5762,10.5779,10.5775,10.5922,10.6166,10.6474,10.7044,10.8602,10.9866,11.0285,11.1015,11.2558,11.3782,11.4576,11.494,11.5597,11.567,11.6255,11.6264,11.6166,11.6248,11.6333,11.6187,11.5968,11.5951,11.5951,11.6098,11.6351,11.6732,11.6851,11.6701,11.731,11.828,11.976,12.1529,12.2752,7.7549,7.7549,7.7549,7.8038,7.8822,7.9797,8.1089,8.2678,8.4357,8.5733,8.6522,8.7464,8.7697,8.7803,8.7668,8.7524,8.7512,8.7446,8.7398,8.7421,8.7398,8.7398,8.7409,8.7386,8.7377,8.745,8.8512,8.9489,9.0327,9.1554,9.2661,9.3793,9.5269,9.5661,9.5883,9.6683,9.6977,9.6907,9.6793,9.6664,9.6631,9.6416,9.6254,9.6037,9.6006,9.6073,9.6207,9.6089,9.6089,9.617,9.6237,9.611,9.5858,9.5889,9.5748,9.5556,9.5258,9.5224,9.5071,9.5107,9.5343,9.6118,9.6118,9.7177,9.8564,9.9413,9.9792,10.0513,10.1731,10.3365,10.4379,10.5032,10.5726,10.5762,10.5762,10.5762,10.5762,10.5762,10.5762,10.5762,10.5762,10.5775,10.5906,10.6197,10.6447,10.6613,10.8097,10.8602,10.8985,10.9721,11.1281,11.2474,11.3267,11.405,11.4766,11.5466,11.5945,11.625,11.6206,11.6328,11.6381,11.6134,11.5897,11.5897,11.5968,11.5934,11.5991,11.625,11.6509,11.6352,11.6467,11.7111,11.8153,11.9522,12.1054,7.7549,7.7549,7.7549,7.7549,7.777,7.8922,7.9797,8.051,8.2956,8.4118,8.5018,8.6473,8.6996,8.697,8.738,8.7535,8.7421,8.7398,8.7304,8.7281,8.7245,8.7197,8.7161,8.7245,8.7293,8.7423,8.7797,8.8571,8.9526,9.0431,9.1431,9.2102,9.3632,9.4774,9.4292,9.5486,9.6455,9.6476,9.6628,9.6571,9.6588,9.6445,9.6173,9.5909,9.5909,9.6006,9.614,9.6043,9.596,9.6028,9.5966,9.5795,9.5648,9.5779,9.5668,9.5324,9.531,9.5241,9.5088,9.5035,9.5071,9.5215,9.5324,9.5644,9.7097,9.7531,9.817,9.864,9.9994,10.1453,10.2737,10.4302,10.5178,10.5653,10.5762,10.5762,10.5762,10.5762,10.5762,10.5762,10.5779,10.5792,10.5922,10.6166,10.6337,10.6444,10.6911,10.7375,10.792,10.851,10.9747,11.0932,11.1692,11.2444,11.3329,11.4382,11.5281,11.606,11.6229,11.6445,11.6365,11.6203,11.6101,11.6051,11.6001,11.6004,11.5988,11.6228,11.6321,11.6052,11.593,11.6723,11.7349,11.7678,11.8937,7.7549,7.7549,7.7549,7.7549,7.7586,7.778,7.8712,7.9949,8.0734,8.1592,8.2978,8.4563,8.5525,8.5479,8.7003,8.7602,8.7569,8.749,8.7409,8.7269,8.7137,8.7013,8.6874,8.6976,8.7076,8.7306,8.7572,8.8004,8.8465,8.842,8.9141,9.039,9.0932,9.1504,9.2512,9.3935,9.4684,9.4848,9.541,9.5822,9.5931,9.5955,9.5791,9.5623,9.5794,9.614,9.614,9.6104,9.5997,9.5675,9.5353,9.537,9.5584,9.5271,9.5241,9.531,9.5208,9.5105,9.5035,9.5035,9.5035,9.5035,9.5035,9.5196,9.5627,9.66,9.6909,9.6262,9.8571,10.017,10.1376,10.2603,10.3917,10.5215,10.558,10.5726,10.5762,10.5762,10.5762,10.5762,10.5762,10.5762,10.5877,10.6034,10.6322,10.6466,10.6668,10.7007,10.7309,10.764,10.8414,10.9445,11.0145,11.086,11.2024,11.3203,11.4323,11.5613,11.576,11.5708,11.5629,11.6112,11.6137,11.6219,11.6137,11.6108,11.6091,11.6038,11.6095,11.5954,11.5832,11.6445,11.7035,11.7147,11.766,7.7549,7.7549,7.7549,7.7549,7.7549,7.7549,7.7975,7.8701,7.9596,8.048,8.1548,8.3769,8.4934,8.5105,8.6579,8.7281,8.7209,8.7209,8.7197,8.7112,8.7051,8.6887,8.6771,8.6836,8.6951,8.7113,8.7444,8.7716,8.7893,8.8668,8.8771,8.9044,9.0419,9.0953,9.0715,9.2036,9.2814,9.2808,9.3173,9.3499,9.3688,9.4289,9.4548,9.4584,9.5498,9.5966,9.5904,9.5852,9.5779,9.554,9.5274,9.5138,9.5271,9.5138,9.5105,9.5191,9.5157,9.5035,9.5035,9.5035,9.5035,9.5035,9.5035,9.5035,9.5215,9.5714,9.6058,9.5227,9.6624,9.8618,10.0261,10.0632,10.18,10.3735,10.4392,10.4392,10.4355,10.5105,10.5689,10.5762,10.5779,10.5795,10.5873,10.6134,10.6343,10.6481,10.6573,10.6661,10.6719,10.6793,10.7198,10.7972,10.8709,10.9593,11.0698,11.1324,11.2223,11.4139,11.4581,11.4397,11.4808,11.5729,11.5992,11.6349,11.6273,11.6191,11.6154,11.6101,11.6137,11.6088,11.5917,11.6089,11.6223,11.6356,11.7146,7.7549,7.7549,7.7549,7.7549,7.7549,7.7549,7.7549,7.7744,7.8922,7.9338,7.999,8.2432,8.3429,8.3753,8.5505,8.6451,8.65,8.6806,8.7014,8.7026,8.6887,8.6745,8.6732,8.6771,8.6823,8.6926,8.7316,8.7546,8.7694,8.8547,8.8538,8.7629,8.9491,8.9907,8.9128,9.0315,9.094,9.0858,9.1238,9.157,9.169,9.2595,9.3104,9.3349,9.4548,9.5057,9.5041,9.5441,9.5471,9.4882,9.4902,9.5035,9.5052,9.5035,9.5035,9.5035,9.5071,9.5035,9.5035,9.5035,9.5035,9.5035,9.5035,9.5035,9.5071,9.5294,9.5343,9.5337,9.558,9.6929,9.8818,9.9047,9.972,10.1707,10.1999,10.2181,10.2749,10.3824,10.4753,10.5025,10.4708,10.5134,10.5663,10.6291,10.6444,10.6505,10.6624,10.6719,10.6719,10.6756,10.6756,10.7272,10.764,10.8451,10.9165,10.9571,11.0602,11.2629,11.3329,11.3218,11.4029,11.5318,11.6129,11.635,11.6112,11.6264,11.6248,11.6231,11.6268,11.6268,11.6154,11.6021,11.5974,11.5857,11.6668,7.7523,7.7549,7.7549,7.7549,7.7549,7.7549,7.7549,7.7549,7.777,7.788,7.8175,7.9968,8.0631,8.1191,8.3696,8.4867,8.5103,8.6206,8.6733,8.6458,8.651,8.6381,8.6434,8.6527,8.668,8.685,8.7174,8.7281,8.7318,8.7599,8.7247,8.7051,8.7492,8.7259,8.7536,8.8666,8.9458,8.9457,9.0474,9.1033,9.1041,9.129,9.1813,9.3108,9.3399,9.3514,9.3625,9.4543,9.4662,9.3434,9.4071,9.4621,9.4946,9.5035,9.5035,9.5035,9.5035,9.5035,9.5035,9.5035,9.5035,9.5035,9.5035,9.5035,9.5052,9.5291,9.5475,9.5552,9.5738,9.6122,9.6775,9.7587,9.8442,9.8844,9.9099,9.9756,10.0762,10.1347,10.2328,10.3159,10.2728,10.2761,10.571,10.6373,10.6558,10.6595,10.6654,10.6705,10.6719,10.6719,10.6719,10.6793,10.694,10.7677,10.8377,10.8782,10.9482,11.1229,11.215,11.2408,11.3108,11.5023,11.6387,11.6092,11.5897,11.6208,11.6355,11.636,11.6397,11.6381,11.6301,11.624,11.6091,11.5852,11.6154,7.607,7.6218,7.7154,7.7549,7.7549,7.7549,7.7528,7.7474,7.7426,7.7426,7.7736,7.9151,7.9815,8.0281,8.202,8.2867,8.295,8.4551,8.4696,8.3812,8.4554,8.5102,8.5172,8.6039,8.664,8.6693,8.6889,8.7014,8.7063,8.7173,8.7174,8.6938,8.6951,8.6874,8.6776,8.7278,8.7584,8.7604,8.8103,8.8262,8.836,8.9018,8.973,9.0333,9.1202,9.1644,9.1747,9.2209,9.1686,9.0484,9.1312,9.258,9.3591,9.4529,9.5035,9.5035,9.5035,9.5018,9.5035,9.5035,9.5035,9.5035,9.5035,9.5035,9.5121,9.5389,9.5552,9.568,9.5883,9.6104,9.6222,9.6821,9.704,9.7092,9.7128,9.7785,9.9209,10.0298,10.1258,10.1555,10.1541,10.2593,10.4408,10.5667,10.6676,10.6683,10.6712,10.6719,10.6719,10.6719,10.6719,10.6719,10.6719,10.7051,10.764,10.8119,10.8598,10.9666,11.0787,11.1192,11.1744,11.366,11.4913,11.4455,11.4729,11.4913,11.6424,11.6424,11.646,11.6408,11.636,11.6333,11.6252,11.5984,11.5818,7.4764,7.5354,7.6439,7.7091,7.7512,7.7549,7.7495,7.7372,7.7361,7.735,7.7515,7.8428,7.8907,7.9238,8.045,8.1047,8.1093,8.2017,8.2041,8.1384,8.2727,8.3737,8.4306,8.5358,8.6099,8.646,8.6758,8.6862,8.6836,8.7014,8.7076,8.6887,8.6836,8.6706,8.6493,8.6516,8.6448,8.6407,8.6379,8.6351,8.6363,8.7201,8.7971,8.8524,8.9361,8.959,8.9282,8.9088,8.8696,8.8262,8.9077,9.0377,9.2038,9.3935,9.4765,9.4385,9.4349,9.4457,9.491,9.5035,9.5035,9.5035,9.5035,9.5035,9.5105,9.5402,9.5616,9.558,9.5951,9.6237,9.6237,9.6237,9.631,9.6237,9.6237,9.6763,9.7749,9.8682,9.9589,10.0136,10.0017,10.0892,10.2852,10.5476,10.6425,10.6042,10.5858,10.6226,10.6572,10.6719,10.6719,10.6719,10.6719,10.6867,10.7125,10.7419,10.7714,10.8303,10.893,10.9298,10.9961,11.1177,11.195,11.2319,11.2887,11.3845,11.5687,11.646,11.646,11.6424,11.6408,11.6392,11.6392,11.6284,11.6108,7.3622,7.4912,7.5207,7.6033,7.7265,7.7317,7.7374,7.7335,7.7339,7.7273,7.722,7.7271,7.7431,7.7614,7.8889,7.9499,7.9463,7.956,7.9449,7.9486,8.0982,8.2442,8.3732,8.4037,8.4851,8.6237,8.6648,8.6672,8.6547,8.6771,8.6836,8.6719,8.6693,8.6614,8.6502,8.6452,8.6379,8.6197,8.6155,8.6126,8.6134,8.6113,8.6882,8.8211,8.8282,8.7624,8.6242,8.6006,8.6601,8.7757,8.8009,8.8788,9.0341,9.3013,9.4224,9.2977,9.2724,9.3482,9.4602,9.4818,9.4782,9.4818,9.4982,9.5035,9.5121,9.5402,9.56,9.5584,9.5904,9.6237,9.6237,9.6237,9.6237,9.6237,9.6237,9.6237,9.6383,9.6347,9.6978,9.8319,9.7806,9.8085,10.1315,10.4274,10.5467,10.4656,10.4384,10.4826,10.6056,10.6351,10.6594,10.6668,10.6719,10.6719,10.6719,10.6719,10.6778,10.6926,10.7456,10.7824,10.8561,10.8745,10.9593,11.0366,11.0934,11.215,11.3955,11.5355,11.5539,11.646,11.646,11.646,11.6397,11.6354,11.6244,7.0407,7.1954,7.3069,7.447,7.5913,7.5903,7.6347,7.7192,7.7234,7.7225,7.7167,7.7097,7.7073,7.7254,7.7599,7.7807,7.777,7.7771,7.7722,7.7892,7.934,8.0362,8.0982,8.1968,8.3305,8.4718,8.5029,8.5601,8.6383,8.661,8.6624,8.6583,8.6583,8.6479,8.6407,8.6393,8.6273,8.6155,8.6148,8.6054,8.5989,8.5967,8.625,8.6693,8.6545,8.6216,8.5923,8.5629,8.5864,8.6261,8.6333,8.6586,8.7308,9.0124,9.1641,9.1207,9.1135,9.1424,9.193,9.2904,9.3482,9.3518,9.4385,9.5035,9.5088,9.5455,9.5568,9.56,9.5904,9.6237,9.6237,9.6237,9.6237,9.6237,9.6237,9.6237,9.6237,9.6237,9.6553,9.6986,9.6679,9.7556,9.9771,10.2031,10.2948,10.2801,10.2653,10.3353,10.473,10.5172,10.543,10.6447,10.6646,10.6719,10.6388,10.6535,10.6742,10.6778,10.7161,10.7125,10.7346,10.7198,10.753,10.8303,10.9261,11.0492,11.1929,11.3513,11.4876,11.6166,11.5987,11.5497,11.607,11.6174,11.6236,6.8491,6.9596,7.118,7.2819,7.4225,7.4216,7.4997,7.6236,7.6277,7.656,7.7014,7.7028,7.7028,7.7099,7.7028,7.7004,7.7004,7.7004,7.7004,7.7101,7.8002,7.8805,7.934,8.0276,8.1663,8.3062,8.3268,8.4071,8.5531,8.6206,8.6475,8.6502,8.6425,8.6379,8.6282,8.6217,8.6104,8.5917,8.5902,8.5844,8.5791,8.5776,8.574,8.574,8.5575,8.5559,8.5776,8.5635,8.5523,8.5523,8.5523,8.5523,8.5755,8.7524,8.886,8.9438,8.9562,8.9799,9.0377,9.1316,9.1893,9.1966,9.2832,9.343,9.4146,9.4569,9.5051,9.5518,9.5966,9.6186,9.6237,9.6237,9.6237,9.6237,9.6237,9.6237,9.6237,9.6237,9.6237,9.6246,9.6452,9.7017,9.8277,9.9371,10.0296,10.0885,10.1033,10.1769,10.3072,10.4053,10.4716,10.5651,10.6314,10.6447,10.5835,10.6019,10.6719,10.6683,10.6719,10.6793,10.6793,10.6756,10.6719,10.7603,10.904,11.0182,11.0351,11.1883,11.2774,11.393,11.3993,11.3903,11.5318,11.5018,11.539,6.7809,6.8113,6.9596,7.1159,7.2551,7.2567,7.3313,7.4546,7.4535,7.5307,7.6468,7.67,7.6773,7.6554,7.6627,7.6858,7.6809,7.6919,7.7004,7.7004,7.7028,7.7795,7.9157,7.923,8.0021,8.148,8.1564,8.2367,8.4071,8.5409,8.6283,8.6329,8.6306,8.6217,8.5894,8.5989,8.5866,8.5397,8.5445,8.5539,8.5539,8.5322,8.5126,8.5271,8.5226,8.5247,8.5508,8.5523,8.5559,8.5523,8.5523,8.5523,8.5523,8.5632,8.639,8.7689,8.789,8.8524,8.9647,9.0076,9.0253,9.0289,9.0578,9.1099,9.2504,9.2938,9.3796,9.5504,9.5523,9.5711,9.5799,9.5544,9.5617,9.5836,9.6018,9.6091,9.6164,9.6237,9.6237,9.6246,9.6496,9.6842,9.7028,9.6984,9.8002,9.8983,9.9412,10.0001,10.1475,10.3022,10.3795,10.4362,10.5283,10.5835,10.409,10.4863,10.613,10.6388,10.6351,10.6756,10.6719,10.6719,10.6719,10.7198,10.8377,10.9136,10.9416,11.0076,11.1072,11.1403,11.1518,11.2232,11.3515,11.3593,11.4009,6.7761,6.7864,6.8333,6.9435,7.0829,7.0667,7.1478,7.284,7.2836,7.3047,7.3549,7.468,7.4534,7.3695,7.4669,7.5143,7.5301,7.6408,7.7004,7.7004,7.7004,7.7162,7.7576,7.7612,7.844,7.9716,7.9836,8.0636,8.2176,8.3657,8.4329,8.4575,8.5616,8.5502,8.4394,8.5431,8.5256,8.4073,8.4912,8.5453,8.5183,8.3217,8.2544,8.3538,8.356,8.41,8.5319,8.5355,8.5437,8.5523,8.5523,8.5523,8.5523,8.5344,8.5493,8.6112,8.5787,8.569,8.612,8.7576,8.8417,8.8541,8.9699,9.061,9.0951,9.1234,9.2147,9.3609,9.3087,9.2981,9.3544,9.3171,9.3244,9.4245,9.4391,9.496,9.5945,9.6237,9.6173,9.6342,9.6467,9.6718,9.6951,9.702,9.7131,9.767,9.7768,9.8247,9.9854,10.0591,10.1401,10.2432,10.3942,10.4141,10.2874,10.3906,10.4804,10.5209,10.5983,10.6484,10.6719,10.6719,10.6719,10.6756,10.7125,10.764,10.792,10.8789,10.9804,10.976,11.0295,11.1291,11.1839,11.2663,11.3037,6.7702,6.777,6.7711,6.8113,6.8659,6.8469,6.9374,7.0911,7.089,7.13,7.2023,7.1971,7.1584,7.095,7.2526,7.3737,7.4463,7.5483,7.6298,7.6955,7.6932,7.6932,7.6955,7.6895,7.7333,7.8195,7.8206,7.8944,8.0334,8.1236,8.233,8.3472,8.4488,8.4764,8.4365,8.4713,8.4314,8.3168,8.3397,8.3821,8.4027,8.1763,8.0876,8.1824,8.1774,8.224,8.3206,8.3329,8.3308,8.3303,8.3889,8.393,8.3247,8.4134,8.4837,8.5036,8.4617,8.4296,8.4349,8.5457,8.6177,8.6125,8.7371,8.8393,8.8933,8.9377,8.9926,9.077,9.0364,9.0626,9.1961,9.1741,9.1697,9.2478,9.277,9.3098,9.4193,9.4741,9.5172,9.5326,9.6093,9.6732,9.683,9.6941,9.7007,9.6984,9.702,9.7339,9.8283,9.908,9.9854,10.0848,10.188,10.2064,10.1401,10.258,10.3537,10.3721,10.4495,10.5047,10.5047,10.5489,10.6668,10.6719,10.6794,10.6779,10.6653,10.7522,10.7975,10.8048,10.8738,10.919,11.0128,11.0815,11.0668,6.7533,6.7533,6.7385,6.7074,6.6721,6.6439,6.7232,6.8628,6.8736,6.9774,7.0894,6.913,6.842,6.8906,7.016,7.1718,7.3396,7.3564,7.4499,7.6153,7.636,7.6579,7.6907,7.6822,7.676,7.6796,7.6808,7.7483,7.864,7.8713,8.0171,8.2642,8.3098,8.3801,8.4783,8.3967,8.328,8.2977,8.1278,8.0974,8.1933,8.044,7.973,8.0194,7.9991,8.0012,8.0619,8.0425,8.0364,8.0293,8.1394,8.1325,8.0246,8.2118,8.3718,8.4261,8.37,8.3436,8.3401,8.3631,8.386,8.3967,8.4556,8.5412,8.6695,8.7325,8.7509,8.7616,8.7741,8.8611,9.0378,9.0641,9.0677,9.0969,9.1085,9.1186,9.1624,9.2624,9.3478,9.3493,9.509,9.6337,9.6004,9.6553,9.6934,9.6984,9.6984,9.7094,9.7376,9.8247,9.9154,9.9338,9.967,9.9743,9.9707,10.1401,10.2248,10.1917,10.258,10.2874,10.2874,10.4163,10.6263,10.5622,10.6087,10.6234,10.6329,10.634,10.6271,10.6689,10.6621,10.6491,10.7851,10.8623,10.8388,6.674,6.674,6.6705,6.6579,6.6367,6.6198,6.6376,6.6725,6.6725,6.694,6.7167,6.6729,6.6552,6.6678,6.6065,6.6724,6.7987,6.7248,6.9103,7.2754,7.2927,7.4285,7.6627,7.6697,7.6634,7.6585,7.6421,7.6465,7.6815,7.6919,7.7869,7.9571,8.088,8.1688,8.2233,8.2882,8.3162,8.2752,7.9007,7.6985,7.7083,7.6776,7.714,7.8257,7.8198,7.8795,8.0179,8.0232,8.0298,8.0515,8.0451,7.9994,7.9091,7.9552,8.0785,8.2286,8.0608,7.9337,7.9552,8.1034,8.2499,8.3559,8.3949,8.4317,8.4632,8.3808,8.3707,8.513,8.5439,8.5878,8.6744,8.715,8.7797,8.8975,8.9271,8.9859,9.1114,9.1661,9.1901,9.2138,9.3241,9.3714,9.3577,9.5266,9.686,9.697,9.6984,9.6984,9.6984,9.7228,9.756,9.7597,9.767,9.7768,9.7744,9.9241,10.0149,10.0185,10.1203,10.1461,10.1166,10.1806,10.3132,10.4098,10.4424,10.4946,10.6068,10.6202,10.6103,10.5962,10.604,10.6208,10.6684,10.6893,10.6814,6.4156,6.4265,6.4879,6.5046,6.4934,6.5497,6.5754,6.5599,6.4066,6.3296,6.3373,6.4833,6.5597,6.575,6.5114,6.5801,6.7521,6.6784,6.8372,7.1488,7.1597,7.2577,7.4321,7.5045,7.5369,7.5393,7.5919,7.6166,7.6126,7.6156,7.663,7.7595,7.921,8.0429,8.1245,8.1053,8.0866,8.0706,7.6818,7.4634,7.441,7.3708,7.3637,7.4466,7.591,7.7072,7.8024,7.7967,7.7952,7.8167,7.8176,7.7727,7.6705,7.764,7.8748,7.9914,7.8602,7.7774,7.7776,7.8965,8.0005,8.0776,8.1208,8.1316,8.0904,8.0382,8.0608,8.1849,8.2916,8.3604,8.4068,8.5126,8.6132,8.7024,8.739,8.794,8.8828,8.9606,9.0207,9.0291,9.0277,9.0616,9.1593,9.4691,9.6811,9.6957,9.6984,9.6984,9.6984,9.702,9.702,9.6984,9.6984,9.6984,9.7094,9.7855,9.8283,9.8394,9.9629,9.9942,9.9119,10.0585,10.1813,10.2591,10.2676,10.3167,10.379,10.4548,10.4926,10.4973,10.5475,10.6082,10.6145,10.6223,10.6423,6.122,6.1327,6.2557,6.2811,6.2472,6.3648,6.4054,6.3665,6.103,5.9857,6.0073,6.2884,6.4397,6.4947,6.454,6.5627,6.7807,6.7539,6.854,7.0516,7.0589,7.0929,7.1548,7.2825,7.3463,7.3584,7.5091,7.5738,7.5731,7.5902,7.6166,7.6543,7.7906,7.929,8.0436,7.9073,7.8135,7.7839,7.5194,7.3731,7.3575,7.2063,7.098,7.0403,7.363,7.5184,7.4489,7.4973,7.4905,7.4349,7.5297,7.4692,7.2402,7.5049,7.6928,7.6909,7.6576,7.6221,7.5985,7.623,7.6513,7.6796,7.7786,7.775,7.6449,7.7066,7.7863,7.8588,8.0272,8.149,8.1954,8.3665,8.4866,8.5071,8.5618,8.6076,8.6236,8.7519,8.8431,8.8445,8.7255,8.7866,9.0473,9.366,9.5779,9.6349,9.6292,9.6576,9.6478,9.6442,9.6318,9.6307,9.6492,9.6602,9.6418,9.6726,9.7168,9.6984,9.8102,9.847,9.7391,9.9011,10.051,10.1309,10.1141,10.1175,10.1528,10.2333,10.2981,10.3341,10.4105,10.5081,10.5679,10.5515,10.5481,6.0299,6.0344,6.0683,5.993,5.8519,5.8564,5.8018,5.706,0.0,0.0,0.0,5.9834,6.0967,6.2131,5.996,6.0517,6.3039,6.1197,6.2603,6.665,6.6912,6.8513,7.1174,7.1382,7.1539,7.1702,7.3216,7.4013,7.4142,7.5606,7.6235,7.6216,7.6992,7.7284,7.7057,7.8079,7.8002,7.6768,7.5955,7.5447,7.5205,7.4897,7.2749,6.8591,7.3008,7.3608,6.9885,7.3258,7.3471,6.978,7.2648,7.0757,6.3095,6.9632,7.3897,7.3771,7.1769,7.0174,6.9433,7.0201,7.1318,7.2818,7.579,7.6227,7.302,7.4002,7.5623,7.76,7.8278,7.8815,7.9356,8.1431,8.2797,8.2976,8.4562,8.5578,8.568,8.6251,8.6583,8.6575,8.6584,8.6785,8.7619,9.0606,9.2921,9.3909,9.4577,9.4974,9.4881,9.397,9.3195,9.3346,9.4353,9.4944,9.4834,9.5681,9.691,9.6773,9.7021,9.7147,9.6936,9.7169,9.7937,9.8876,9.9205,9.9627,10.0653,10.1065,10.1305,10.1373,10.1796,10.2505,10.3715,10.3315,10.2522,5.7101,0.0,5.797,5.7776,0.0,5.7596,5.5648,5.21,5.2945,5.4412,5.634,5.8046,5.9307,6.0172,5.8837,5.9584,6.1852,6.07,6.2037,6.5258,6.5597,6.6703,6.8437,6.9317,6.9826,6.995,7.1438,7.2207,7.2358,7.3187,7.4086,7.4923,7.4648,7.4331,7.4015,7.5777,7.6324,7.5413,7.2831,7.1776,7.2318,7.2233,7.0511,6.7248,7.1761,0.0,0.0,0.0,0.0,0.0,0.0,0.0,0.0,0.0,0.0,7.0235,6.4924,6.136,6.0808,6.1266,6.2873,6.5769,6.7762,6.802,6.6195,6.8745,7.0635,7.1206,7.3489,7.5374,7.6598,7.8605,8.0027,8.0556,8.1704,8.2943,8.3817,8.4362,8.5018,8.5865,8.6083,8.6161,8.6512,8.9577,9.1657,9.1753,9.2531,9.3125,9.3067,9.2403,9.1862,9.1964,9.2749,9.3277,9.3647,9.4259,9.4417,9.4982,9.4604,9.4004,9.3449,9.3705,9.4338,9.5516,9.6021,9.6378,9.7201,9.8609,9.9668,9.9793,10.0486,10.0895,9.8898,9.8839,9.9117,5.3733,5.3911,5.5325,5.5713,5.5513,5.6036,5.3666,4.9475,4.8765,5.0343,5.3575,5.6243,5.7695,5.8212,5.8208,5.9307,6.1033,6.1235,6.237,6.4253,6.4277,6.4543,6.5153,6.6722,6.7473,6.762,6.9411,7.0319,7.031,7.0633,7.1601,7.3182,7.219,7.1705,7.1862,0.0,0.0,0.0,6.9699,6.8534,6.958,6.9386,6.8067,6.5684,7.0292,0.0,6.9567,6.9933,6.9906,6.9057,6.5074,0.0,0.0,0.0,0.0,0.0,0.0,0.0,0.0,0.0,0.0,0.0,5.7686,5.7688,5.8694,6.2342,6.4224,6.3418,6.7862,7.1329,7.2301,7.4625,7.6597,7.7517,7.8347,7.9625,8.1513,8.2189,8.3328,8.5279,8.4995,8.5068,8.6347,8.8938,9.0353,8.9581,9.0477,9.1067,9.0783,9.0613,9.0737,9.0787,9.0666,9.1156,9.2037,9.194,9.237,9.2737,9.2213,9.1417,9.0849,9.1336,9.2237,9.3025,9.3653,9.4318,9.4376,9.6289,9.8004,9.7712,9.857,9.8265,9.4295,9.4478,9.5772,5.1963,5.2333,5.3619,5.3445,5.2091,4.9471,4.9507,5.126,4.9964,5.0626,5.2689,5.316,5.4267,5.5664,5.579,5.6808,5.8451,5.9004,6.0196,6.178,6.0969,6.1381,6.282,6.3073,6.3316,6.3639,6.6486,6.7989,6.8101,6.9444,7.0397,7.0918,7.0772,7.095,7.1352,7.022,6.9,6.7914,7.0126,7.1245,7.1246,7.1097,6.8742,6.4336,6.8782,6.9161,6.4683,6.8307,6.8498,6.4367,6.633,6.4713,5.8448,6.2052,6.2058,0.0,5.4653,0.0,0.0,0.0,0.0,0.0,0.0,0.0,0.0,5.5253,5.6633,5.6801,6.3086,6.6339,6.432,6.8437,7.1913,7.3479,7.5329,7.7268,7.9242,7.98,8.0881,8.3285,8.2311,8.2815,8.591,8.6835,8.7235,8.7404,8.8502,8.8714,8.7523,8.7335,8.7561,8.7354,8.7409,8.7859,8.8006,8.9933,9.162,9.1803,9.1462,9.149,9.1119,9.2199,9.3281,9.3478,9.4391,9.5529,9.5872,9.6055,9.6018,9.4653,9.4172,9.3434,9.1873,9.1843,9.2132,4.9464,4.9588,4.9973,4.9714,4.8808,4.7193,4.7426,4.8751,4.8119,4.836,4.9265,4.9438,5.0081,5.1034,5.2036,5.3376,5.4986,5.6389,5.795,5.9553,5.9484,5.9941,6.0893,6.0962,6.1073,6.1217,6.2567,6.3278,6.3418,6.4848,6.6204,6.7449,6.7605,6.6462,6.4301,6.6044,6.683,6.6474,6.9085,7.0292,7.0159,7.0147,6.8495,6.52,6.8023,6.8102,6.4938,6.6625,6.6593,6.4451,6.5582,6.5067,6.2345,6.0361,5.7137,0.0,0.0,0.0,0.0,0.0,0.0,0.0,0.0,0.0,0.0,0.0,4.9729,5.2078,5.8949,6.2287,5.9977,6.2653,6.5331,6.7285,6.6261,6.7859,7.3943,7.4312,7.5639,7.9484,8.0329,8.1545,8.4083,8.5664,8.6506,8.6564,8.6243,8.5044,8.2952,8.4843,8.6191,8.5231,8.5949,8.6614,8.6506,8.7843,8.8851,8.8824,8.8674,8.8534,8.8571,8.8989,8.9397,8.9743,9.0983,9.2019,9.2106,9.3186,9.3842,9.2303,9.0532,8.9011,8.8194,8.8997,8.9775,4.7095,4.6755,4.5122,4.4552,4.4746,4.4274,4.4863,4.6108,4.582,4.6029,4.6588,4.6424,4.623,4.5944,4.6293,4.7652,4.9917,5.1486,5.3666,5.621,5.6908,5.7573,5.8219,5.8812,5.9028,5.9091,5.9105,5.9314,5.9649,6.0374,6.1375,6.2511,6.2564,6.0885,5.7855,6.1273,6.3901,6.5511,6.7052,6.8014,6.84,6.8496,6.7726,6.6147,6.7305,6.7274,6.5868,6.5201,6.481,6.4666,6.2841,6.2568,6.4142,5.7218,0.0,0.0,0.0,0.0,0.0,0.0,0.0,0.0,0.0,4.0642,3.6515,0.0,4.4022,0.0,5.3938,5.7514,5.6286,5.7388,0.0,0.0,5.7983,5.8806,6.6298,6.76,6.9653,7.4102,7.6506,7.8365,7.9793,8.3766,8.6056,8.4715,8.3445,8.1819,7.9621,8.2629,8.4483,8.3327,8.4106,8.5117,8.5036,8.5122,8.5491,8.6329,8.552,8.4829,8.475,8.5176,8.5712,8.6162,8.7615,8.8806,8.9133,8.9874,9.0198,8.8375,8.6979,8.5682,8.4932,8.6276,8.7579,4.5263,4.4422,3.8741,3.7559,3.9349,3.8208,4.0611,4.5226,4.3951,4.4545,4.6349,4.4972,4.3181,4.0969,3.7309,0.0,4.2275,4.2459,4.5607,5.1005,5.149,5.2559,5.4004,5.5763,5.6696,5.6832,5.6938,5.7677,5.8805,5.7766,5.6707,5.5812,5.5117,5.5013,5.5446,5.6071,5.8802,6.3668,6.3944,6.4903,6.6606,6.6702,6.6523,6.6063,6.6341,6.6145,6.5548,6.426,6.3361,6.2789,5.7217,5.6296,6.0927,0.0,0.0,0.0,0.0,0.0,0.0,0.0,0.0,0.0,0.0,0.0,0.0,0.0,0.0,4.173,4.7059,0.0,5.2245,5.291,0.0,0.0,0.0,5.3353,5.5951,6.0061,6.3636,6.6305,0.0,0.0,7.1852,8.0406,8.4665,7.9617,7.9892,8.0458,8.017,8.0481,8.0814,8.0931,8.1068,8.1213,8.1638,8.1407,8.2344,8.5377,8.3502,8.1262,8.1114,8.3026,8.4983,8.5077,8.7641,8.9528,8.9783,8.6728,8.4169,8.0998,8.2869,8.4558,8.2996,8.3776,8.5024,3.9355,3.4979,3.228,3.2182,3.3654,3.228,3.4312,3.8527,3.7238,3.7229,3.8109,3.7647,3.6069,3.3635,3.2155,0.0,0.0,0.0,4.0061,4.4644,4.5447,4.7595,5.0564,5.1668,5.2162,5.2217,5.2265,5.3025,5.443,5.4651,5.0454,4.2284,0.0,0.0,4.496,5.0775,5.5412,5.8476,6.0825,6.2486,6.3403,6.3369,6.3275,6.3155,6.3131,6.3022,6.2799,6.1975,6.0015,5.6925,5.6248,5.0932,0.0,0.0,0.0,0.0,0.0,0.0,0.0,0.0,0.0,0.0,0.0,3.0918,2.8235,0.0,0.0,0.0,3.6786,3.8929,4.1698,4.4383,0.0,0.0,0.0,0.0,0.0,0.0,0.0,6.015,5.9351,6.0735,6.6843,7.4266,7.7492,7.3084,7.5149,7.6396,7.4452,0.0,7.9901,7.8941,7.9737,8.0445,8.0483,7.8627,7.8353,8.205,8.102,7.9835,7.9772,8.0603,8.1594,8.1978,8.2853,8.3555,8.3636,7.8841,7.509,7.7118,7.9688,8.1165,8.025,8.0888,8.1646,3.2902,0.0,0.0,0.0,0.0,2.7472,2.9054,3.2389,3.1038,3.0832,3.1463,3.0878,0.0,0.0,0.0,0.0,0.0,0.0,3.5592,3.9494,4.2085,4.4816,4.7855,4.8691,4.9097,4.9063,4.873,4.8826,4.9375,4.8569,4.2821,3.2679,0.0,0.0,0.0,0.0,5.0823,5.3929,5.8092,6.059,6.1256,6.1233,6.1221,6.1221,6.109,6.0957,6.081,5.8635,5.5547,5.1555,4.9583,0.0,0.0,0.0,0.0,0.0,0.0,0.0,0.0,0.0,0.0,0.0,0.0,0.0,0.0,0.0,0.0,0.0,0.0,0.0,3.5498,3.8392,3.987,0.0,0.0,0.0,0.0,0.0,0.0,0.0,0.0,0.0,6.0686,6.8289,7.1729,0.0,0.0,7.2052,7.0235,7.3636,7.599,7.479,7.5282,0.0,7.667,7.3811,7.2958,7.7029,7.7709,7.7089,7.542,7.612,7.6773,7.6154,7.7045,7.7399,7.6006,7.0112,6.7216,7.1248,7.3707,7.4767,7.5081,7.6478,7.775,0.0,0.0,0.0,0.0,0.0,0.0,0.0,0.0,2.6428,2.6702,0.0,2.5825,0.0,0.0,0.0,0.0,0.0,2.7687,0.0,0.0,4.2098,4.5275,4.5643,4.7422,4.8388,4.8368,4.6965,4.5635,4.3934,3.8435,0.0,0.0,0.0,0.0,0.0,0.0,4.4331,5.0558,5.5776,5.9171,6.074,6.1067,6.1185,6.1149,6.1031,6.0643,6.0062,5.4169,4.9905,4.7641,3.4082,0.0,0.0,0.0,0.0,0.0,0.0,0.0,0.0,0.0,0.0,0.0,0.0,0.0,0.0,0.0,0.0,0.0,0.0,0.0,0.0,3.6628,0.0,0.0,0.0,0.0,0.0,0.0,0.0,0.0,0.0,0.0,5.2626,6.2919,6.9059,6.7235,0.0,0.0,0.0,0.0,6.7466,6.7716,6.6201,6.5996,6.8183,6.6157,6.6097,7.1181,0.0,0.0,6.6212,6.8861,7.0853,6.7919,7.0988,7.2609,6.8403,6.1786,5.8692,6.2554,6.3904,6.4731,6.6335,6.9645,7.308,0.0,0.0,0.0,0.0,0.0,0.0,0.0,0.0,0.0,1.966,2.0214,1.9404,0.0,0.0,0.0,0.0,0.0,0.0,0.0,0.0,3.3254,3.6801,3.8732,4.1488,4.1838,0.0,3.9569,3.6756,0.0,0.0,0.0,0.0,0.0,0.0,0.0,0.0,4.0994,4.5555,5.2694,5.6835,5.7645,5.7846,5.8009,5.8031,5.8021,5.5787,5.115,4.8646,4.4975,0.0,0.0,0.0,0.0,0.0,0.0,0.0,0.0,0.0,0.0,0.0,0.0,0.0,0.0,0.0,0.0,0.0,0.0,0.0,0.0,0.0,0.0,0.0,3.1417,0.0,0.0,0.0,0.0,0.0,0.0,0.0,0.0,0.0,4.3947,5.5675,6.2372,5.9369,6.2461,6.5234,6.5788,0.0,0.0,0.0,0.0,0.0,0.0,0.0,6.3301,6.6506,6.6293,6.4658,6.1562,6.3696,6.5492,6.4541,0.0,0.0,5.4747,4.9736,4.8635,5.3333,5.4862,5.5977,5.7851,6.1762,6.4332,0.0,0.0,0.0,0.0,0.0,0.0,0.0,0.0,0.0,1.4097,1.4512,0.0,0.0,0.0,0.0,0.0,0.0,0.0,0.0,0.0,0.0,0.0,3.3502,3.6148,0.0,0.0,0.0,0.0,0.0,0.0,0.0,0.0,0.0,0.0,0.0,0.0,3.7992,4.1914,5.0265,5.5079,5.5884,5.6071,5.6233,5.6346,5.6426,5.3451,4.7054,0.0,0.0,0.0,0.0,0.0,0.0,0.0,0.0,0.0,0.0,0.0,0.0,0.0,0.0,0.0,0.0,0.0,0.0,0.0,0.0,0.0,0.0,0.0,0.0,0.0,2.6682,0.0,0.0,0.0,0.0,0.0,0.0,0.0,0.0,0.0,0.0,0.0,5.4699,5.3128,5.6934,6.0414,6.197,6.3582,6.4631,0.0,0.0,0.0,0.0,0.0,0.0,0.0,0.0,0.0,0.0,0.0,0.0,0.0,0.0,5.5576,4.581,4.1807,4.1149,4.4885,0.0,0.0,0.0,0.0,0.0,0.0,0.0,0.0,0.0,0.0,0.0,0.0,0.0,0.0,0.0,1.1742,0.0,0.0,1.2031,0.0,0.0,0.0,0.0,0.0,0.0,0.0,0.0,0.0,0.0,0.0,0.0,0.0,0.0,0.0,0.0,0.0,0.0,0.0,0.0,0.0,0.0,3.5235,3.9603,4.8535,5.3952,5.5553,5.5918,5.6043,5.6181,5.6408,5.3952,4.8443,0.0,0.0,0.0,0.0,0.0,0.0,0.0,0.0,0.0,0.0,0.0,0.0,0.0,0.0,0.0,0.0,0.0,0.0,0.0,0.0,0.0,0.0,0.0,0.0,0.0,0.0,2.241,2.4873,2.819,0.0,0.0,0.0,0.0,0.0,0.0,0.0,0.0,0.0,4.8937,5.0697,5.3393,5.7772,5.7111,5.6512,5.6648,5.5129,5.4813,5.7603,5.5714,5.4241,0.0,0.0,0.0,0.0,0.0,0.0,0.0,0.0,0.0,0.0,0.0,0.0,0.0,0.0,0.0,0.0,0.0,0.0,0.0,0.0,0.0,0.0,0.0,0.0,0.0,0.0,0.0,0.0,0.0,0.0,0.0,0.0,0.0,0.0,0.0,0.0,0.0,0.0,0.0,0.0,0.0,0.0,0.0,0.0,0.0,0.0,0.0,0.0,0.0,0.0,0.0,0.0,0.0,0.0,3.4075,3.788,4.6391,5.125,5.2087,5.2422,5.2714,5.3005,5.4256,5.2463,0.0,0.0,0.0,0.0,0.0,0.0,0.0,0.0,0.0,0.0,0.0,0.0,0.0,0.0,0.0,0.0,0.0,0.0,0.0,0.0,0.0,0.0,0.0,0.0,0.0,0.0,0.0,0.0,2.845,2.9427,2.9909,0.0,0.0,0.0,0.0,0.0,0.0,0.0,0.0,0.0,0.0,5.1974,5.4451,5.5499,5.6323,5.7316,5.617,5.5474,5.6439,5.4982,5.3474,5.2733,0.0,0.0,0.0,0.0,0.0,0.0,0.0,0.0,0.0,0.0,0.0,0.0,0.0,0.0,0.0,0.0,0.0,0.0,0.0,0.0,0.0,0.0,0.0,0.0,0.0,0.0,0.0,0.0,0.0,0.0,0.0,0.0,0.0,0.0,0.0,0.0,0.0,0.0,0.0,0.0,0.0,0.0,0.0,0.0,0.0,0.0,0.0,0.0,0.0,0.0,0.0,0.0,0.0,3.2909,3.7013,4.4882,4.949,5.0546,5.0921,5.1241,5.1561,5.2751,5.0253,0.0,0.0,0.0,0.0,0.0,0.0,0.0,0.0,0.0,0.0,0.0,0.0,0.0,0.0,0.0,0.0,0.0,0.0,0.0,0.0,0.0,0.0,0.0,0.0,0.0,0.0,0.0,0.0,2.5771,2.6942,2.6581,0.0,0.0,0.0,0.0,0.0,0.0,0.0,0.0,0.0,0.0,4.6871,4.9114,5.0844,0.0,0.0,5.2912,5.1985,5.2306,5.2347,5.1535,4.9053,4.6691,0.0,0.0,0.0,0.0,0.0,0.0,0.0,0.0,0.0,0.0,0.0,0.0,0.0,0.0,0.0,0.0,0.0,0.0,0.0,0.0,0.0,0.0,0.0,0.0,0.0,0.0,0.0,0.0,0.0,0.0,0.0,0.0,0.0,0.0,0.0,0.0,0.0,0.0,0.0,0.0,0.0,0.0,0.0,0.0,0.0,0.0,0.0,0.0,0.0,0.0,0.0,0.0,3.1646,3.6426,4.3676,4.8371,5.0312,5.064,5.0986,5.1383,5.1606,4.7632,0.0,0.0,0.0,0.0,0.0,0.0,0.0,0.0,0.0,0.0,0.0,0.0,0.0,0.0,0.0,0.0,0.0,0.0,0.0,0.0,0.0,0.0,0.0,0.0,0.0,0.0,0.0,0.0,0.0,0.0,0.0,0.0,0.0,0.0,0.0,0.0,0.0,0.0,0.0,0.0,0.0,3.9741,4.3064,4.4383,4.5731,0.0,4.6512,4.5553,4.6138,4.8388,4.8798,4.4919,0.0,0.0,0.0,0.0,0.0,0.0,0.0,0.0,0.0,0.0,0.0,0.0,0.0,0.0,0.0,0.0,0.0,0.0,0.0,0.0,0.0,0.0,0.0,0.0,0.0,0.0,0.0,0.0,0.0,0.0,0.0,0.0,0.0,0.0,0.0,0.0,0.0,0.0,0.0,0.0,0.0,0.0,0.0,0.0,0.0,0.0,0.0,0.0,0.0,0.0,0.0,0.0,0.0,0.0,3.2998,4.1197,4.5873,4.6742,4.725,4.7678,4.8076,4.9525,0.0,0.0,0.0,0.0,0.0,0.0,0.0,0.0,0.0,0.0,0.0,0.0,0.0,0.0,0.0,0.0,0.0,0.0,0.0,0.0,0.0,0.0,0.0,0.0,0.0,0.0,0.0,1.5656,0.0,0.0,0.0,0.0,0.0,0.0,0.0,0.0,0.0,0.0,0.0,0.0,0.0,0.0,3.9989,4.4451,4.3368,4.3037,0.0,0.0,4.2532,4.3521,4.5765,4.6636,0.0,0.0,0.0,0.0,0.0,0.0,0.0,0.0,0.0,0.0,0.0,0.0,0.0,0.0,0.0,0.0,0.0,0.0,0.0,0.0,0.0,0.0,0.0,0.0,0.0,0.0,0.0,0.0,0.0,0.0,0.0,0.0,0.0,0.0,0.0,0.0,0.0,0.0,0.0,0.0,0.0,0.0,0.0,0.0,0.0,0.0,0.0,0.0,0.0,0.0,0.0,0.0,0.0,0.0,2.7305,3.166,3.8046,4.2744,4.5361,4.5948,4.6411,4.6948,4.7993,4.4182,0.0,0.0,0.0,0.0,0.0,0.0,0.0,0.0,0.0,0.0,0.0,0.0,0.0,0.0,0.0,0.0,0.0,0.0,0.0,0.0,0.0,0.0,0.0,0.0,0.0,0.0,0.0,0.0,0.0,0.0,0.0,0.0,0.0,0.0,0.0,0.0,0.0,0.0,0.0,0.0,0.0,0.0,4.0399,3.9642,0.0,0.0,0.0,3.9284,4.0171,0.0,0.0,0.0,0.0,0.0,0.0,0.0,0.0,0.0,0.0,0.0,0.0,0.0,0.0,0.0,0.0,0.0,0.0,0.0,0.0,0.0,0.0,0.0,0.0,0.0,0.0,0.0,0.0,0.0,0.0,0.0,0.0,0.0,0.0,0.0,0.0,0.0,0.0,0.0,0.0,0.0,0.0,0.0,0.0,0.0,0.0,0.0,0.0,0.0,0.0,0.0,0.0,0.0,0.0,0.0,0.0,0.0,3.0974,3.5588,4.0356,4.5098,4.5797,4.633,4.6997,4.7034,4.3137,0.0,0.0,0.0,0.0,0.0,0.0,0.0,0.0,0.0,0.0,0.0,0.0,0.0,0.0,0.0,0.0,0.0,0.0,0.0,0.0,0.0,0.0,0.0,0.0,0.0,0.0,0.0,0.0,0.0,0.0,0.0,0.0,0.0,0.0,0.0,0.0,0.0,0.0,0.0,0.0,0.0,3.6713,3.4843,3.5314,3.5363,0.0,0.0,3.5698,3.6612,3.7162,0.0,0.0,0.0,0.0,0.0,0.0,0.0,0.0,0.0,0.0,0.0,0.0,0.0,0.0,0.0,0.0,0.0,0.0,0.0,0.0,0.0,0.0,0.0,0.0,0.0,0.0,0.0,0.0,0.0,0.0,0.0,0.0,0.0,0.0,0.0,0.0,0.0,0.0,0.0,0.0,0.0,0.0,0.0,0.0,0.0,0.0,0.0,0.0,0.0,0.0,0.0,0.0,0.0,0.0,0.0,0.0,2.9079,3.791,4.3263,4.4667,4.5599,4.6259,4.6721,4.7133,4.2853,0.0,0.0,0.0,0.0,0.0,0.0,0.0,0.0,0.0,0.0,0.0,0.0,0.0,0.0,0.0,0.0,0.0,0.0,0.0,0.0,0.0,0.0,0.0,0.0,0.0,0.0,0.0,0.0,0.0,0.0,0.0,0.0,0.0,0.0,0.0,0.0,0.0,0.0,0.0,0.0,0.0,3.5408,3.7416,3.5871,0.0,0.0,0.0,0.0,3.4094,3.3477,0.0,0.0,0.0,0.0,0.0,0.0,0.0,0.0,0.0,0.0,0.0,0.0,0.0,0.0,0.0,0.0,0.0,0.0,0.0,0.0,0.0,0.0,0.0,0.0,0.0,0.0,0.0,0.0,0.0,0.0,0.0,0.0,0.0,0.0,0.0,0.0,0.0,0.0,0.0,0.0,0.0,0.0,0.0,0.0,0.0,0.0,0.0,0.0,0.0,0.0,0.0,0.0,0.0,0.0,0.0,0.0,2.8906,3.4637,3.9784,4.4174,4.5259,4.6065,4.6628,4.7212,4.2886,0.0,0.0,0.0,0.0,0.0,0.0,0.0,0.0,0.0,0.0,0.0,0.0,0.0,0.0,0.0,0.0,0.0,0.0,0.0,0.0,0.0,0.0,0.0,0.0,0.0,0.0,0.0,0.0,0.0,0.0,0.0,0.0,0.0,0.0,0.0,0.0,0.0,0.0,0.0,0.0,3.2743,3.445,3.6205,0.0,0.0,0.0,0.0,0.0,0.0,3.0428,3.0602,0.0,0.0,0.0,0.0,0.0,0.0,0.0,0.0,0.0,0.0,0.0,0.0,0.0,0.0,0.0,0.0,0.0,0.0,0.0,0.0,0.0,0.0,0.0,0.0,0.0,0.0,0.0,0.0,0.0,0.0,0.0,0.0,0.0,0.0,0.0,0.0,0.0,0.0,0.0,0.0,0.0,0.0,0.0,0.0,0.0,0.0,0.0,0.0,0.0,0.0,0.0,0.0,0.0,0.0,0.0,2.8674,3.0586,3.539,4.3397,4.4751,4.5766,4.6551,4.7195,4.293,3.3491,0.0,0.0,0.0,0.0,0.0,0.0,0.0,0.0,0.0,0.0,0.0,0.0,0.0,0.0,0.0,0.0,0.0,0.0,0.0,0.0,0.0,0.0,0.0,0.0,0.0,0.0,0.0,0.0,0.0,0.0,0.0,0.0,0.0,0.0,0.0,0.0,0.0,0.0,0.0,3.1366,3.287,0.0,0.0,0.0,0.0,0.0,0.0,0.0,0.0,2.9766,0.0,0.0,0.0,0.0,0.0,0.0,0.0,0.0,0.0,0.0,0.0,0.0,0.0,0.0,0.0,0.0,0.0,0.0,0.0,0.0,0.0,0.0,0.0,0.0,0.0,0.0,0.0,0.0,0.0,0.0,0.0,0.0,0.0,0.0,0.0,0.0,0.0,0.0,0.0,0.0,0.0,0.0,0.0,0.0,0.0,0.0,0.0,0.0,0.0,0.0,0.0,0.0,0.0,0.0,0.0,0.0,3.1276,3.6769,4.1315,4.3681,4.5304,4.6315,4.6836,4.2566,3.3166,0.0,0.0,0.0,0.0,0.0,0.0,0.0,0.0,0.0,0.0,0.0,0.0,0.0,0.0,0.0,0.0,0.0,0.0,0.0,0.0,0.0,0.0,0.0,0.0,0.0,0.0,0.0,0.0,0.0,0.0,0.0,0.0,0.0,0.0,0.0,0.0,0.0,0.0,2.1206,2.5526,0.0,0.0,0.0,0.0,0.0,0.0,0.0,0.0,2.7867,0.0,0.0,0.0,0.0,0.0,0.0,0.0,0.0,0.0,0.0,0.0,0.0,0.0,0.0,0.0,0.0,0.0,0.0,0.0,0.0,0.0,0.0,0.0,0.0,0.0,0.0,0.0,0.0,0.0,0.0,0.0,0.0,0.0,0.0,0.0,0.0,0.0,0.0,0.0,0.0,0.0,0.0,0.0,0.0,0.0,0.0,0.0,0.0,0.0,0.0,0.0,0.0,0.0,0.0,0.0,0.0,0.0,0.0,3.3861,4.0172,4.2256,4.4136,4.5757,4.3088,3.8774,0.0,0.0,0.0,0.0,0.0,0.0,0.0,0.0,0.0,0.0,0.0,0.0,0.0,0.0,0.0,0.0,0.0,0.0,0.0,0.0,0.0,0.0,0.0,0.0,0.0,0.0,0.0,0.0,0.0,0.0,0.0,0.0,0.0,0.0,0.0,0.0,0.0,0.0,0.0,0.0,0.0,0.0,0.0,0.0,0.0,0.0,0.0,0.0,0.0,0.0,0.0,0.0,0.0,0.0,0.0,0.0,0.0,0.0,0.0,0.0,0.0,0.0,0.0,0.0,0.0,0.0,0.0,0.0,0.0,0.0,0.0,0.0,0.0,0.0,0.0,0.0,0.0,0.0,0.0,0.0,0.0,0.0,0.0,0.0,0.0,0.0,0.0,0.0,0.0,0.0,0.0,0.0,0.0,0.0,0.0,0.0,0.0,0.0,0.0,0.0,0.0,0.0,0.0,0.0,0.0,0.0,0.0,0.0,3.0235,3.8595,4.0437,4.2347,4.4569,3.9447,3.5287,0.0,0.0,0.0,0.0,0.0,0.0,0.0,0.0,0.0,0.0,0.0,0.0,0.0,0.0,0.0,0.0,0.0,0.0,0.0,0.0,0.0,0.0,0.0,0.0,0.0,0.0,0.0,0.0,0.0,0.0,0.0,0.0,0.0,0.0,0.0,0.0,0.0,0.0,0.0,0.0,0.0,0.0,0.0,0.0,0.0,0.0,0.0,0.0,2.5331,0.0,0.0,0.0,0.0,0.0,0.0,0.0,0.0,0.0,0.0,0.0,0.0,0.0,0.0,0.0,0.0,0.0,0.0,0.0,0.0,0.0,0.0,0.0,0.0,0.0,0.0,0.0,0.0,0.0,0.0,0.0,0.0,0.0,0.0,0.0,0.0,0.0,0.0,0.0,0.0,0.0,0.0,0.0,0.0,0.0,0.0,0.0,0.0,0.0,0.0,0.0,0.0,0.0,0.0,0.0,0.0,0.0,0.0,0.0,2.8164,3.5463,3.7895,3.978,4.1134,3.8114,3.4472,0.0,0.0,0.0,0.0,0.0,0.0,0.0,0.0,0.0,0.0,0.0,0.0,0.0,0.0,0.0,0.0,0.0,0.0,0.0,0.0,0.0,0.0,0.0,0.0,0.0,0.0,0.0,0.0,0.0,0.0,0.0,0.0,0.0,0.0,0.0,0.0,0.0,0.0,0.0,0.0,0.0,0.0,0.0,0.0,0.0,0.0,0.0,0.0,0.0,0.0,0.0,0.0,0.0,0.0,0.0,0.0,0.0,0.0,0.0,0.0,0.0,0.0,0.0,0.0,0.0,0.0,0.0,0.0,0.0,0.0,0.0,0.0,0.0,0.0,0.0,0.0,0.0,0.0,0.0,0.0,0.0,0.0,0.0,0.0,0.0,0.0,0.0,0.0,0.0,0.0,0.0,0.0,0.0,0.0,0.0,0.0,0.0,0.0,0.0,0.0,0.0,0.0,0.0,0.0,0.0,0.0,0.0,0.0,2.5271,3.148,3.5019,3.6776,3.6539,3.1742,2.8486,0.0,0.0,0.0,0.0,0.0,0.0,0.0,0.0,0.0,0.0,0.0,0.0,0.0,0.0,0.0,0.0,0.0,0.0,0.0,0.0,0.0,0.0,0.0,0.0,0.0,0.0,0.0,0.0,0.0,0.0,0.0,0.0,0.0,0.0,0.0,0.0,0.0,0.0,0.0,0.0,0.0,0.0,0.0,0.0,0.0,0.0,0.0,0.0,0.0,0.0,0.0,0.0,0.0,0.0,0.0,0.0,0.0,0.0,0.0,0.0,0.0,0.0,0.0,0.0,0.0,0.0,0.0,0.0,0.0,0.0,0.0,0.0,0.0,0.0,0.0,0.0,0.0,0.0,0.0,0.0,0.0,0.0,0.0,0.0,0.0,0.0,0.0,0.0,0.0,0.0,0.0,0.0,0.0,0.0,0.0,0.0,0.0,0.0,0.0,0.0,0.0,0.0,0.0,0.0,0.0,0.0,0.0,0.0,0.0,2.7288,3.1497,3.3116,3.1949,2.6284,2.3304,0.0,0.0,0.0,0.0,0.0,0.0,0.0,0.0,0.0,0.0,0.0,0.0,0.0,0.0,0.0,0.0,0.0,0.0,0.0,0.0,0.0,0.0,0.0,0.0,0.0,0.0,0.0,0.0,0.0,0.0,0.0,0.0,0.0,0.0,0.0,0.0,0.0,0.0,0.0,0.0,0.0,0.0,0.0,0.0,0.0,0.0,0.0,0.0,0.0,0.0,0.0,0.0,0.0,0.0,0.0,0.0,0.0,0.0,0.0,0.0,0.0,0.0,0.0,0.0,0.0,0.0,0.0,0.0,0.0,0.0,0.0,0.0,0.0,0.0,0.0,0.0,0.0,0.0,0.0,0.0,0.0,0.0,0.0,0.0,0.0,0.0,0.0,0.0,0.0,0.0,0.0,0.0,0.0,0.0,0.0,0.0,0.0,0.0,0.0,0.0,0.0,0.0,0.0,0.0,0.0,0.0,0.0,0.0,0.0,2.3234,2.6733,2.8547,2.8414,2.3714,2.081,0.0,0.0,0.0,0.0,0.0,0.0,0.0,0.0,0.0,0.0,0.0,0.0,0.0,0.0,0.0,0.0,0.0,0.0,0.0,0.0,0.0,0.0,0.0,0.0,0.0,0.0,0.0,0.0,0.0,0.0,0.0,0.0,0.0,0.0,0.0,0.0,0.0,0.0,0.0,0.0,0.0,0.0,0.0,0.0,0.0,0.0,0.0,0.0,0.0,0.0,0.0,0.0,0.0,0.0,0.0,0.0,0.0,0.0,0.0,0.0,0.0,0.0,0.0,0.0,0.0,0.0,0.0,0.0,0.0,0.0,0.0,0.0,0.0,0.0,0.0,0.0,0.0,0.0,0.0,0.0,0.0,0.0,0.0,0.0,0.0,0.0,0.0,0.0,0.0,0.0,0.0,0.0,0.0,0.0,0.0,0.0,0.0,0.0,0.0,0.0,0.0,0.0,0.0,0.0,0.0,0.0,0.0,0.0,0.0,1.4147,2.0504,2.4384,2.5126,2.065,1.8635,1.9509,0.0,0.0,0.0,0.0,0.0,0.0,0.0,0.0,0.0,0.0,0.0,0.0,0.0,0.0,0.0,0.0,0.0,0.0,0.0,0.0,0.0,0.0,0.0,0.0,0.0,0.0,0.0,0.0,0.0,0.0,0.0,0.0,0.0,0.0,0.0,0.0,0.0,0.0,0.0,0.0,0.0,0.0,0.0,0.0,0.0,0.0,0.0,0.0,0.0,0.0,0.0,0.0,0.0,0.0,0.0,0.0,0.0,0.0,0.0,0.0,0.0,0.0,0.0,0.0,0.0,0.0,0.0,0.0,0.0,0.0,0.0,0.0,0.0,0.0,0.0,0.0,0.0,0.0,0.0,0.0,0.0,0.0,0.0,0.0,0.0,0.0,0.0,0.0,0.0,0.0,0.0,0.0,0.0,0.0,0.0,0.0,0.0,0.0,0.0,0.0,0.0,0.0,0.0,0.0,0.0,0.0,0.0,0.0,1.0094,1.7093,2.1122,2.1541,1.779,1.592,0.0,0.0,0.0,0.0,0.0,0.0,0.0,0.0,0.0,0.0,0.0,0.0,0.0,0.0,0.0,0.0,0.0,0.0,0.0,0.0,0.0,0.0,0.0,0.0,0.0,0.0,0.0,0.0,0.0,0.0,0.0,0.0,0.0,0.0,0.0,0.0,0.0,0.0,0.0,0.0,0.0,0.0,0.0,0.0,0.0,0.0,0.0,0.0,0.0,0.0,0.0,0.0,0.0,0.0,0.0,0.0,0.0,0.0,0.0,0.0,0.0,0.0,0.0,0.0,0.0,0.0,0.0,0.0,0.0,0.0,0.0,0.0,0.0,0.0,0.0,0.0,0.0,0.0,0.0,0.0,0.0,0.0,0.0,0.0,0.0,0.0,0.0,0.0,0.0,0.0,0.0,0.0,0.0,0.0,0.0,0.0,0.0,0.0,0.0,0.0,0.0,0.0,0.0,0.0,0.0,0.0,0.0,0.0,0.6436,1.2983,1.7076,1.8846,1.811,1.5462,1.2607,0.0,0.0,0.0,0.0,0.0,0.0,0.0,0.0,0.0,0.0,0.0,0.0,0.0,0.0,0.0,0.0,0.0,0.0,0.0,0.0,0.0,0.0,0.0,0.0,0.0,0.0,0.0,0.0,0.0,0.0,0.0,0.0,0.0,0.0,0.0,0.0,0.0,0.0,0.0,0.0,0.0,0.0,0.0,0.0,0.0,0.0,0.0,0.0,0.0,0.0,0.0,0.0,0.0,0.0,0.0,0.0,0.0,0.0,0.0,0.0,0.0,0.0,0.0,0.0,0.0,0.0,0.0,0.0,0.0,0.0,0.0,0.0,0.0,0.0,0.0,0.0,0.0,0.0,0.0,0.0,0.0,0.0,0.0,0.0,0.0,0.0,0.0,0.0,0.0,0.0,0.0,0.0,0.0,0.0,0.0,0.0,0.0,0.0,0.0,0.0,0.0,0.0,0.0,0.0,0.0,0.0,0.0,0.0,0.0,0.665,0.0,1.5994,1.7858,1.5651,1.4466,0.0,0.0,0.0,0.0,0.0,0.0,0.0,0.0,0.0,0.0,0.0,0.0,0.0,0.0,0.0,0.0,0.0,0.0,0.0,0.0,0.0,0.0,0.0,0.0,0.0,0.0,0.0,0.0,0.0,0.0,0.0,0.0,0.0,0.0,0.0,0.0,0.0,0.0,0.0,0.0,0.0,0.0,0.0,0.0,0.0,0.0,0.0,0.0,0.0,0.0,0.0,0.0,0.0,0.0,0.0,0.0,0.0,0.0,0.0,0.0,0.0,0.0,0.0,0.0,0.0,0.0,0.0,0.0,0.0,0.0,0.0,0.0,0.0,0.0,0.0,0.0,0.0,0.0,0.0,0.0,0.0,0.0,0.0,0.0,0.0,0.0,0.0,0.0,0.0,0.0,0.0,0.0,0.0,0.0,0.0,0.0,0.0,0.0,0.0,0.0,0.0,0.0,0.0,0.0,0.0,0.0,0.0,0.0,0.0,0.646,0.9818,1.3448,1.7034,1.4991,1.4347,0.0,0.0,0.0,0.0,0.0,0.0,0.0,0.0,0.0,0.0,0.0,0.0,0.0,0.0,0.0,0.0,0.0,0.0,0.0,0.0,0.0,0.0,0.0,0.0,0.0,0.0,0.0,0.0,0.0,0.0,0.0,0.0,0.0,0.0,0.0,0.0,0.0,0.0,0.0,0.0,0.0,0.0,0.0,0.0,0.0,0.0,0.0,0.0,0.0,0.0,0.0,0.0,0.0,0.0,0.0,0.0,0.0,0.0,0.0,0.0,0.0,0.0,0.0,0.0,0.0,0.0,0.0,0.0,0.0,0.0,0.0,0.0,0.0,0.0,0.0,0.0,0.0,0.0,0.0,0.0,0.0,0.0,0.0,0.0,0.0,0.0,0.0,0.0,0.0,0.0,0.0,0.0,0.0,0.0,0.0,0.0,0.0,0.0,0.0,0.0,0.0,0.0,0.0,0.0,0.0,0.0,0.0,0.0,0.0,1.1172,0.9832,1.113,1.5441,1.3476,1.2389,0.0,0.0,0.0,0.0,0.0,0.0,0.0,0.0,0.0,0.0,0.0,0.0,0.0,0.0,0.0,0.0,0.0,0.0,0.0,0.0,0.0,0.0,0.0,0.0,0.0,0.0,0.0,0.0,0.0,0.0,0.0,0.0,0.0,0.0,0.0,0.0,0.0,0.0,0.0,0.0,0.0,0.0,0.0,0.0,0.0,0.0,0.0,0.0,0.0,0.0,0.0,0.0,0.0,0.0,0.0,0.0,0.0,0.0,0.0,0.0,0.0,0.0,0.0,0.0,0.0,0.0,0.0,0.0,0.0,0.0,0.0,0.0,0.0,0.0,0.0,0.0,0.0,0.0,0.0,0.0,0.0,0.0,0.0,0.0,0.0,0.0,0.0,0.0,0.0,0.0,0.0,0.0,0.0,0.0,0.0,0.0,0.0,0.0,0.0,0.0,0.0,0.0,0.0,0.0,0.0,0.0,0.0,0.0,0.0,0.0,0.6295,0.8297,1.1632,1.2116,1.2477,1.2897,0.0,0.0,0.0,0.0,0.0,0.0,0.0,0.0,0.0,0.0,0.0,0.0,0.0,0.0,0.0,0.0,0.0,0.0,0.0,0.0,0.0,0.0,0.0,0.0,0.0,0.0,0.0,0.0,0.0,0.0,0.0,0.0,0.0,0.0,0.0,0.0,0.0,0.0,0.0,0.0,0.0,0.0,0.0,0.0,0.0,0.0,0.0,0.0,0.0,0.0,0.0,0.0,0.0,0.0,0.0,0.0,0.0,0.0,0.0,0.0,0.0,0.0,0.0,0.0,0.0,0.0,0.0,0.0,0.0,0.0,0.0,0.0,0.0,0.0,0.0,0.0,0.0,0.0,0.0,0.0,0.0,0.0,0.0,0.0,0.0,0.0,0.0,0.0,0.0,0.0,0.0,0.0,0.0,0.0,0.0,0.0,0.0,0.0,0.0,0.0,0.0,0.0,0.0,0.0,0.0,0.0,0.0,0.0,0.0,0.0,0.5825,0.8747,1.0375,1.1756,0.0,0.0,0.0,0.0,0.0,0.0,0.0,0.0,0.0,0.0,0.0,0.0,0.0,0.0,0.0,0.0,0.0,0.0,0.0,0.0,0.0,0.0,0.0,0.0,0.0,0.0,0.0,0.0,0.0,0.0,0.0,0.0,0.0,0.0,0.0,0.0,0.0,0.0,0.0,0.0,0.0,0.0,0.0,0.0,0.0,0.0,0.0,0.0,0.0,0.0,0.0,0.0,0.0,0.0,0.0,0.0,0.0,0.0,0.0,0.0,0.0,0.0,0.0,0.0,0.0,0.0,0.0,0.0,0.0,0.0,0.0,0.0,0.0,0.0,0.0,0.0,0.0,0.0,0.0,0.0,0.0,0.0,0.0,0.0,0.0,0.0,0.0,0.0,0.0,0.0,0.0,0.0,0.0,0.0,0.0,0.0,0.0,0.0,0.0,0.0,0.0,0.0,0.0,0.0,0.0,0.0,0.0,0.0,0.0,0.0,0.0,0.4111,0.6412,0.8716,0.0,1.1994,0.0,0.0,0.0,0.0,0.0,0.0,0.0,0.0,0.0,0.0,0.0,0.0,0.0,0.0,0.0,0.0,0.0,0.0,0.0,0.0,0.0,0.0,0.0,0.0,0.0,0.0,0.0,0.0,0.0,0.0,0.0,0.0,0.0,0.0,0.0,0.0,0.0,0.0,0.0,0.0,0.0,0.0,0.0,0.0,0.0,0.0,0.0,0.0,0.0,0.0,0.0,0.0,0.0,0.0,0.0,0.0,0.0,0.0,0.0,0.0,0.0,0.0,0.0,0.0,0.0,0.0,0.0,0.0,0.0,0.0,0.0,0.0,0.0,0.0,0.0,0.0,0.0,0.0,0.0,0.0,0.0,0.0,0.0,0.0,0.0,0.0,0.0,0.0,0.0,0.0,0.0,0.0,0.0,0.0,0.0,0.0,0.0,0.0,0.0,0.0,0.0,0.0,0.0,0.0,0.0,0.0,0.0,0.0,0.0,0.0,0.0,0.0,0.9325,1.0228,0.7467,0.0,0.0,0.0,0.0,0.0,0.0,0.0,0.0,0.0,0.0,0.0,0.0,0.0,0.0,0.0,0.0,0.0,0.0,0.0,0.0,0.0,0.0,0.0,0.0,0.0,0.0,0.0,0.0,0.0,0.0,0.0,0.0,0.0,0.0,0.0,0.0,0.0,0.0,0.0,0.0,0.0,0.0,0.0,0.0,0.0,0.0,0.0,0.0,0.0,0.0,0.0,0.0,0.0,0.0,0.0,0.0,0.0,0.0,0.0,0.0,0.0,0.0,0.0,0.0,0.0,0.0,0.0,0.0,0.0,0.0,0.0,0.0,0.0,0.0,0.0,0.0,0.0,0.0,0.0,0.0,0.0,0.0,0.0,0.0,0.0,0.0,0.0,0.0,0.0,0.0,0.0,0.0,0.0,0.0,0.0,0.0,0.0,0.0,0.0,0.0,0.0,0.0,0.0,0.0,0.0,0.0,0.0,0.0,0.0,0.0,0.5557,0.379,0.8577,0.9347,0.5486,0.0,0.0,0.0,0.0,0.0,0.0,0.0,0.0,0.0,0.0,0.0,0.0,0.0,0.0,0.0,0.0,0.0,0.0,0.0,0.0,0.0,0.0,0.0,0.0,0.0,0.0,0.0,0.0,0.0,0.0,0.0,0.0,0.0,0.0,0.0,0.0,0.0,0.0,0.0,0.0,0.0,0.0,0.0,0.0,0.0,0.0,0.0,0.0,0.0,0.0,0.0,0.0,0.0,0.0,0.0,0.0,0.0,0.0,0.0,0.0,0.0,0.0,0.0,0.0,0.0,0.0,0.0,0.0,0.0,0.0,0.0,0.0,0.0,0.0,0.0,0.0,0.0,0.0,0.0,0.0,0.0,0.0,0.0,0.0,0.0,0.0,0.0,0.0,0.0,0.0,0.0,0.0,0.0,0.0,0.0,0.0,0.0,0.0,0.0,0.0,0.0,0.0,0.0,0.0,0.0,0.0,0.0,0.0,0.0,0.0,0.0,0.0,0.0,0.0,0.5294,0.0,0.0,0.0,0.0,0.0,0.0,0.0,0.0,0.0,0.0,0.0,0.0,0.0,0.0,0.0,0.0,0.0,0.0,0.0,0.0,0.0,0.0,0.0,0.0,0.0,0.0,0.0,0.0,0.0,0.0,0.0,0.0,0.0,0.0,0.0,0.0,0.0,0.0,0.0,0.0,0.0,0.0,0.0,0.0,0.0,0.0,0.0,0.0,0.0,0.0,0.0,0.0,0.0,0.0,0.0,0.0,0.0,0.0,0.0,0.0,0.0,0.0,0.0,0.0,0.0,0.0,0.0,0.0,0.0,0.0,0.0,0.0,0.0,0.0,0.0,0.0,0.0,0.0,0.0,0.0,0.0,0.0,0.0,0.0,0.0,0.0,0.0,0.0,0.0,0.0,0.0,0.0,0.0,0.0,0.0,0.0,0.0,0.0,0.0,0.0,0.0,0.0,0.0,0.0,0.0,0.0,0.0,0.0,0.0,0.0,0.0,0.0,0.0,0.0,0.0,0.0,0.0,0.0,0.0,0.0,0.0,0.0,0.0,0.0,0.0,0.0,0.0,0.0,0.0,0.0,0.0,0.0,0.0,0.0,0.0,0.0,0.0,0.0,0.0,0.0,0.0,0.0,0.0,0.0,0.0,0.0,0.0,0.0,0.0,0.0,0.0,0.0,0.0,0.0,0.0,0.0,0.0,0.0,0.0,0.0,0.0,0.0,0.0,0.0,0.0,0.0,0.0,0.0,0.0,0.0,0.0,0.0,0.0,0.0,0.0,0.0,0.0,0.0,0.0,0.0,0.0,0.0,0.0,0.0,0.0,0.0,0.0,0.0,0.0,0.0,0.0,0.0,0.0,0.0,0.0,0.0,0.0,0.0,0.0,0.0,0.0,0.0,0.0,0.0,0.0,0.0,0.0,0.0,0.0,0.0,0.0,0.0,0.0,0.0,0.0,0.0,0.0,0.0,0.0,0.0,0.0,0.0,0.0,0.0,0.0,0.0,0.0,0.0,0.0,0.0,0.0,0.0,0.0,0.0,0.0,0.0,0.0,0.0,0.0,0.0,0.0,0.0,0.0,0.0,0.0,0.0,0.0,0.0,0.0,0.0,0.0,0.0,0.0,0.0,0.0,0.0,0.0,0.0,0.0,0.0,0.0,0.0,0.0,0.0,0.0,0.0,0.0,0.0,0.0,0.0,0.0,0.0,0.0,0.0,0.0,0.0,0.0,0.0,0.0,0.0,0.0,0.0,0.0,0.0,0.0,0.0,0.0,0.0,0.0,0.0,0.0,0.0,0.0,0.0,0.0,0.0,0.0,0.0,0.0,0.0,0.0,0.0,0.0,0.0,0.0,0.0,0.0,0.0,0.0,0.0,0.0,0.0,0.0,0.0,0.0,0.0,0.0,0.0,0.0,0.0,0.0,0.0,0.0,0.0,0.0,0.0,0.0,0.0,0.0,0.0,0.0,0.0,0.0,0.0,0.0,0.0,0.0,0.0,0.0,0.0,0.0,0.0,0.0,0.0,0.0,0.0,0.0,0.0,0.0,0.0,0.0,0.0,0.0,0.0,0.0,0.0,0.0,0.0,0.0,0.0,0.0,0.0,0.0,0.0,0.0,0.0,0.0,0.0,0.0,0.0,0.0,0.0,0.0,0.0,0.0,0.0,0.0,0.0,0.0,0.0,0.0,0.0,0.0,0.0,0.0,0.0,0.0,0.0,0.0,0.0,0.0,0.0,0.0,0.0,0.0,0.0,0.0,0.0,0.0,0.0,0.0,0.0,0.0,0.0,0.0,0.0,0.0,0.0,0.0,0.0,0.0,0.0,0.0,0.0,0.0,0.0,0.0,0.0,0.0,0.0,0.0,0.0,0.0,0.0,0.0,0.0,0.0,0.0,0.0,0.0,0.0,0.0,0.0,0.0,0.0,0.0,0.0,0.0,0.0,0.0,0.0,0.0,0.0,0.0,0.0,0.0,0.0,0.0,0.0,0.0,0.0,0.0,0.0,0.0,0.0,0.0,0.0,0.0,0.0,0.0,0.0,0.0,0.0,0.0,0.0,0.0,0.0,0.0,0.0,0.0,0.0,0.0,0.0,0.0,0.0,0.0,0.0,0.0,0.0,0.0,0.0,0.0,0.0,0.0,0.0,0.0,0.0,0.0,0.0,0.0,0.0,0.0,0.0,0.0,0.0,0.0,0.0,0.0,0.0,0.0,0.0,0.0,0.0,0.0,0.0,0.0,0.0,0.0,0.0,0.0,0.0,0.0,0.0,0.0,0.0,0.0,0.0,0.0,0.0,0.0,0.0,0.0,0.0,0.0,0.0,0.0,0.0,0.0,0.0,0.0,0.0,0.0,0.0,0.0,0.0,0.0,0.0,0.0,0.0,0.0,0.0,0.0,0.0,0.0,0.0,0.0,0.0,0.0,0.0,0.0,0.0,0.0,0.0,0.0,0.0,0.0,0.0,0.0,0.0,0.0,0.0,0.0,0.0,0.0,0.0,0.0,0.0,0.0,0.0,0.0,0.0,0.0,0.0,0.0,0.0,0.0,0.0,0.0,0.0,0.0,0.0,0.0,0.0,0.0,0.0,0.0,0.0,0.0,0.0,0.0,0.0,0.0,0.0,0.0,0.0,0.0,0.0,0.0,0.0,0.0,0.0,0.0,0.0,0.0,0.0,0.0,0.0,0.0,0.0,0.0,0.0,0.0,0.0,0.0,0.0,0.0,0.0,0.0,0.0,0.0,0.0,0.0,0.0,0.0,0.0,0.0,0.0,0.0,0.0,0.0,0.0,0.0,0.0,0.0,0.0,0.0,0.0,0.0,0.0,0.0,0.0,0.0,0.0,0.0,0.0,0.0,0.0,0.0,0.0,0.0,0.0,0.0,0.0,0.0,0.0,0.0,0.0,0.0,0.0,0.0,0.0,0.0,0.0,0.0,0.0,0.0,0.0,0.0,0.0,0.0,0.0,0.0,0.0,0.0,0.0,0.0,0.0,0.0,0.0,0.0,0.0,0.0,0.0,0.0,0.0,0.0,0.0,0.0,0.0,0.0,0.0,0.0,0.0,0.0,0.0,0.0,0.0,0.0,0.0,0.0,0.0,0.0,0.0,0.0,0.0,0.0,0.0,0.0,0.0,0.0,0.0,0.0,0.0,0.0,0.0,0.0,0.0,0.0,0.0,0.0,0.0,0.0,0.0,0.0,0.0,0.0,0.0,0.0,0.0,0.0,0.0,0.0,0.0,0.0,0.0,0.0,0.0,0.0,0.0,0.0,0.0,0.0,0.0,0.0,0.0,0.0,0.0,0.0,0.0,0.0,0.0,0.0,0.0,0.0,0.0,0.0,0.0,0.0,0.0,0.0,0.0,0.0,0.0,0.0,0.0,0.0,0.0,0.0,0.0,0.0,0.0,0.0,0.0,0.0,0.0,0.0,0.0,0.0,0.0,0.0,0.0,0.0,0.0,0.0,0.0,0.0,0.0,0.0,0.0,0.0,0.0,0.0,0.0,0.0,0.0,0.0,0.0,0.0,0.0,0.0,0.0,0.0,0.0,0.0,0.0,0.0,0.0,0.0,0.0,0.0,0.0,0.0,0.0,0.0,0.0,0.0,0.0,0.0,0.0,0.0,0.0,0.0,0.0,0.0,0.0,0.0,0.0,0.0,0.0,0.0,0.0,0.0,0.0,0.0,0.0,0.0,0.0,0.0,0.0,0.0,0.0,0.0,0.0,0.0,0.0,0.0,0.0,0.0,0.0,0.0,0.0,0.0,0.0,0.0,0.0,0.0,0.0,0.0,0.0,0.0,0.0,0.0,0.0,0.0,0.0,0.0,0.0,0.0,0.0,0.0,0.0,0.0,0.0,0.0,0.0,0.0,0.0,0.0,0.0,0.0,0.0,0.0,0.0,0.0,0.0,0.0,0.0,0.0,0.0,0.0,0.0,0.0,0.0,0.0,0.0,0.0,0.0,0.0,0.0,0.0,0.0,0.0,0.0,0.0,0.0,0.0,0.0,0.0,0.0,0.0,0.0,0.0,0.0,0.0,0.0,0.0,0.0,0.0,0.0,0.0,0.0,0.0,0.0,0.0,0.0,0.0,0.0,0.0,0.0,0.0,0.0,0.0,0.0,0.0,0.0,0.0,0.0,0.0,0.0,0.0,0.0,0.0,0.0,0.0,0.0,0.0,0.0,0.0,0.0,0.0,0.0,0.0,0.0,0.0,0.0,0.0,0.0,0.0,0.0,0.0,0.0,0.0,0.0,0.0,0.0,0.0,0.0,0.0,0.0,0.0,0.0,0.0,0.0,0.0,0.0,0.0,0.0,0.0,0.0,0.0,0.0,0.0,0.0,0.0,0.0,0.0,0.0,0.0]}]]]